[[{"header":{"parameterUnit":"m.s-1","parameterCategory":1,"la1":31.0,"la2":29.5877,"lo1":-88.7671,"lo2":-86.6584,"dy":0.0162,"dx":0.0185,"nx":115,"ny":88,"refTime":"2026-04-10T00:00:00:Z","depth":0,"parameterNumber":2,"parameterNumberName":"U-component_of_WINDS"},"data":[0.0,0.0,0.0,0.0,0.0,0.0,0.0,0.0,0.0,0.0,0.0,0.0,0.0,0.0,0.0,0.0,0.0,0.0,0.0,0.0,0.0,0.0,0.0,0.0,0.0,0.0,0.0,0.0,0.0,0.0,0.0,0.0,0.0,0.0,0.0,0.0,0.0,0.0,0.0,0.0,0.0,0.0,0.0,0.0,0.0,0.0,0.0,0.0,0.0,0.0,0.0,0.0,0.0,0.0,0.0,0.0,0.0,0.0,0.0,0.0,0.0,0.0,0.0,0.0,0.0,0.0,0.0,0.0,0.0,0.0,0.0,0.0,0.0,0.0,0.0,0.0,0.0,0.0,0.0,0.0,0.0,0.0,0.0,0.0,0.0,0.0,0.0,0.0,0.0,0.0,0.0,0.0,0.0,0.0,0.0,0.0,0.0,0.0,0.0,0.0,0.0,0.0,0.0,0.0,0.0,0.0,0.0,0.0,0.0,0.0,0.0,0.0,0.0,0.0,0.0,0.0,0.0,0.0,0.0,0.0,0.0,0.0,0.0,0.0,0.0,0.0,0.0,0.0,0.0,0.0,0.0,0.0,0.0,0.0,0.0,0.0,0.0,0.0,0.0,0.0,0.0,0.0,0.0,0.0,0.0,0.0,0.0,0.0,0.0,0.0,0.0,0.0,0.0,0.0,0.0,0.0,0.0,0.0,0.0,0.0,0.0,0.0,0.0,0.0,0.0,0.0,0.0,0.0,0.0,0.0,0.0,0.0,0.0,0.0,0.0,0.0,0.0,0.0,0.0,0.0,0.0,0.0,0.0,0.0,0.0,0.0,0.0,0.0,0.0,0.0,0.0,0.0,0.0,0.0,0.0,0.0,0.0,0.0,0.0,0.0,0.0,0.0,0.0,0.0,0.0,0.0,0.0,0.0,0.0,0.0,0.0,0.0,0.0,0.0,0.0,0.0,0.0,0.0,0.0,0.0,0.0,0.0,0.0,0.0,0.0,0.0,0.0,0.0,0.0,0.0,0.0,0.0,0.0,0.0,0.0,0.0,0.0,0.0,0.0,0.0,0.0,0.0,0.0,0.0,0.0,0.0,0.0,0.0,0.0,0.0,0.0,0.0,0.0,0.0,0.0,0.0,0.0,0.0,0.0,0.0,0.0,0.0,0.0,0.0,0.0,0.0,0.0,0.0,0.0,0.0,0.0,0.0,0.0,0.0,0.0,0.0,0.0,0.0,0.0,0.0,0.0,0.0,0.0,0.0,0.0,0.0,0.0,0.0,0.0,0.0,0.0,0.0,0.0,0.0,0.0,0.0,0.0,0.0,0.0,0.0,0.0,0.0,0.0,0.0,0.0,0.0,0.0,0.0,0.0,0.0,0.0,0.0,0.0,0.0,0.0,0.0,0.0,0.0,0.0,0.0,0.0,0.0,0.0,0.0,0.0,0.0,0.0,0.0,0.0,0.0,0.0,0.0,0.0,0.0,0.0,0.0,0.0,0.0,0.0,0.0,0.0,0.0,0.0,0.0,0.0,0.0,0.0,0.0,0.0,0.0,0.0,0.0,0.0,0.0,0.0,0.0,0.0,0.0,0.0,0.0,0.0,0.0,0.0,0.0,0.0,0.0,0.0,0.0,0.0,0.0,0.0,0.0,0.0,0.0,0.0,0.0,0.0,0.0,0.0,0.0,0.0,0.0,0.0,0.0,0.0,0.0,0.0,0.0,0.0,0.0,0.0,0.0,0.0,0.0,0.0,0.0,0.0,0.0,0.0,0.0,0.0,0.0,0.0,0.0,0.0,0.0,0.0,0.0,0.0,0.0,0.0,0.0,0.0,0.0,0.0,0.0,0.0,0.0,0.0,0.0,0.0,0.0,0.0,0.0,0.0,0.0,0.0,0.0,0.0,0.0,0.0,0.0,0.0,0.0,0.0,0.0,0.0,0.0,0.0,0.0,0.0,0.0,0.0,0.0,0.0,0.0,0.0,0.0,0.0,0.0,0.0,0.0,0.0,0.0,0.0,0.0,0.0,0.0,0.0,0.0,0.0,0.0,0.0,0.0,0.0,0.0,0.0,0.0,0.0,0.0,0.0,0.0,0.0,0.0,0.0,0.0,0.0,0.0,0.0,0.0,0.0,0.0,0.0,0.0,0.0,0.0,0.0,0.0,0.0,0.0,0.0,0.0,0.0,0.0,0.0,0.0,0.0,0.0,0.0,0.0,0.0,0.0,0.0,0.0,0.0,0.0,0.0,0.0,0.0,0.0,0.0,0.0,0.0,0.0,0.0,0.0,0.0,0.0,0.0,0.0,0.0,0.0,0.0,0.0,0.0,0.0,0.0,0.0,0.0,0.0,0.0,0.0,0.0,0.0,0.0,0.0,0.0,0.0,0.0,0.0,0.0,0.0,0.0,0.0,0.0,0.0,0.0,0.0,0.0,0.0,0.0,0.0,0.0,0.0,0.0,0.0,0.0,0.0,0.0,0.0,0.0,0.0,0.0,0.0,0.0,0.0,0.0,0.0,0.0,0.0,0.0,0.0,0.0,0.0,0.0,0.0,0.0,0.0,0.0,0.0,0.0,0.0,0.0,0.0,0.0,0.0,0.0,0.0,0.0,0.0,0.0,0.0,0.0,0.0,0.0,0.0,0.0,0.0,0.0,0.0,0.0,0.0,0.0,0.0,0.0,0.0,0.0,0.0,0.0,0.0,0.0,0.0,0.0,0.0,0.0,0.0,0.0,0.0,0.0,0.0,0.0,0.0,0.0,0.0,0.0,0.0,0.0,0.0,0.0,0.0,0.0,0.0,0.0,0.0,0.0,0.0,0.0,0.0,0.0,0.0,0.0,0.0,0.0,0.0,0.0,0.0,0.0,0.0,0.0,0.0,0.0,0.0,0.0,0.0,0.0,0.0,0.0,0.0,0.0,0.0,0.0,0.0,0.0,0.0,0.0,0.0,0.0,0.0,0.0,0.0,0.0,0.0,0.0,0.0,0.0,0.0,0.0,0.0,0.0,0.0,0.0,0.0,0.0,0.0,0.0,0.0,0.0,0.0,0.0,0.0,0.0,0.0,0.0,0.0,0.0,0.0,0.0,0.0,0.0,0.0,0.0,0.0,0.0,0.0,0.0,0.0,0.0,0.0,0.0,0.0,0.0,0.0,0.0,0.0,0.0,0.0,0.0,0.0,0.0,0.0,0.0,0.0,0.0,0.0,0.0,0.0,0.0,0.0,0.0,0.0,0.0,0.0,0.0,0.0,0.0,0.0,0.0,0.0,0.0,0.0,0.0,0.0,0.0,0.0,0.0,0.0,0.0,0.0,0.0,0.0,0.0,0.0,0.0,0.0,0.0,0.0,0.0,0.0,0.0,0.0,0.0,0.0,0.0,0.0,0.0,0.0,0.0,0.0,0.0,0.0,0.0,0.0,0.0,0.0,0.0,0.0,0.0,0.0,0.0,0.0,0.0,0.0,0.0,0.0,0.0,0.0,0.0,0.0,0.0,0.0,0.0,0.0,0.0,0.0,0.0,0.0,0.0,0.0,0.0,0.0,0.0,0.0,0.0,0.0,0.0,0.0,0.0,0.0,0.0,0.0,0.0,0.0,0.0,0.0,0.0,0.0,0.0,0.0,0.0,0.0,0.0,0.0,0.0,0.0,0.0,0.0,0.0,0.0,0.0,0.0,0.0,0.0,0.0,0.0,0.0,0.0,0.0,0.0,0.0,0.0,0.0,0.0,0.0,0.0,0.0,0.0,0.0,0.0,0.0,0.0,0.0,0.0,0.0,0.0,0.0,0.0,0.0,0.0,0.0,0.0,0.0,0.0,0.0,0.0,0.0,0.0,0.0,0.0,0.0,0.0,0.0,0.0,0.0,0.0,0.0,0.0,0.0,0.0,0.0,0.0,0.0,0.0,0.0,0.0,0.0,0.0,0.0,0.0,0.0,0.0,0.0,0.0,0.0,0.0,0.0,0.0,0.0,0.0,0.0,0.0,0.0,0.0,0.0,0.0,0.0,0.0,0.0,0.0,0.0,0.0,0.0,0.0,0.0,0.0,0.0,0.0,0.0,0.0,0.0,0.0,0.0,0.0,0.0,0.0,0.0,0.0,0.0,0.0,0.0,0.0,0.0,0.0,0.0,0.0,0.0,0.0,0.0,0.0,0.0,0.0,0.0,0.0,0.0,0.0,0.0,0.0,0.0,0.0,0.0,0.0,0.0,0.0,0.0,0.0,0.0,0.0,0.0,0.0,0.0,0.0,0.0,0.0,0.0,0.0,0.0,0.0,-1.8235,0.0,0.0,0.0,0.0,0.0,0.0,0.0,0.0,0.0,0.0,0.0,0.0,0.0,0.0,0.0,0.0,0.0,0.0,0.0,0.0,0.0,0.0,0.0,0.0,0.0,0.0,0.0,0.0,0.0,0.0,0.0,0.0,0.0,0.0,0.0,0.0,0.0,0.0,0.0,0.0,0.0,0.0,0.0,0.0,0.0,0.0,0.0,0.0,0.0,0.0,0.0,0.0,0.0,0.0,0.0,0.0,0.0,0.0,0.0,0.0,0.0,0.0,0.0,0.0,0.0,0.0,0.0,0.0,0.0,0.0,0.0,0.0,0.0,0.0,0.0,0.0,0.0,0.0,0.0,0.0,0.0,0.0,0.0,0.0,0.0,0.0,0.0,0.0,0.0,0.0,0.0,0.0,0.0,0.0,0.0,0.0,0.0,0.0,0.0,0.0,0.0,0.0,0.0,0.0,0.0,0.0,0.0,0.0,0.0,0.0,-2.1141,-2.1267,-2.1222,-2.0761,-1.9843,0.0,0.0,0.0,0.0,0.0,0.0,0.0,0.0,0.0,0.0,0.0,0.0,0.0,0.0,0.0,0.0,0.0,0.0,0.0,0.0,0.0,0.0,0.0,0.0,0.0,0.0,0.0,0.0,0.0,0.0,0.0,0.0,0.0,0.0,0.0,0.0,0.0,0.0,0.0,0.0,0.0,0.0,0.0,0.0,0.0,0.0,0.0,0.0,0.0,0.0,0.0,0.0,0.0,0.0,0.0,0.0,0.0,0.0,0.0,0.0,0.0,0.0,0.0,0.0,0.0,0.0,0.0,0.0,0.0,0.0,0.0,0.0,0.0,0.0,0.0,0.0,0.0,0.0,0.0,0.0,0.0,0.0,0.0,0.0,0.0,0.0,0.0,0.0,0.0,0.0,0.0,0.0,0.0,0.0,0.0,0.0,0.0,0.0,0.0,0.0,0.0,0.0,0.0,0.0,0.0,0.0,0.0,0.0,0.0,0.0,0.0,0.0,-2.2985,-2.2636,-2.1384,0.0,0.0,0.0,0.0,0.0,0.0,0.0,0.0,0.0,0.0,0.0,0.0,0.0,0.0,0.0,0.0,0.0,0.0,0.0,0.0,0.0,0.0,0.0,0.0,0.0,0.0,0.0,0.0,0.0,0.0,0.0,0.0,0.0,0.0,0.0,0.0,0.0,0.0,0.0,0.0,0.0,0.0,0.0,0.0,0.0,0.0,0.0,0.0,0.0,0.0,0.0,0.0,0.0,0.0,0.0,0.0,0.0,0.0,0.0,0.0,0.0,0.0,0.0,0.0,0.0,0.0,0.0,0.0,0.0,0.0,0.0,0.0,0.0,0.0,0.0,0.0,0.0,0.0,0.0,0.0,0.0,0.0,0.0,0.0,0.0,0.0,0.0,0.0,0.0,0.0,0.0,0.0,0.0,0.0,0.0,0.0,0.0,0.0,0.0,0.0,0.0,0.0,0.0,0.0,0.0,0.0,0.0,0.0,0.0,0.0,-2.2955,-2.3195,-2.3551,0.0,-2.2348,0.0,0.0,0.0,0.0,0.0,0.0,0.0,0.0,0.0,0.0,0.0,0.0,0.0,0.0,0.0,0.0,0.0,0.0,0.0,0.0,0.0,0.0,0.0,0.0,0.0,0.0,0.0,0.0,0.0,0.0,0.0,0.0,0.0,0.0,0.0,0.0,0.0,0.0,0.0,0.0,0.0,0.0,0.0,0.0,0.0,0.0,0.0,0.0,0.0,0.0,0.0,0.0,0.0,0.0,0.0,0.0,0.0,0.0,0.0,0.0,0.0,0.0,0.0,0.0,0.0,0.0,0.0,0.0,0.0,0.0,0.0,0.0,0.0,0.0,0.0,0.0,0.0,0.0,0.0,0.0,0.0,0.0,0.0,0.0,0.0,0.0,0.0,0.0,0.0,0.0,0.0,0.0,0.0,0.0,0.0,0.0,0.0,0.0,0.0,0.0,0.0,0.0,0.0,0.0,0.0,0.0,0.0,0.0,0.0,0.0,-2.4966,-2.5078,-2.4314,-2.3741,0.0,0.0,0.0,0.0,0.0,0.0,0.0,0.0,0.0,0.0,0.0,0.0,0.0,0.0,0.0,0.0,0.0,0.0,0.0,0.0,0.0,0.0,0.0,0.0,0.0,0.0,0.0,0.0,0.0,0.0,0.0,0.0,0.0,0.0,0.0,0.0,0.0,0.0,0.0,0.0,0.0,0.0,0.0,0.0,0.0,0.0,0.0,0.0,0.0,0.0,0.0,0.0,0.0,0.0,0.0,0.0,0.0,0.0,0.0,0.0,0.0,0.0,0.0,0.0,0.0,0.0,0.0,0.0,0.0,0.0,0.0,0.0,0.0,0.0,0.0,0.0,0.0,0.0,0.0,0.0,0.0,0.0,0.0,0.0,0.0,0.0,0.0,0.0,0.0,0.0,0.0,0.0,0.0,0.0,0.0,0.0,0.0,0.0,0.0,0.0,0.0,0.0,0.0,0.0,0.0,0.0,0.0,0.0,0.0,0.0,-2.6068,-2.6363,-2.6412,-2.53,-2.4565,-2.4294,0.0,0.0,0.0,0.0,0.0,0.0,0.0,0.0,0.0,0.0,0.0,0.0,0.0,0.0,0.0,0.0,0.0,0.0,0.0,0.0,0.0,0.0,0.0,0.0,0.0,0.0,0.0,0.0,0.0,0.0,0.0,0.0,0.0,0.0,0.0,0.0,0.0,0.0,0.0,0.0,0.0,0.0,0.0,0.0,0.0,0.0,0.0,0.0,0.0,0.0,0.0,0.0,0.0,0.0,0.0,0.0,0.0,0.0,0.0,0.0,0.0,0.0,0.0,0.0,0.0,0.0,0.0,0.0,0.0,0.0,0.0,0.0,0.0,0.0,0.0,0.0,0.0,0.0,0.0,0.0,0.0,0.0,0.0,0.0,0.0,0.0,0.0,0.0,0.0,0.0,0.0,0.0,0.0,0.0,0.0,0.0,0.0,0.0,0.0,0.0,0.0,0.0,0.0,0.0,0.0,0.0,0.0,0.0,0.0,-2.6095,-2.6522,-2.6941,-2.6624,-2.6025,0.0,0.0,0.0,0.0,0.0,0.0,0.0,0.0,0.0,0.0,0.0,0.0,0.0,0.0,0.0,0.0,0.0,0.0,0.0,0.0,0.0,0.0,0.0,0.0,0.0,0.0,0.0,0.0,0.0,0.0,0.0,0.0,0.0,0.0,0.0,0.0,0.0,0.0,0.0,0.0,0.0,0.0,0.0,0.0,0.0,0.0,0.0,0.0,0.0,0.0,0.0,0.0,0.0,0.0,0.0,0.0,0.0,0.0,0.0,0.0,0.0,0.0,0.0,0.0,0.0,0.0,0.0,0.0,0.0,0.0,0.0,0.0,0.0,0.0,0.0,0.0,0.0,0.0,0.0,0.0,0.0,0.0,0.0,0.0,0.0,0.0,0.0,0.0,0.0,0.0,0.0,0.0,0.0,0.0,0.0,0.0,0.0,0.0,0.0,0.0,0.0,0.0,0.0,0.0,0.0,0.0,0.0,0.0,0.0,-2.7348,-2.7936,-2.8659,-2.9367,-2.7773,-2.666,0.0,0.0,0.0,0.0,0.0,0.0,0.0,0.0,0.0,0.0,0.0,0.0,0.0,0.0,0.0,0.0,0.0,0.0,0.0,0.0,0.0,0.0,0.0,0.0,0.0,0.0,0.0,0.0,0.0,0.0,0.0,0.0,0.0,0.0,0.0,0.0,0.0,0.0,0.0,0.0,0.0,0.0,0.0,0.0,0.0,0.0,0.0,0.0,0.0,0.0,0.0,0.0,0.0,0.0,0.0,0.0,0.0,0.0,0.0,0.0,0.0,0.0,0.0,0.0,0.0,0.0,0.0,0.0,0.0,0.0,0.0,0.0,0.0,0.0,0.0,0.0,0.0,0.0,0.0,0.0,0.0,0.0,0.0,0.0,0.0,0.0,0.0,0.0,0.0,0.0,0.0,0.0,0.0,0.0,0.0,0.0,0.0,0.0,0.0,0.0,0.0,0.0,0.0,0.0,0.0,0.0,0.0,0.0,0.0,-2.8654,0.0,-2.9765,0.0,-2.8909,-2.7689,0.0,0.0,0.0,0.0,0.0,0.0,0.0,0.0,0.0,0.0,0.0,0.0,0.0,0.0,0.0,0.0,0.0,0.0,0.0,0.0,0.0,0.0,0.0,0.0,0.0,0.0,0.0,0.0,0.0,0.0,0.0,0.0,0.0,0.0,0.0,0.0,0.0,0.0,0.0,0.0,0.0,0.0,0.0,0.0,0.0,0.0,0.0,0.0,0.0,0.0,0.0,0.0,0.0,0.0,0.0,0.0,0.0,0.0,0.0,0.0,0.0,0.0,0.0,0.0,0.0,0.0,0.0,0.0,0.0,0.0,0.0,0.0,0.0,0.0,0.0,0.0,0.0,0.0,0.0,0.0,0.0,0.0,0.0,0.0,0.0,0.0,0.0,0.0,0.0,0.0,0.0,0.0,0.0,0.0,0.0,0.0,0.0,0.0,0.0,0.0,0.0,0.0,0.0,0.0,0.0,0.0,0.0,0.0,-2.9363,-2.9448,-2.9473,-2.9683,-2.9848,-2.9989,-2.9113,0.0,0.0,0.0,0.0,0.0,0.0,0.0,0.0,0.0,0.0,0.0,0.0,0.0,0.0,0.0,0.0,0.0,0.0,0.0,0.0,0.0,0.0,0.0,0.0,0.0,0.0,0.0,0.0,0.0,0.0,0.0,0.0,0.0,0.0,0.0,0.0,0.0,0.0,0.0,0.0,0.0,0.0,0.0,0.0,0.0,0.0,0.0,0.0,0.0,0.0,0.0,0.0,0.0,0.0,0.0,0.0,0.0,0.0,0.0,0.0,0.0,0.0,0.0,0.0,0.0,0.0,0.0,0.0,0.0,0.0,0.0,0.0,0.0,0.0,0.0,0.0,0.0,0.0,0.0,0.0,0.0,0.0,0.0,0.0,0.0,0.0,0.0,0.0,0.0,0.0,0.0,0.0,0.0,0.0,0.0,0.0,0.0,0.0,0.0,0.0,0.0,0.0,0.0,0.0,0.0,0.0,0.0,0.0,0.0,-3.1075,-3.1179,-3.1453,-3.1859,-3.091,-2.9936,0.0,0.0,0.0,0.0,0.0,0.0,0.0,0.0,0.0,0.0,0.0,0.0,0.0,0.0,0.0,0.0,0.0,0.0,0.0,0.0,0.0,0.0,0.0,0.0,0.0,0.0,0.0,0.0,0.0,0.0,0.0,0.0,0.0,0.0,0.0,0.0,0.0,0.0,0.0,0.0,0.0,0.0,0.0,0.0,0.0,0.0,0.0,0.0,0.0,0.0,0.0,0.0,0.0,0.0,0.0,0.0,0.0,0.0,0.0,0.0,0.0,0.0,0.0,0.0,0.0,0.0,0.0,0.0,0.0,0.0,0.0,0.0,0.0,0.0,0.0,0.0,0.0,0.0,0.0,0.0,0.0,0.0,0.0,0.0,0.0,0.0,0.0,0.0,0.0,0.0,0.0,0.0,0.0,0.0,0.0,0.0,0.0,0.0,0.0,0.0,0.0,0.0,0.0,0.0,0.0,0.0,0.0,0.0,0.0,-3.2857,-3.2625,-3.2598,-3.2678,-3.1892,-3.1033,-3.0078,0.0,0.0,0.0,0.0,0.0,0.0,0.0,0.0,0.0,0.0,0.0,0.0,0.0,0.0,0.0,0.0,0.0,0.0,0.0,0.0,0.0,0.0,0.0,0.0,0.0,0.0,0.0,0.0,0.0,0.0,0.0,0.0,0.0,0.0,0.0,0.0,0.0,0.0,0.0,0.0,0.0,0.0,0.0,0.0,0.0,0.0,0.0,0.0,0.0,0.0,0.0,0.0,0.0,0.0,0.0,0.0,0.0,0.0,0.0,0.0,0.0,0.0,0.0,0.0,0.0,0.0,0.0,0.0,0.0,0.0,0.0,0.0,0.0,0.0,0.0,0.0,0.0,0.0,0.0,0.0,0.0,0.0,0.0,0.0,0.0,0.0,0.0,0.0,0.0,0.0,0.0,0.0,0.0,0.0,0.0,0.0,0.0,0.0,0.0,0.0,0.0,0.0,0.0,0.0,0.0,0.0,0.0,0.0,-3.4624,-3.3917,-3.3213,-3.2562,-3.2912,-3.2362,0.0,0.0,0.0,0.0,0.0,0.0,0.0,0.0,0.0,0.0,0.0,0.0,0.0,0.0,0.0,0.0,0.0,0.0,0.0,0.0,0.0,0.0,0.0,0.0,0.0,0.0,0.0,0.0,0.0,0.0,0.0,0.0,0.0,0.0,0.0,0.0,0.0,0.0,0.0,0.0,0.0,0.0,0.0,0.0,0.0,0.0,0.0,0.0,0.0,0.0,0.0,0.0,0.0,0.0,0.0,0.0,0.0,0.0,0.0,0.0,0.0,0.0,0.0,0.0,0.0,0.0,0.0,0.0,0.0,0.0,0.0,0.0,0.0,0.0,0.0,0.0,0.0,0.0,0.0,0.0,0.0,0.0,0.0,0.0,0.0,0.0,0.0,0.0,0.0,0.0,0.0,0.0,0.0,0.0,0.0,0.0,0.0,0.0,0.0,0.0,0.0,0.0,0.0,0.0,0.0,0.0,0.0,0.0,0.0,-3.5096,-3.5856,-3.5776,-3.4758,-3.3916,-3.3159,0.0,0.0,0.0,0.0,0.0,0.0,0.0,0.0,0.0,0.0,0.0,0.0,0.0,0.0,0.0,0.0,0.0,0.0,0.0,0.0,0.0,0.0,0.0,0.0,0.0,0.0,0.0,0.0,0.0,0.0,0.0,0.0,0.0,0.0,0.0,0.0,0.0,0.0,0.0,0.0,0.0,0.0,0.0,0.0,0.0,0.0,0.0,0.0,0.0,0.0,0.0,0.0,0.0,0.0,0.0,0.0,0.0,0.0,0.0,0.0,0.0,0.0,0.0,0.0,0.0,0.0,0.0,0.0,0.0,0.0,0.0,0.0,0.0,0.0,0.0,0.0,0.0,0.0,0.0,0.0,0.0,0.0,0.0,0.0,0.0,0.0,0.0,0.0,0.0,0.0,0.0,0.0,0.0,0.0,0.0,0.0,0.0,0.0,0.0,0.0,0.0,0.0,0.0,0.0,0.0,0.0,0.0,0.0,-3.5771,-3.6334,-3.7113,-3.7331,-3.6988,-3.5464,-3.4235,0.0,0.0,0.0,0.0,0.0,0.0,0.0,0.0,0.0,0.0,0.0,0.0,0.0,0.0,0.0,0.0,0.0,0.0,0.0,0.0,0.0,0.0,0.0,0.0,0.0,0.0,0.0,0.0,0.0,0.0,0.0,0.0,0.0,0.0,0.0,0.0,0.0,0.0,0.0,0.0,0.0,0.0,0.0,0.0,0.0,0.0,0.0,0.0,0.0,0.0,0.0,0.0,0.0,0.0,0.0,0.0,0.0,0.0,0.0,0.0,0.0,0.0,0.0,0.0,0.0,0.0,0.0,0.0,0.0,0.0,0.0,0.0,0.0,0.0,0.0,0.0,0.0,0.0,0.0,0.0,0.0,0.0,0.0,0.0,0.0,0.0,0.0,0.0,0.0,0.0,0.0,0.0,0.0,0.0,0.0,0.0,0.0,0.0,0.0,0.0,0.0,0.0,0.0,0.0,0.0,0.0,0.0,0.0,-3.6505,-3.7817,-3.7934,-3.828,-3.8847,-3.7038,-3.5332,0.0,0.0,0.0,0.0,0.0,0.0,0.0,0.0,0.0,0.0,0.0,0.0,0.0,0.0,0.0,0.0,0.0,0.0,0.0,0.0,0.0,0.0,0.0,0.0,0.0,0.0,0.0,0.0,0.0,0.0,0.0,0.0,0.0,0.0,0.0,0.0,0.0,0.0,0.0,0.0,0.0,0.0,0.0,0.0,0.0,0.0,0.0,0.0,0.0,0.0,0.0,0.0,0.0,0.0,0.0,0.0,0.0,0.0,0.0,0.0,0.0,0.0,0.0,0.0,0.0,0.0,0.0,0.0,0.0,0.0,0.0,0.0,0.0,0.0,0.0,0.0,0.0,0.0,0.0,0.0,0.0,0.0,0.0,0.0,0.0,0.0,0.0,0.0,0.0,0.0,0.0,0.0,0.0,0.0,0.0,0.0,0.0,0.0,0.0,0.0,0.0,0.0,0.0,0.0,0.0,0.0,0.0,0.0,-3.7184,-3.8234,-3.8748,-3.9045,-3.9205,-3.6991,-3.5404,0.0,0.0,0.0,0.0,0.0,0.0,0.0,0.0,0.0,0.0,0.0,0.0,0.0,0.0,0.0,0.0,0.0,0.0,0.0,0.0,0.0,0.0,0.0,0.0,0.0,0.0,0.0,0.0,0.0,0.0,0.0,0.0,0.0,0.0,0.0,0.0,0.0,0.0,0.0,0.0,0.0,0.0,0.0,0.0,0.0,0.0,0.0,0.0,-3.6256,0.0,0.0,0.0,0.0,0.0,0.0,0.0,0.0,0.0,0.0,0.0,0.0,0.0,0.0,0.0,0.0,0.0,0.0,0.0,0.0,0.0,0.0,0.0,0.0,0.0,0.0,0.0,0.0,0.0,0.0,0.0,0.0,0.0,0.0,0.0,0.0,0.0,0.0,0.0,0.0,0.0,0.0,0.0,0.0,0.0,0.0,0.0,0.0,0.0,0.0,0.0,0.0,0.0,0.0,0.0,0.0,0.0,0.0,0.0,-3.7595,-3.8371,-3.9087,-3.9401,-3.9261,-3.7641,-3.6157,0.0,0.0,0.0,0.0,0.0,0.0,0.0,0.0,0.0,0.0,0.0,0.0,0.0,0.0,0.0,0.0,0.0,0.0,0.0,0.0,0.0,0.0,0.0,0.0,0.0,0.0,0.0,0.0,0.0,0.0,0.0,0.0,0.0,0.0,0.0,0.0,0.0,0.0,0.0,0.0,0.0,0.0,0.0,0.0,0.0,0.0,0.0,0.0,0.0,0.0,0.0,0.0,0.0,0.0,0.0,0.0,0.0,0.0,0.0,0.0,0.0,0.0,0.0,0.0,0.0,0.0,0.0,0.0,0.0,0.0,0.0,0.0,0.0,0.0,0.0,0.0,0.0,0.0,0.0,0.0,0.0,0.0,0.0,0.0,0.0,0.0,0.0,0.0,0.0,0.0,0.0,0.0,0.0,0.0,0.0,0.0,0.0,0.0,0.0,0.0,0.0,0.0,0.0,0.0,0.0,0.0,0.0,-3.7466,-3.8123,-3.8752,-3.9517,-3.9877,-3.9724,-3.8809,-3.7411,-3.5658,0.0,0.0,0.0,0.0,0.0,0.0,0.0,0.0,0.0,0.0,0.0,0.0,0.0,0.0,0.0,0.0,0.0,0.0,0.0,0.0,0.0,0.0,0.0,0.0,0.0,0.0,0.0,0.0,0.0,0.0,0.0,0.0,0.0,0.0,0.0,0.0,0.0,0.0,-3.3215,-3.5057,0.0,0.0,0.0,0.0,0.0,0.0,0.0,0.0,-3.6843,0.0,0.0,0.0,0.0,0.0,0.0,0.0,0.0,0.0,0.0,0.0,0.0,0.0,0.0,0.0,0.0,0.0,0.0,0.0,0.0,0.0,0.0,0.0,0.0,0.0,0.0,0.0,0.0,0.0,0.0,0.0,0.0,0.0,0.0,0.0,0.0,0.0,0.0,0.0,0.0,0.0,0.0,0.0,0.0,0.0,0.0,0.0,0.0,0.0,0.0,0.0,0.0,0.0,0.0,0.0,0.0,-3.7897,-3.8491,-3.9397,-4.0698,-4.1288,-4.1618,-4.1606,-4.0598,-3.9398,-3.7948,0.0,0.0,0.0,0.0,0.0,0.0,0.0,0.0,0.0,0.0,0.0,0.0,0.0,0.0,0.0,0.0,0.0,0.0,0.0,0.0,0.0,0.0,0.0,0.0,0.0,0.0,0.0,0.0,0.0,0.0,0.0,0.0,0.0,0.0,0.0,0.0,0.0,0.0,0.0,-3.64,-3.7392,0.0,0.0,0.0,0.0,0.0,0.0,0.0,0.0,-3.8868,0.0,0.0,0.0,0.0,0.0,0.0,0.0,0.0,0.0,0.0,0.0,0.0,0.0,0.0,0.0,0.0,0.0,0.0,0.0,0.0,0.0,0.0,0.0,0.0,0.0,0.0,0.0,0.0,0.0,0.0,0.0,0.0,0.0,0.0,0.0,0.0,0.0,0.0,0.0,0.0,0.0,0.0,0.0,0.0,0.0,0.0,0.0,0.0,0.0,0.0,0.0,0.0,0.0,0.0,0.0,-3.8188,-3.9192,-4.021,-4.1156,-4.1651,-4.1924,-4.1954,-4.0942,-4.0043,0.0,0.0,0.0,0.0,0.0,0.0,0.0,0.0,0.0,0.0,0.0,0.0,0.0,0.0,0.0,0.0,0.0,0.0,0.0,0.0,0.0,0.0,0.0,0.0,0.0,0.0,0.0,0.0,0.0,0.0,0.0,0.0,0.0,0.0,0.0,0.0,0.0,0.0,0.0,0.0,-3.7411,-3.8222,-3.9384,0.0,0.0,0.0,0.0,0.0,0.0,-3.8631,-3.8787,0.0,0.0,0.0,0.0,0.0,0.0,0.0,0.0,0.0,0.0,0.0,0.0,0.0,0.0,0.0,0.0,0.0,0.0,0.0,0.0,0.0,0.0,0.0,0.0,0.0,0.0,0.0,0.0,0.0,0.0,0.0,0.0,0.0,0.0,0.0,0.0,0.0,0.0,0.0,0.0,0.0,0.0,0.0,0.0,0.0,0.0,0.0,0.0,0.0,0.0,0.0,0.0,0.0,0.0,0.0,-3.8573,-3.9949,-4.1044,-4.1741,-4.2099,-4.2324,-4.2343,-4.1381,-4.0644,0.0,0.0,0.0,0.0,0.0,0.0,0.0,0.0,0.0,0.0,0.0,0.0,0.0,0.0,0.0,0.0,0.0,0.0,0.0,0.0,0.0,0.0,0.0,0.0,0.0,0.0,0.0,0.0,0.0,0.0,0.0,0.0,0.0,0.0,0.0,0.0,0.0,0.0,0.0,0.0,0.0,-3.899,-3.9742,-3.8761,0.0,0.0,0.0,0.0,-3.8227,-3.8583,0.0,0.0,0.0,0.0,0.0,0.0,0.0,0.0,0.0,0.0,0.0,0.0,0.0,0.0,0.0,0.0,0.0,0.0,0.0,0.0,0.0,0.0,0.0,0.0,0.0,0.0,0.0,0.0,0.0,0.0,0.0,0.0,0.0,0.0,0.0,0.0,0.0,0.0,0.0,0.0,0.0,0.0,0.0,0.0,0.0,0.0,0.0,0.0,0.0,0.0,0.0,0.0,0.0,0.0,0.0,0.0,-3.9763,-4.0999,-4.2294,-4.359,-4.3803,-4.3946,-4.402,-4.3169,-4.2173,0.0,0.0,0.0,0.0,0.0,0.0,0.0,0.0,0.0,0.0,0.0,0.0,0.0,0.0,0.0,0.0,0.0,0.0,0.0,0.0,0.0,0.0,0.0,0.0,0.0,0.0,0.0,0.0,0.0,0.0,0.0,0.0,0.0,0.0,0.0,0.0,0.0,0.0,0.0,0.0,0.0,-3.9361,-3.9081,-3.8385,-3.7951,0.0,0.0,-3.9495,-4.0055,-4.0799,0.0,0.0,0.0,0.0,0.0,0.0,0.0,0.0,0.0,0.0,0.0,0.0,0.0,0.0,0.0,0.0,0.0,0.0,0.0,0.0,0.0,0.0,0.0,0.0,0.0,0.0,0.0,0.0,0.0,0.0,0.0,0.0,0.0,0.0,0.0,0.0,0.0,0.0,0.0,0.0,0.0,0.0,0.0,0.0,0.0,0.0,0.0,0.0,0.0,0.0,0.0,0.0,0.0,0.0,0.0,-3.7698,-3.9307,-4.0904,-4.2427,-4.3726,-4.3992,-4.4101,-4.4131,-4.2745,-4.164,0.0,0.0,0.0,0.0,0.0,0.0,0.0,0.0,0.0,0.0,0.0,0.0,0.0,0.0,0.0,0.0,0.0,0.0,0.0,0.0,0.0,0.0,0.0,0.0,0.0,0.0,0.0,0.0,0.0,0.0,0.0,0.0,0.0,0.0,0.0,0.0,0.0,0.0,0.0,0.0,0.0,0.0,-3.8831,-3.8726,0.0,0.0,0.0,-3.9856,-3.9428,0.0,0.0,0.0,0.0,0.0,0.0,0.0,0.0,0.0,0.0,0.0,0.0,0.0,0.0,0.0,0.0,0.0,0.0,0.0,0.0,0.0,0.0,0.0,0.0,0.0,0.0,0.0,0.0,0.0,0.0,0.0,0.0,0.0,0.0,0.0,0.0,0.0,0.0,0.0,0.0,0.0,0.0,0.0,0.0,0.0,0.0,0.0,0.0,0.0,0.0,0.0,0.0,0.0,0.0,0.0,0.0,0.0,-3.8767,-4.0597,-4.2141,-4.3387,-4.3476,-4.3516,-4.3463,-4.212,0.0,0.0,0.0,0.0,0.0,0.0,0.0,0.0,0.0,0.0,0.0,0.0,0.0,0.0,0.0,0.0,0.0,0.0,0.0,0.0,0.0,0.0,0.0,0.0,0.0,0.0,0.0,-2.6968,0.0,0.0,0.0,0.0,0.0,0.0,0.0,0.0,0.0,0.0,0.0,0.0,0.0,0.0,-3.7533,-3.8173,-3.8452,-3.869,0.0,0.0,-3.9656,-3.8875,-3.9707,-4.0002,0.0,0.0,0.0,0.0,0.0,0.0,0.0,0.0,0.0,0.0,0.0,0.0,0.0,0.0,0.0,0.0,0.0,0.0,0.0,0.0,0.0,0.0,0.0,0.0,0.0,0.0,0.0,0.0,0.0,0.0,0.0,0.0,0.0,0.0,0.0,0.0,0.0,0.0,0.0,0.0,0.0,0.0,0.0,0.0,0.0,0.0,0.0,0.0,0.0,0.0,0.0,0.0,0.0,0.0,0.0,-3.8673,-4.0294,-4.173,-4.2959,-4.2448,-4.2135,-4.2152,-4.2008,-4.0756,0.0,0.0,0.0,0.0,0.0,0.0,0.0,0.0,0.0,0.0,0.0,0.0,0.0,0.0,0.0,0.0,0.0,0.0,0.0,0.0,0.0,0.0,0.0,0.0,0.0,0.0,0.0,0.0,0.0,0.0,0.0,0.0,0.0,0.0,0.0,0.0,0.0,0.0,0.0,0.0,0.0,-3.7107,-3.6651,-3.6989,-3.739,0.0,-3.7988,-3.8589,-3.9222,-4.0002,-3.9985,-3.8444,0.0,0.0,0.0,0.0,0.0,0.0,0.0,0.0,0.0,0.0,0.0,0.0,0.0,0.0,0.0,0.0,0.0,0.0,0.0,0.0,0.0,0.0,0.0,0.0,0.0,0.0,0.0,0.0,0.0,0.0,0.0,0.0,0.0,0.0,0.0,0.0,0.0,0.0,0.0,0.0,0.0,0.0,0.0,0.0,0.0,0.0,0.0,0.0,0.0,0.0,0.0,0.0,0.0,-3.5385,-3.7432,-3.8559,-3.9736,-4.097,-4.0926,-4.089,-4.089,-4.0239,-3.9408,0.0,0.0,0.0,0.0,0.0,0.0,0.0,0.0,0.0,0.0,0.0,0.0,0.0,0.0,0.0,0.0,0.0,0.0,0.0,0.0,0.0,0.0,0.0,0.0,0.0,0.0,0.0,0.0,-2.7782,-2.755,-2.72,0.0,0.0,0.0,0.0,0.0,0.0,0.0,0.0,0.0,0.0,-3.5966,-3.6443,-3.6701,0.0,0.0,-3.7897,-3.8456,-3.8241,-3.8723,-3.8793,-3.7917,-3.7128,0.0,0.0,0.0,0.0,0.0,0.0,0.0,0.0,0.0,0.0,0.0,0.0,0.0,0.0,0.0,0.0,0.0,0.0,0.0,0.0,0.0,0.0,0.0,0.0,0.0,0.0,0.0,0.0,0.0,0.0,0.0,0.0,0.0,0.0,0.0,0.0,0.0,0.0,0.0,0.0,0.0,0.0,0.0,0.0,0.0,0.0,0.0,0.0,0.0,0.0,0.0,0.0,-3.4615,-3.6603,-3.734,-3.8348,-3.9549,-3.9591,-3.9563,-3.9563,-3.8854,-3.8222,0.0,0.0,0.0,0.0,0.0,0.0,0.0,0.0,0.0,0.0,0.0,0.0,0.0,0.0,0.0,0.0,0.0,0.0,0.0,0.0,0.0,0.0,0.0,0.0,0.0,0.0,0.0,0.0,-2.7956,-2.7521,-2.7113,0.0,0.0,0.0,0.0,0.0,0.0,0.0,0.0,0.0,0.0,-3.4968,-3.6061,-3.6312,-3.6478,-3.6681,-3.7533,-3.7979,-3.7411,-3.7595,-3.7685,-3.7377,0.0,0.0,0.0,0.0,0.0,0.0,0.0,0.0,0.0,0.0,0.0,0.0,0.0,0.0,0.0,0.0,0.0,0.0,0.0,0.0,0.0,0.0,0.0,0.0,0.0,0.0,0.0,-2.9912,0.0,0.0,-2.9839,0.0,0.0,0.0,0.0,0.0,0.0,0.0,0.0,0.0,0.0,0.0,0.0,0.0,0.0,0.0,0.0,0.0,0.0,0.0,0.0,0.0,0.0,-3.4522,-3.6464,-3.7,-3.7841,-3.9,-3.8474,-3.8128,-3.8128,-3.8093,-3.7391,-3.5897,0.0,0.0,0.0,0.0,0.0,0.0,0.0,0.0,0.0,0.0,0.0,0.0,0.0,0.0,0.0,0.0,0.0,0.0,0.0,0.0,0.0,0.0,0.0,0.0,0.0,0.0,-2.7811,-2.7695,-2.7695,0.0,0.0,0.0,0.0,0.0,0.0,0.0,0.0,0.0,0.0,-3.3812,-3.4193,-3.5214,-3.5655,-3.5994,-3.6297,-3.6676,-3.6954,-3.6954,-3.6919,-3.6919,0.0,0.0,0.0,0.0,0.0,0.0,0.0,0.0,0.0,0.0,0.0,0.0,0.0,0.0,0.0,0.0,0.0,0.0,0.0,0.0,0.0,0.0,0.0,0.0,0.0,0.0,0.0,-3.0113,-2.8733,0.0,0.0,0.0,0.0,0.0,0.0,0.0,0.0,0.0,0.0,0.0,-3.1015,-3.1116,0.0,0.0,0.0,0.0,0.0,0.0,0.0,0.0,0.0,0.0,0.0,0.0,-3.3922,-3.5219,-3.5475,-3.5879,-3.6503,-3.6287,-3.6173,-3.6173,-3.6173,-3.5718,-3.4772,0.0,0.0,0.0,0.0,0.0,0.0,0.0,0.0,0.0,0.0,0.0,0.0,0.0,0.0,0.0,0.0,0.0,0.0,0.0,0.0,0.0,0.0,0.0,0.0,0.0,-2.8419,0.0,0.0,0.0,0.0,0.0,0.0,0.0,0.0,0.0,0.0,0.0,-3.1939,-3.256,-3.3115,-3.3695,-3.4601,-3.4816,-3.5312,0.0,0.0,0.0,0.0,0.0,0.0,0.0,0.0,0.0,0.0,0.0,0.0,0.0,0.0,-3.4911,-3.3973,-3.3736,-3.3313,-3.2292,0.0,0.0,0.0,0.0,0.0,0.0,0.0,0.0,0.0,0.0,0.0,0.0,0.0,0.0,-2.9844,-2.8636,-2.8478,0.0,0.0,0.0,0.0,0.0,0.0,0.0,0.0,-3.0193,-3.0479,-3.0644,-3.0746,-3.0914,0.0,-3.1086,-3.0644,0.0,0.0,0.0,0.0,0.0,0.0,0.0,0.0,-3.3795,-3.4634,-3.4691,-3.4883,-3.5178,-3.5201,-3.5201,-3.5201,-3.5201,-3.4843,-3.4007,-3.4052,-3.3238,0.0,0.0,0.0,0.0,0.0,0.0,0.0,0.0,0.0,0.0,0.0,0.0,0.0,0.0,0.0,0.0,0.0,0.0,0.0,0.0,0.0,0.0,0.0,-2.8507,0.0,0.0,0.0,0.0,0.0,0.0,0.0,0.0,0.0,-3.0964,-3.156,-3.2102,-3.273,-3.3061,-3.3487,-3.4284,0.0,0.0,0.0,0.0,0.0,0.0,0.0,-3.5462,-3.573,-3.5358,-3.5123,-3.552,-3.56,-3.56,-3.56,0.0,0.0,-3.4197,-3.3912,-3.3554,-3.2689,-3.3146,-3.3193,-3.1512,-3.1941,-3.2414,0.0,0.0,0.0,0.0,0.0,0.0,0.0,0.0,-3.0342,-2.9922,0.0,-2.8599,0.0,0.0,0.0,0.0,-2.8334,-2.935,0.0,0.0,-2.9735,-2.9673,-2.9203,-2.9239,-2.9495,-3.0046,-3.0767,-3.0918,-3.0415,-2.9579,0.0,0.0,0.0,0.0,0.0,0.0,-3.4126,-3.4594,-3.4618,-3.4835,-3.5131,-3.5155,-3.5155,-3.5155,-3.5155,-3.4659,-3.3693,-3.3948,-3.3182,-3.1216,-3.0783,0.0,0.0,0.0,0.0,0.0,0.0,0.0,0.0,0.0,0.0,0.0,0.0,0.0,0.0,0.0,0.0,0.0,0.0,0.0,0.0,-2.8652,0.0,0.0,0.0,0.0,0.0,0.0,0.0,0.0,0.0,0.0,-3.1209,-3.1401,-3.2079,-3.3818,0.0,0.0,0.0,0.0,-3.3827,-3.4529,-3.4697,-3.4968,-3.552,-3.5131,-3.4759,-3.4793,0.0,0.0,-3.543,-3.5532,-3.5532,-3.5554,-3.5035,-3.4657,-3.4601,-3.4095,-3.3727,-3.3725,-3.2777,-3.2274,-3.2983,-3.2617,-3.2351,-3.4915,0.0,0.0,0.0,0.0,-3.2117,-3.1787,-3.1182,-3.0663,-2.9854,-2.8858,-2.8211,0.0,0.0,0.0,0.0,0.0,0.0,-2.8545,-2.9325,-2.9652,-3.0006,-3.0398,-3.0361,-3.0472,-3.0619,-3.0454,-3.0272,-3.0139,-2.9869,-3.0055,-3.0602,0.0,0.0,0.0,0.0,-3.2837,-3.3319,-3.3527,-3.3834,-3.4275,-3.4341,-3.4415,-3.4391,-3.4415,-3.4244,-3.3982,-3.3851,-3.3148,-3.1734,-3.1026,0.0,0.0,0.0,0.0,0.0,0.0,0.0,0.0,0.0,0.0,0.0,0.0,0.0,0.0,0.0,0.0,0.0,0.0,0.0,-2.7967,-2.7531,-2.7237,0.0,0.0,0.0,0.0,0.0,0.0,0.0,0.0,0.0,-3.0456,-3.1124,-3.1673,0.0,0.0,-3.2249,-3.3014,-3.2966,-3.3345,-3.4632,-3.4403,0.0,-3.5202,-3.4685,-3.4235,-3.4235,-3.4235,-3.4284,-3.4431,-3.4456,-3.4456,-3.448,-3.4197,-3.3862,-3.345,-3.3664,-3.3651,-3.3196,-3.2792,-3.2474,-3.2274,-3.2068,-3.2037,-3.3514,-3.3048,-3.2596,-3.2231,-3.1868,-3.1712,-3.1345,-3.0902,-3.0377,-2.9792,-2.918,-2.8482,-2.7871,-2.7385,-2.7355,0.0,0.0,0.0,-2.7989,-2.882,-2.8935,-2.9224,-2.9717,-2.9794,-2.9948,-3.0152,-2.9996,-2.9899,-2.9887,-2.9979,-3.0011,-3.0167,0.0,0.0,-3.1421,-3.1762,-3.2099,-3.2434,-3.2594,-3.281,-3.3108,-3.3188,-3.334,-3.3566,-3.3598,-3.3698,-3.3923,-3.3791,-3.3146,-3.1971,-3.1196,-3.0242,0.0,0.0,0.0,0.0,0.0,0.0,0.0,0.0,0.0,0.0,0.0,-2.7568,-2.6376,0.0,0.0,0.0,-2.7814,-2.7895,-2.7626,-2.7203,0.0,0.0,0.0,0.0,0.0,0.0,0.0,-2.9228,-2.8888,-2.8864,-2.9785,-3.0328,-3.0925,-3.1811,-3.166,-3.1743,-3.2442,0.0,-3.2702,-3.3805,-3.3704,-3.3726,-3.451,-3.4092,-3.3675,-3.3707,-3.3675,-3.3751,-3.3986,-3.4011,-3.4011,-3.3939,-3.3436,-3.2886,-3.2504,-3.2417,-3.2361,-3.231,-3.2342,-3.2226,-3.1869,-3.18,-3.1804,-3.2124,-3.2543,-3.2969,-3.2693,-3.1916,-3.1466,-3.0894,-3.017,-2.9757,-2.978,-3.0078,-2.9072,-2.868,-2.8671,-2.7957,0.0,-2.7041,-2.7549,-2.7817,-2.7904,-2.7904,-2.7881,-2.7921,-2.8122,-2.8474,-2.9003,-2.9394,-2.9542,-2.9585,-2.9818,-2.9642,-2.9142,-3.0367,-3.1017,-3.0983,-3.1395,-3.1682,-3.1853,-3.1821,-3.1847,-3.1903,-3.1936,-3.2241,-3.2788,-3.2849,-3.3153,-3.3668,-3.3668,-3.3126,-3.2015,-3.1308,-3.0395,-2.9253,0.0,0.0,0.0,0.0,0.0,0.0,0.0,0.0,0.0,0.0,0.0,0.0,0.0,0.0,0.0,-2.6617,0.0,-2.7512,-2.7359,0.0,0.0,0.0,-2.7,-2.7759,-2.7687,-2.7908,-2.8748,0.0,0.0,-2.9125,-2.9216,-2.9976,-3.196,-3.1723,-3.1603,-3.2229,-3.1928,-3.1912,-3.2496,-3.2734,-3.305,-3.3559,-3.3371,-3.313,-3.313,-3.3161,-3.3287,-3.3675,-3.3738,-3.3763,-3.368,-3.2676,-3.1754,-3.1754,-3.0813,-3.0201,-3.1274,-3.1504,-3.1614,-3.171,-3.18,-3.1611,-3.2397,-3.2417,-3.1731,-3.1354,-3.1206,-3.1113,-3.0721,-3.0216,-3.0101,-2.9917,-2.9597,-2.8612,-2.7369,-2.6042,-2.6367,-2.6378,-2.6143,-2.6835,-2.729,-2.7574,-2.7574,-2.7696,-2.7881,-2.7962,-2.8042,-2.8203,-2.8259,-2.8426,-2.8557,-2.904,-2.9189,-2.8897,-2.9248,-2.9807,-3.0444,-3.0676,-3.1048,-3.16,-3.1368,-3.145,-3.1905,-3.2332,-3.2637,-3.2819,-3.3244,-3.3547,-3.3698,-3.3517,-3.3089,-3.2476,-3.1613,-3.0836,-3.0192,-2.8135,0.0,0.0,0.0,0.0,0.0,0.0,0.0,0.0,0.0,-2.6315,-2.4953,0.0,-2.602,0.0,-2.644,-2.6505,-2.7037,-2.6688,0.0,0.0,-2.7503,-2.7803,-2.8001,-2.7643,-2.7472,-2.7644,-2.7412,-2.743,-2.7999,-2.8325,-2.8894,-2.9944,-2.9988,-3.0235,-3.0862,-3.0894,-3.1073,-3.1796,-3.2023,-3.2191,-3.252,-3.2602,-3.2602,-3.2602,-3.2602,-3.2656,-3.2792,-3.2324,-3.2039,-3.1945,-3.1212,-3.0609,-3.0537,-3.0128,-2.9957,-3.0243,-3.0697,-3.1186,-3.156,-3.1691,-3.1593,-3.0866,-3.1014,-3.0579,-3.0306,-3.0154,-2.9785,-2.9387,-2.9124,-2.8929,-2.8688,-2.8468,-2.7896,-2.6918,-2.5726,-2.6086,-2.5973,-2.553,-2.5914,-2.6143,-2.6174,-2.6174,-2.6381,-2.6816,-2.7044,-2.729,-2.7574,-2.78,-2.7962,-2.8122,-2.8419,-2.8488,-2.8392,-2.8686,-2.9184,-2.9865,-2.9436,-2.9361,-2.972,-3.0111,-3.0754,-3.1566,-3.2009,-3.2214,-3.2245,-3.2798,-3.2974,-3.2742,-3.2844,-3.2503,-3.1699,-3.0881,-3.0187,-2.9619,-2.7962,-2.7018,0.0,0.0,0.0,0.0,0.0,0.0,0.0,0.0,0.0,0.0,0.0,-2.5936,-2.6697,-2.6575,-2.6642,-2.7118,-2.6945,-2.6852,-2.6984,-2.7462,-2.7645,-2.7419,-2.7128,-2.6952,-2.6952,-2.6744,-2.6782,-2.7196,-2.743,-2.7796,-2.832,-2.8454,-2.8903,-2.9842,-3.0027,-3.0238,-3.0659,-3.0837,-3.1102,-3.1595,-3.1764,-3.1962,-3.2244,-3.2385,-3.2413,-3.2382,-3.1855,-3.1424,-3.1332,-3.0545,-2.9786,-2.9755,-2.9438,-2.9266,-2.9518,-2.9859,-3.039,-3.1103,-3.1317,-3.1227,-2.864,-2.9033,-2.9332,-2.9229,-2.8809,-2.7781,-2.7513,-2.7765,-2.7386,-2.7132,-2.701,-2.6989,-2.6648,-2.6052,-2.6145,-2.5742,-2.4989,-2.5039,-2.4856,-2.4592,-2.4509,-2.4787,-2.5358,-2.5799,-2.634,-2.7021,-2.7412,-2.7719,-2.78,-2.7794,-2.7834,-2.7921,-2.8275,-2.8699,-2.904,-2.7952,-2.7444,-2.7602,-2.8746,-2.9874,-3.0908,-3.1138,-3.1232,-3.1344,-3.1818,-3.1873,-3.1344,-3.1818,-3.1595,-3.0498,-2.9892,-2.9315,-2.8708,-2.7742,-2.7178,0.0,-2.5979,0.0,0.0,0.0,0.0,0.0,0.0,0.0,0.0,-2.532,-2.6055,-2.6662,-2.6832,-2.7048,-2.7384,-2.7507,-2.741,-2.7135,-2.7326,-2.7293,-2.6801,-2.665,-2.66,-2.66,-2.6549,-2.6568,-2.6679,-2.6705,-2.685,-2.7222,-2.7323,-2.7829,-2.8907,-2.9286,-2.9411,-2.9473,-2.9659,-3.0151,-3.0573,-3.0807,-3.1098,-3.1671,-3.181,-3.2096,-3.216,-3.1518,-3.1052,-3.1014,-3.0032,-2.9223,-2.9248,-2.8805,-2.858,-2.8943,-2.9097,-2.9473,-3.0402,-3.0751,-3.0735,-2.7508,-2.758,-2.7094,-2.7014,-2.7135,-2.5428,-2.5879,-2.7765,-2.7386,-2.6723,-2.5974,-2.5974,-2.5237,-2.4106,-2.4679,-2.4766,-2.4487,-2.4694,-2.4845,-2.4983,-2.4654,-2.4573,-2.4701,-2.4787,-2.5168,-2.5819,-2.6091,-2.6588,-2.7307,-2.7115,-2.7322,-2.7857,-2.7152,-2.7032,-2.7489,0.0,0.0,0.0,-2.8418,-2.8863,-2.9451,-2.9583,-2.9857,-3.0272,-3.0449,0.0,-3.037,-3.0476,-3.0423,-3.021,-3.0006,0.0,0.0,0.0,0.0,0.0,0.0,0.0,0.0,0.0,0.0,0.0,-2.6203,-2.5755,-2.5228,-2.6069,-2.6708,-2.6841,-2.6863,-2.6935,-2.701,-2.7562,-2.7762,-2.7459,-2.7953,-2.8213,-2.7835,-2.7394,-2.7178,-2.7153,-2.6776,-2.6499,-2.6533,-2.6636,-2.6714,-2.6841,-2.6977,-2.7214,-2.7689,-2.832,-2.8871,-2.938,-2.951,-2.9614,-2.937,-2.9433,-2.9638,-2.9987,-3.0131,-3.0452,-3.104,-3.0324,-2.9747,-2.9931,-2.8979,-2.8257,-2.8554,-2.8473,-2.8411,-2.8525,-2.8549,-2.885,-2.987,-3.0159,-3.0212,-2.5629,-2.5616,-2.547,-2.554,0.0,-2.4499,-2.4757,-2.5891,-2.5615,-2.5246,-2.4775,-2.4922,-2.4466,-2.3693,-2.4182,-2.4229,-2.3909,-2.3844,-2.3764,-2.3666,-2.3301,-2.3299,-2.3691,-2.3757,-2.4168,-2.4808,-2.502,-2.5421,-2.5819,-2.5725,-2.5738,-2.5943,-2.5392,-2.532,-2.5686,-2.6166,-2.6984,-2.8156,-2.8265,-2.87,-2.9494,-2.9703,-2.9714,-2.9703,-2.9999,0.0,0.0,0.0,0.0,0.0,0.0,0.0,0.0,0.0,0.0,-2.6932,-2.6106,-2.5804,-2.6258,-2.5559,-2.5386,-2.6197,-2.5839,-2.5647,-2.5808,-2.5931,-2.605,-2.6342,-2.6365,-2.6273,-2.6083,-2.6479,-2.6473,-2.5887,-2.6207,-2.6497,-2.6554,-2.6344,-2.635,-2.6806,-2.6675,-2.6499,-2.6499,-2.6568,-2.6636,-2.6679,-2.6782,-2.6943,-2.7146,-2.7556,-2.8011,-2.8107,-2.818,-2.8181,-2.7938,-2.7979,-2.8388,-2.9027,-2.9319,-2.9696,-3.0483,-2.9871,-2.9311,-2.9235,-2.8512,-2.8008,-2.805,-2.8088,-2.8137,-2.8363,-2.8411,-2.8525,-2.9097,-2.9429,-2.9729,-2.375,-2.3785,-2.4085,-2.4262,-2.428,-2.3909,-2.3801,-2.3834,0.0,0.0,0.0,-2.3917,-2.3917,-2.3647,-2.3967,-2.3919,-2.3523,-2.3114,-2.273,-2.2364,-2.1906,-2.1998,-2.2637,-2.2755,-2.3236,-2.3887,-2.4145,-2.4276,-2.4321,-2.4281,-2.4095,-2.3825,-2.368,-2.3804,-2.4093,-2.5365,-2.6431,-2.7254,-2.7811,-2.8579,-2.9576,-2.9693,-2.9505,-2.9051,-2.9479,-2.9252,-2.8234,-2.8648,-2.8698,-2.8172,-2.768,-2.748,-2.7557,-2.7094,-2.6901,-2.6941,-2.68,-2.6745,-2.6839,-2.5959,-2.5441,-2.5571,-2.5132,-2.527,-2.6245,-2.5577,-2.5322,-2.5755,-2.5753,-2.5576,-2.5245,-2.5253,-2.4952,-2.4126,-2.4129,-2.4422,-2.4693,-2.4779,-2.5123,-2.5861,-2.599,-2.6129,-2.6233,-2.6233,-2.6371,-2.6577,-2.6645,-2.6714,-2.6943,-2.718,-2.7241,-2.6973,-2.6965,-2.677,-2.6509,-2.6592,-2.7113,-2.798,-2.8385,-2.8873,-2.9449,-2.9455,-2.9058,-2.8624,-2.821,-2.7836,-2.7688,-2.7665,-2.779,-2.8088,-2.8235,-2.8284,-2.8332,-2.8708,-2.918,-2.2772,-2.2789,-2.2892,-2.3048,-2.3272,-2.2945,-2.2941,-2.3175,-2.3373,-2.326,-2.2975,-2.3363,-2.3309,-2.2975,-2.3543,-2.3818,-2.3709,-2.3147,-2.2876,-2.2785,-2.2053,-2.1731,-2.1865,-2.1865,-2.2264,-2.2969,-2.3193,-2.3428,-2.3616,-2.3392,-2.3307,-2.3305,-2.2912,-2.2912,-2.3428,-2.399,-2.4344,-2.4527,-2.6348,-2.7538,-2.8179,-2.779,-2.7743,-2.8036,-2.7743,-2.7466,-2.7299,-2.737,-2.737,-2.7299,-2.7609,-2.7616,-2.7191,-2.6381,-2.5723,-2.5239,-2.4526,-2.4239,-2.4729,-2.4564,-2.4818,-2.5413,-2.4724,-2.4703,-2.5773,-2.5751,-2.5712,-2.5755,-2.5428,-2.5289,-2.5179,-2.4807,-2.4386,-2.399,-2.3977,-2.3988,-2.3717,-2.3854,-2.4036,-2.4289,-2.4325,-2.4779,-2.5335,-2.5441,-2.5711,-2.6302,-2.6371,-2.6543,-2.6679,-2.7053,-2.7089,-2.6811,-2.6719,-2.628,-2.5542,-2.5278,-2.5598,-2.5897,-2.6472,-2.7111,-2.7961,-2.8078,-2.7928,-2.779,-2.7456,-2.7165,-2.7065,-2.7122,-2.7225,-2.7352,-2.7635,-2.7865,-2.789,-2.8235,-2.8661,-2.2791,-2.2603,-2.2603,-2.2688,-2.2843,-2.2671,-2.2653,-2.2804,-2.2904,-2.295,-2.2892,-2.3005,-2.3005,-2.2941,-2.3153,-2.3359,-2.3569,-2.2829,-2.2517,-2.2463,-2.1689,-2.1419,-2.1526,-2.1526,-2.175,-2.222,-2.229,-2.2416,-2.2529,-2.2403,-2.2178,-2.1795,-2.1325,-2.141,-2.205,-2.2553,-2.2981,-2.3391,-2.4923,-2.581,-2.6049,-2.581,-2.5994,-2.6547,-2.6467,-2.6621,-2.6967,-2.6598,-2.6395,-2.6395,-2.6146,-2.6003,-2.5842,-2.5348,-2.4992,-2.4837,-2.4446,-2.4283,-2.4535,-2.4241,-2.3943,-2.3803,-2.3236,-2.3173,-2.3867,-2.4188,-2.4257,-2.403,-2.3846,-2.3515,-2.3102,-2.2814,-2.2544,-2.2223,-2.2122,-2.2307,-2.2644,-2.2787,-2.3047,-2.3526,-2.3708,-2.3963,-2.4456,-2.4492,-2.4636,-2.5134,-2.5511,-2.5896,-2.607,-2.6611,-2.6711,-2.611,-2.5999,-2.5569,-2.4662,-2.4488,-2.4711,-2.5153,-2.5414,-2.5932,-2.668,-2.7064,-2.7228,-2.7072,-2.6898,-2.6859,-2.6801,-2.6644,-2.6712,-2.6993,-2.7199,-2.7408,-2.7458,-2.779,-2.821,-2.2946,-2.2723,-2.2367,-2.208,-2.181,-2.1827,-2.1827,-2.1827,-2.181,-2.1962,-2.2181,-2.2525,-2.2737,-2.2658,-2.2751,-2.2969,-2.3058,-2.2487,-2.2215,-2.2144,-2.1352,-2.1087,-2.1302,-2.1302,-2.1374,-2.1508,-2.1553,-2.1516,-2.1425,-2.1381,-2.1007,-2.0243,-1.9866,-1.9972,-2.0535,-2.1159,-2.168,-2.225,-2.3138,-2.3817,-2.4178,-2.424,-2.4514,-2.5102,-2.5225,-2.5557,-2.6143,-2.5579,-2.5265,-2.5202,-2.4598,-2.4304,-2.4409,-2.4093,-2.3966,-2.4115,-2.4028,-2.3961,-2.3919,-2.3547,-2.2979,-2.2309,-2.2013,-2.2013,-2.2385,-2.275,-2.2834,-2.2629,-2.2621,-2.2288,-2.1801,-2.1505,-2.1211,-2.0781,-2.0723,-2.1073,-2.1586,-2.1697,-2.2021,-2.2787,-2.2936,-2.3047,-2.3379,-2.3489,-2.3672,-2.4108,-2.46,-2.5063,-2.5311,-2.5767,-2.5716,-2.5252,-2.5281,-2.5169,-2.4175,-2.4161,-2.4406,-2.4779,-2.494,-2.5292,-2.5862,-2.6431,-2.6663,-2.6337,-2.6489,-2.6467,-2.6325,-2.6218,-2.6239,-2.6502,-2.6707,-2.6967,-2.7122,-2.7408,-2.784,-2.3048,-2.2843,-2.1601,-2.0467,-1.9642,-1.9591,-1.9591,-1.9591,-1.9539,-1.9539,-1.9834,-2.1676,-2.2173,-2.1758,-2.249,-2.2661,-2.24,-2.2284,-2.212,-2.2032,-2.1352,-2.0997,-2.1042,-2.1042,-2.1042,-2.1087,-2.1087,-2.0927,-2.0642,-2.0562,-2.0136,-1.9371,-1.9165,-1.9163,-1.9261,-1.9828,-2.0153,-2.0175,-2.0662,-2.1704,-2.3287,-2.3408,-2.3617,-2.4054,-2.3698,-2.3718,-2.424,-2.3739,-2.3529,-2.3529,-2.3429,-2.3388,-2.3348,-2.2613,-2.218,-2.22,-2.1774,-2.1448,-2.1485,-2.1732,-2.1831,-2.1646,-2.1889,-2.2101,-2.2353,-2.2422,-2.2555,-2.2678,-2.2605,-2.2418,-2.234,-2.2031,-2.1621,-2.119,-2.1132,-2.1055,-2.0898,-2.0876,-2.1051,-2.1089,-2.1474,-2.1662,-2.236,-2.2547,-2.2861,-2.3526,-2.3927,-2.4181,-2.4312,-2.4469,-2.4389,-2.4071,-2.4826,-2.5243,-2.4309,-2.4326,-2.4408,-2.4324,-2.4678,-2.497,-2.5205,-2.552,-2.5813,-2.5686,-2.5887,-2.5965,-2.5581,-2.5486,-2.5906,-2.566,-2.5956,-2.6467,-2.6912,-2.7038,-2.7314,-2.1179,-2.0926,-2.0377,-1.977,-1.9242,-1.9176,-1.9176,-1.9176,-1.9176,-1.9176,-1.928,-2.021,-2.0413,-2.0112,-2.0392,-2.044,-2.0537,-2.0752,-2.0817,-2.0795,-2.0717,-2.0726,-2.0789,-2.0835,-2.0862,-2.0997,-2.0997,-2.0908,-2.0749,-2.0492,-2.0103,-1.9572,-1.9247,-1.9044,-1.8847,-1.9053,-1.9183,-1.9183,-1.9344,-1.9806,-2.0531,-2.1296,-2.1955,-2.2466,-2.2491,-2.2757,-2.3186,-2.2778,-2.2493,-2.2452,-2.194,-2.1651,-2.1651,-2.1297,-2.1047,-2.1066,-2.0879,-2.0869,-2.1089,-2.1273,-2.1445,-2.1588,-2.1533,-2.1632,-2.1961,-2.1907,-2.1983,-2.2303,-2.2323,-2.221,-2.1978,-2.1909,-2.1816,-2.166,-2.1621,-2.1543,-2.1427,-2.1153,-2.1095,-2.1076,-2.0938,-2.1012,-2.1415,-2.1645,-2.189,-2.2456,-2.2883,-2.3313,-2.3423,-2.3804,-2.3866,-2.357,-2.4271,-2.458,-2.4006,-2.3923,-2.4126,-2.4344,-2.4458,-2.4465,-2.454,-2.4936,-2.5254,-2.5109,-2.538,-2.5527,-2.5223,-2.4945,-2.5039,-2.4804,-2.4723,-2.5072,-2.5306,-2.5661,-2.617,-1.9793,-1.9498,-1.9257,-1.88,-1.8257,-1.8362,-1.8359,-1.829,-1.829,-1.8237,-1.8185,-1.8237,-1.8237,-1.8262,-1.862,-1.8913,-1.9104,-1.9406,-1.9518,-1.9439,-1.9638,-1.9753,-1.9791,-1.9758,-1.994,-2.0257,-2.0303,-2.0546,-2.0737,-2.0386,-2.007,-1.9772,-1.9446,-1.9153,-1.8947,-1.8864,-1.8851,-1.8851,-1.8763,-1.8709,-1.8861,-1.957,-2.0329,-2.0919,-2.1072,-2.1401,-2.1947,-2.1461,-2.12,-2.1159,-2.0503,-2.0191,-2.0191,-2.0149,-2.0228,-2.0356,-2.0424,-2.0649,-2.0924,-2.1145,-2.1365,-2.1467,-2.1321,-2.1401,-2.1603,-2.1632,-2.1683,-2.1924,-2.2089,-2.2045,-2.1839,-2.1932,-2.1978,-2.1881,-2.1926,-2.1948,-2.1751,-2.15,-2.1406,-2.1387,-2.1231,-2.1017,-2.1194,-2.1411,-2.1667,-2.1863,-2.2202,-2.2476,-2.2665,-2.3029,-2.3172,-2.2897,-2.3178,-2.3471,-2.3536,-2.3601,-2.3772,-2.3723,-2.3719,-2.3588,-2.3709,-2.4163,-2.4636,-2.445,-2.4749,-2.4891,-2.4774,-2.4548,-2.4456,-2.4091,-2.4014,-2.4095,-2.41,-2.4423,-2.4844,-1.9626,-1.9402,-1.8406,-1.7262,-1.5998,-1.6357,-1.6331,-1.623,-1.6152,-1.5951,-1.5897,-1.6045,-1.5951,-1.5951,-1.7948,-1.8935,-1.8702,-1.8673,-1.8599,-1.839,-1.8115,-1.7761,-1.7451,-1.7483,-1.787,-1.8611,-1.8888,-1.9347,-2.0167,-1.9888,-1.9727,-1.9631,-1.9445,-1.9409,-1.9304,-1.9175,-1.9182,-1.9124,-1.8859,-1.8705,-1.8745,-1.878,-1.9069,-1.946,-1.9264,-1.9465,-1.9761,-1.9567,-1.9463,-1.9445,-1.9402,-1.9344,-1.9384,-1.9363,-1.9564,-1.9912,-2.0278,-2.0539,-2.0625,-2.1193,-2.1485,-2.1291,-2.1493,-2.165,-2.1668,-2.1676,-2.1676,-2.1731,-2.1961,-2.2126,-2.2221,-2.2277,-2.2182,-2.1897,-2.2054,-2.1986,-2.162,-2.1768,-2.1875,-2.1855,-2.1758,-2.1721,-2.1799,-2.2042,-2.2066,-2.2048,-2.199,-2.1947,-2.2005,-2.1914,-2.1821,-2.1835,-2.1903,-2.2078,-2.265,-2.3039,-2.3034,-2.3019,-2.2991,-2.2599,-2.272,-2.298,-2.3416,-2.3871,-2.424,-2.4382,-2.4327,-2.435,-2.4368,-2.4193,-2.393,-2.3852,-2.3441,-2.3464,-2.3858,-1.7386,-1.7342,-1.6903,-1.6327,-1.5758,-1.5751,-1.5689,-1.5584,-1.5367,-1.5256,-1.5202,-1.5309,-1.5256,-1.5202,-1.6086,-1.666,-1.6938,-1.746,-1.7661,-1.7525,-1.7903,-1.792,-1.7585,-1.7556,-1.7566,-1.7684,-1.7809,-1.7994,-1.8319,-1.824,-1.804,-1.7928,-1.8293,-1.8425,-1.843,-1.8769,-1.8998,-1.9168,-1.9071,-1.9019,-1.9002,-1.9019,-1.9089,-1.9218,-1.8947,-1.8883,-1.9026,-1.8963,-1.8931,-1.8931,-1.8931,-1.8931,-1.8949,-1.9106,-1.9367,-1.9688,-2.0092,-2.0462,-2.0845,-2.1163,-2.1357,-2.1485,-2.1595,-2.1687,-2.1687,-2.1687,-2.1687,-2.1731,-2.1776,-2.1865,-2.1998,-2.222,-2.234,-2.2252,-2.2258,-2.2244,-2.2117,-2.2078,-2.2074,-2.2078,-2.2006,-2.1894,-2.1934,-2.1977,-2.204,-2.2144,-2.2107,-2.2109,-2.213,-2.1949,-2.1666,-2.1685,-2.1637,-2.1694,-2.1871,-2.2438,-2.268,-2.2659,-2.2559,-2.2232,-2.2193,-2.2104,-2.2438,-2.2787,-2.328,-2.3573,-2.3411,-2.3768,-2.3869,-2.3721,-2.3546,-2.3444,-2.2937,-2.3044,-2.3228,-1.5928,-1.5948,-1.6053,-1.5976,-1.5671,-1.567,-1.5555,-1.5407,-1.5181,-1.5067,-1.4891,-1.4934,-1.4922,-1.488,-1.4922,-1.5202,-1.5672,-1.6352,-1.6584,-1.6588,-1.7128,-1.7214,-1.6938,-1.6869,-1.6849,-1.6857,-1.7059,-1.7203,-1.7296,-1.7296,-1.7179,-1.6989,-1.7477,-1.7643,-1.7668,-1.7957,-1.8332,-1.8665,-1.8756,-1.8801,-1.9007,-1.9179,-1.9179,-1.9153,-1.8974,-1.8789,-1.8765,-1.8722,-1.8709,-1.8709,-1.8709,-1.8763,-1.8887,-1.92,-1.9478,-1.9656,-2.0039,-2.0447,-2.0829,-2.1018,-2.1218,-2.1427,-2.1463,-2.1508,-2.1571,-2.1616,-2.166,-2.1687,-2.1687,-2.1687,-2.1731,-2.1998,-2.2176,-2.2176,-2.2264,-2.2309,-2.229,-2.2282,-2.2279,-2.2265,-2.2264,-2.2217,-2.2201,-2.2262,-2.2366,-2.2495,-2.2397,-2.2362,-2.2385,-2.2029,-2.169,-2.165,-2.1506,-2.1438,-2.1521,-2.1876,-2.2026,-2.2006,-2.2057,-2.1755,-2.1569,-2.1431,-2.1539,-2.18,-2.2094,-2.2341,-2.2699,-2.3068,-2.3126,-2.3005,-2.3156,-2.3222,-2.2907,-2.267,-2.2911,-1.5601,-1.5639,-1.5957,-1.592,-1.571,-1.5885,-1.5807,-1.5399,-1.5352,-1.504,-1.4667,-1.4826,-1.4773,-1.4654,-1.4826,-1.4987,-1.5095,-1.5416,-1.5565,-1.56,-1.5627,-1.5545,-1.5316,-1.5303,-1.5495,-1.5807,-1.6477,-1.6904,-1.6965,-1.6889,-1.6908,-1.7095,-1.7019,-1.7083,-1.7206,-1.7005,-1.7191,-1.7776,-1.7869,-1.8104,-1.8722,-1.8919,-1.9022,-1.9118,-1.9093,-1.9016,-1.8898,-1.8795,-1.8775,-1.874,-1.874,-1.8846,-1.9177,-1.9505,-1.9777,-1.9873,-2.0173,-2.0412,-2.0483,-2.0811,-2.1016,-2.1087,-2.1042,-2.1177,-2.1347,-2.1392,-2.1482,-2.1553,-2.1642,-2.1642,-2.1687,-2.1687,-2.1731,-2.1731,-2.1954,-2.2106,-2.2132,-2.2264,-2.2378,-2.2429,-2.2547,-2.2775,-2.2818,-2.2834,-2.2906,-2.2867,-2.2734,-2.2562,-2.2526,-2.2101,-2.1649,-2.1551,-2.1451,-2.1347,-2.1363,-2.1357,-2.1281,-2.1254,-2.1303,-2.1211,-2.1101,-2.0996,-2.1185,-2.1466,-2.1696,-2.1958,-2.2162,-2.2476,-2.271,-2.2686,-2.2885,-2.2985,-2.297,-2.2817,-2.2747,-1.5601,-1.5601,-1.572,-1.5736,-1.5638,-1.5555,-1.538,-1.5216,-1.491,-1.4658,-1.456,-1.4472,-1.4407,-1.4353,-1.4407,-1.4568,-1.4708,-1.4869,-1.4995,-1.514,-1.5193,-1.5053,-1.4804,-1.4758,-1.4721,-1.4705,-1.4789,-1.4899,-1.4959,-1.4858,-1.4663,-1.4819,-1.5473,-1.5839,-1.6015,-1.6542,-1.7057,-1.7412,-1.7461,-1.7553,-1.7735,-1.7872,-1.8099,-1.8582,-1.8568,-1.8726,-1.9194,-1.9092,-1.9047,-1.9012,-1.9029,-1.9081,-1.9254,-1.9523,-1.9817,-2.0044,-2.0404,-2.0686,-2.082,-2.0908,-2.0997,-2.0997,-2.0997,-2.1042,-2.1087,-2.1132,-2.115,-2.1239,-2.1221,-2.1284,-2.1482,-2.1482,-2.1563,-2.1687,-2.1776,-2.182,-2.1865,-2.2043,-2.2264,-2.2397,-2.2485,-2.253,-2.2574,-2.275,-2.2882,-2.2925,-2.2877,-2.2886,-2.2789,-2.2445,-2.2212,-2.2154,-2.1847,-2.1431,-2.1451,-2.1469,-2.1363,-2.127,-2.1196,-2.102,-2.0871,-2.0813,-2.096,-2.1071,-2.1306,-2.1485,-2.1698,-2.1926,-2.2187,-2.2293,-2.2351,-2.258,-2.2919,-2.2888,-2.2716,-1.5601,-1.5601,-1.5601,-1.5601,-1.558,-1.5381,-1.5263,-1.5167,-1.4888,-1.4695,-1.4643,-1.4514,-1.4449,-1.4428,-1.4363,-1.4473,-1.4691,-1.4548,-1.4613,-1.4819,-1.4956,-1.4896,-1.4737,-1.4646,-1.4544,-1.435,-1.4111,-1.3997,-1.4025,-1.3758,-1.3633,-1.3817,-1.4256,-1.458,-1.4711,-1.5283,-1.5852,-1.6264,-1.6391,-1.6593,-1.6828,-1.6969,-1.725,-1.7732,-1.7751,-1.8009,-1.8582,-1.8523,-1.8693,-1.9135,-1.9299,-1.9384,-1.9418,-1.9727,-1.9994,-2.0162,-2.0407,-2.0591,-2.0727,-2.0709,-2.0727,-2.0727,-2.0727,-2.0772,-2.0862,-2.0907,-2.0942,-2.1192,-2.1228,-2.1326,-2.1624,-2.166,-2.1733,-2.1825,-2.178,-2.1723,-2.1731,-2.1839,-2.1972,-2.2087,-2.222,-2.2264,-2.2353,-2.2485,-2.2618,-2.2706,-2.2838,-2.2969,-2.2916,-2.2668,-2.2574,-2.2402,-2.1997,-2.1725,-2.1667,-2.161,-2.153,-2.1425,-2.1296,-2.106,-2.0824,-2.0844,-2.0955,-2.0871,-2.1007,-2.1005,-2.1163,-2.1499,-2.1751,-2.1784,-2.18,-2.2036,-2.2316,-2.2446,-2.2421,-1.5601,-1.5601,-1.5601,-1.5601,-1.5601,-1.558,-1.5472,-1.5242,-1.5167,-1.5085,-1.4923,-1.4837,-1.4848,-1.4815,-1.4632,-1.4654,-1.4829,-1.4537,-1.4418,-1.4582,-1.4767,-1.4891,-1.4824,-1.4601,-1.4511,-1.4444,-1.427,-1.4146,-1.4072,-1.3897,-1.3872,-1.3766,-1.3633,-1.3545,-1.369,-1.3582,-1.41,-1.4711,-1.4902,-1.5317,-1.592,-1.6123,-1.6391,-1.672,-1.6753,-1.6911,-1.7284,-1.7379,-1.7932,-1.8993,-1.9475,-1.969,-1.9785,-2.0121,-2.0257,-2.0286,-2.0275,-2.0337,-2.0337,-2.0382,-2.0417,-2.0468,-2.0468,-2.0434,-2.0811,-2.0881,-2.1059,-2.1461,-2.1543,-2.1666,-2.1931,-2.2002,-2.2002,-2.2079,-2.1951,-2.1834,-2.1797,-2.1841,-2.1886,-2.1849,-2.1946,-2.2061,-2.2043,-2.2264,-2.2353,-2.2441,-2.2618,-2.275,-2.2736,-2.2611,-2.2508,-2.236,-2.2165,-2.2073,-2.1936,-2.1804,-2.1708,-2.163,-2.1509,-2.132,-2.1005,-2.0991,-2.1098,-2.0969,-2.0799,-2.0723,-2.0754,-2.1127,-2.1185,-2.1079,-2.1211,-2.1478,-2.1643,-2.1796,-2.2042,-1.5601,-1.5601,-1.5601,-1.5601,-1.5601,-1.5601,-1.5569,-1.5483,-1.5263,-1.5167,-1.507,-1.4966,-1.4912,-1.488,-1.4837,-1.4837,-1.4848,-1.4751,-1.4611,-1.4536,-1.4592,-1.4494,-1.4429,-1.4341,-1.4308,-1.4265,-1.411,-1.3885,-1.3863,-1.3748,-1.355,-1.3303,-1.3435,-1.3411,-1.3229,-1.34,-1.3582,-1.3775,-1.3871,-1.4004,-1.4196,-1.434,-1.4615,-1.5222,-1.5412,-1.5839,-1.6391,-1.664,-1.7377,-1.8784,-1.9529,-1.9974,-2.0002,-2.0133,-2.0201,-2.0326,-2.0309,-2.0309,-2.0309,-2.0326,-2.0429,-2.0686,-2.0673,-2.0886,-2.1191,-2.1208,-2.1307,-2.1458,-2.1458,-2.1605,-2.1835,-2.1917,-2.1965,-2.2072,-2.2196,-2.2315,-2.2363,-2.2309,-2.2126,-2.2135,-2.1933,-2.1868,-2.1902,-2.2036,-2.2213,-2.2239,-2.2353,-2.253,-2.2492,-2.2497,-2.2438,-2.2529,-2.2418,-2.2353,-2.2223,-2.2053,-2.1918,-2.1861,-2.1788,-2.173,-2.1444,-2.1232,-2.1401,-2.1487,-2.113,-2.0964,-2.0839,-2.0906,-2.0706,-2.0629,-2.0642,-2.0897,-2.1028,-2.1195,-2.1463,-1.5601,-1.5601,-1.5601,-1.5601,-1.5601,-1.5601,-1.5601,-1.558,-1.5461,-1.5338,-1.5365,-1.5257,-1.5182,-1.5171,-1.5085,-1.5106,-1.5149,-1.4977,-1.4869,-1.477,-1.4632,-1.4406,-1.4245,-1.4191,-1.4191,-1.418,-1.4051,-1.3986,-1.3933,-1.3739,-1.3502,-1.3337,-1.3307,-1.3232,-1.2975,-1.3109,-1.3206,-1.3206,-1.3206,-1.3195,-1.3195,-1.3195,-1.3485,-1.3956,-1.4136,-1.4519,-1.5045,-1.5578,-1.6497,-1.7606,-1.8272,-1.8703,-1.9301,-1.9438,-1.9733,-2.0251,-2.0486,-2.0554,-2.0458,-2.0522,-2.0623,-2.0762,-2.0877,-2.1104,-2.1289,-2.1405,-2.1439,-2.1627,-2.1645,-2.1827,-2.2063,-2.2129,-2.2226,-2.2456,-2.2633,-2.2613,-2.242,-2.224,-2.2224,-2.2143,-2.2098,-2.2017,-2.1961,-2.206,-2.2076,-2.2028,-2.2132,-2.222,-2.2264,-2.2353,-2.2378,-2.2478,-2.2528,-2.2423,-2.2457,-2.2368,-2.2243,-2.2187,-2.1977,-2.1926,-2.173,-2.1504,-2.1456,-2.1507,-2.134,-2.1172,-2.1003,-2.085,-2.0734,-2.0611,-2.0435,-2.0406,-2.0617,-2.0852,-2.1082,-1.5493,-1.5531,-1.5542,-1.5542,-1.5601,-1.5601,-1.5601,-1.5601,-1.558,-1.558,-1.5569,-1.5591,-1.5526,-1.5591,-1.5354,-1.5397,-1.5548,-1.5192,-1.5117,-1.4974,-1.4805,-1.4482,-1.4288,-1.4213,-1.4202,-1.4191,-1.4191,-1.4169,-1.4105,-1.3943,-1.3739,-1.3534,-1.3308,-1.3082,-1.3013,-1.2937,-1.2894,-1.2986,-1.3019,-1.303,-1.3019,-1.3068,-1.3177,-1.3313,-1.3411,-1.3498,-1.3875,-1.4398,-1.5254,-1.6137,-1.6394,-1.7207,-1.7944,-1.8194,-1.8754,-1.9665,-1.9952,-2.0083,-2.0183,-2.0071,-2.0361,-2.0168,-2.0443,-2.0912,-2.1044,-2.1159,-2.1374,-2.1626,-2.1858,-2.1927,-2.2264,-2.245,-2.26,-2.2715,-2.2868,-2.2495,-2.1954,-2.1896,-2.2073,-2.1949,-2.2182,-2.225,-2.229,-2.2236,-2.2144,-2.2097,-2.2158,-2.2203,-2.2192,-2.2162,-2.2258,-2.2334,-2.2403,-2.2467,-2.2561,-2.2673,-2.2573,-2.2489,-2.2246,-2.2079,-2.1947,-2.173,-2.1526,-2.1399,-2.1354,-2.1267,-2.1118,-2.0966,-2.0875,-2.0721,-2.0606,-2.0487,-2.0454,-2.0658,-2.0883,-1.4731,-1.4808,-1.5116,-1.5353,-1.5601,-1.5601,-1.5601,-1.5542,-1.5542,-1.5483,-1.5601,-1.5601,-1.5601,-1.5591,-1.5478,-1.5558,-1.5531,-1.5381,-1.5397,-1.5135,-1.4966,-1.4686,-1.4416,-1.4211,-1.4158,-1.4202,-1.4191,-1.4191,-1.4159,-1.4116,-1.3986,-1.375,-1.3642,-1.3545,-1.333,-1.3254,-1.337,-1.3319,-1.3308,-1.3287,-1.3276,-1.3276,-1.3326,-1.3377,-1.3388,-1.3409,-1.3482,-1.3678,-1.392,-1.448,-1.573,-1.6755,-1.7176,-1.7372,-1.7672,-1.8038,-1.813,-1.8125,-1.8036,-1.8256,-1.8201,-1.8599,-1.921,-1.9617,-2.0015,-2.0623,-2.0939,-2.1103,-2.117,-2.1271,-2.1641,-2.203,-2.2131,-2.2283,-2.2417,-2.228,-2.2045,-2.204,-2.2049,-2.1771,-2.1568,-2.1382,-2.1636,-2.1952,-2.1998,-2.2126,-2.2171,-2.2235,-2.2189,-2.2123,-2.2184,-2.2318,-2.2307,-2.2351,-2.2397,-2.253,-2.261,-2.2606,-2.2427,-2.2321,-2.2176,-2.1946,-2.177,-2.1569,-2.1425,-2.132,-2.1334,-2.1329,-2.1244,-2.1015,-2.0822,-2.0756,-2.0689,-2.0746,-2.0833,-1.4166,-1.4222,-1.4401,-1.452,-1.4699,-1.4888,-1.4888,-1.4769,-1.4888,-1.4948,-1.4948,-1.5056,-1.5235,-1.5353,-1.5175,-1.5105,-1.5056,-1.4818,-1.4638,-1.4437,-1.4235,-1.4063,-1.3942,-1.3831,-1.3778,-1.4082,-1.4191,-1.4191,-1.4191,-1.4169,-1.4051,-1.3836,-1.3772,-1.3663,-1.3513,-1.3491,-1.3459,-1.3459,-1.348,-1.348,-1.348,-1.348,-1.348,-1.348,-1.348,-1.348,-1.3521,-1.3588,-1.362,-1.3964,-1.4913,-1.5819,-1.6148,-1.631,-1.6613,-1.7186,-1.7401,-1.7397,-1.7415,-1.7469,-1.7705,-1.7585,-1.8245,-1.8677,-1.8999,-1.9524,-1.9694,-1.9746,-1.9731,-1.9834,-2.0143,-2.0246,-2.0554,-2.0723,-2.081,-2.0718,-2.0698,-2.1526,-2.218,-2.189,-2.1731,-2.1624,-2.1692,-2.1501,-2.1841,-2.1915,-2.2071,-2.2135,-2.2612,-2.2529,-2.2327,-2.2345,-2.2279,-2.2258,-2.2232,-2.2353,-2.2485,-2.2566,-2.2582,-2.2573,-2.2566,-2.2288,-2.2043,-2.1888,-2.173,-2.1649,-2.1667,-2.1625,-2.1502,-2.1197,-2.1029,-2.1019,-2.1032,-2.1106,-2.1201,-1.3667,-1.362,-1.3643,-1.3624,-1.3753,-1.3992,-1.3992,-1.3813,-1.3992,-1.4232,-1.4172,-1.4401,-1.458,-1.4759,-1.458,-1.4451,-1.4331,-1.4043,-1.3904,-1.3865,-1.3672,-1.3547,-1.3393,-1.3356,-1.3387,-1.3961,-1.3886,-1.3876,-1.3823,-1.3964,-1.3772,-1.3699,-1.3784,-1.3783,-1.3653,-1.3599,-1.3653,-1.3663,-1.3663,-1.3653,-1.3642,-1.3642,-1.3642,-1.3653,-1.3653,-1.3653,-1.3696,-1.3793,-1.3879,-1.389,-1.4083,-1.442,-1.4786,-1.5107,-1.5589,-1.6807,-1.6807,-1.6678,-1.6611,-1.6898,-1.7029,-1.7015,-1.7371,-1.7686,-1.7843,-1.8053,-1.821,-1.821,-1.8262,-1.8366,-1.8262,-1.8627,-1.8731,-1.8835,-1.8835,-1.872,-1.9037,-2.0702,-2.1263,-2.1107,-2.0566,-2.0351,-2.0657,-2.0729,-2.1293,-2.17,-2.181,-2.201,-2.2391,-2.2528,-2.2136,-2.201,-2.1846,-2.229,-2.24,-2.1816,-2.2005,-2.2326,-2.2492,-2.253,-2.2643,-2.2577,-2.2344,-2.2217,-2.2084,-2.1988,-2.1889,-2.183,-2.165,-2.1369,-2.1245,-2.1298,-2.1336,-2.1436,-2.151,-1.303,-1.3136,-1.3217,-1.3444,-1.3693,-1.3753,-1.3693,-1.3693,-1.3684,-1.3753,-1.3753,-1.3813,-1.3863,-1.3923,-1.3923,-1.3803,-1.3744,-1.3504,-1.3573,-1.3573,-1.3439,-1.3364,-1.3166,-1.3051,-1.3088,-1.2963,-1.2979,-1.2921,-1.291,-1.298,-1.3231,-1.3362,-1.3567,-1.3676,-1.3869,-1.4073,-1.3837,-1.3763,-1.3773,-1.3837,-1.3837,-1.3837,-1.3837,-1.3891,-1.388,-1.3955,-1.4029,-1.4094,-1.4137,-1.4137,-1.418,-1.4245,-1.436,-1.4434,-1.468,-1.4915,-1.5087,-1.5228,-1.5179,-1.4976,-1.488,-1.4934,-1.5553,-1.5927,-1.618,-1.6552,-1.6817,-1.6922,-1.7134,-1.7331,-1.7634,-1.7594,-1.8053,-1.8314,-1.8196,-1.8234,-1.84,-1.8852,-1.9265,-1.891,-1.8724,-1.8885,-1.9383,-1.9795,-2.0143,-2.057,-2.0857,-2.0979,-2.1267,-2.1315,-2.1162,-2.1207,-2.1302,-2.1967,-2.2608,-2.1735,-2.1384,-2.1898,-2.2125,-2.2147,-2.2314,-2.2618,-2.2611,-2.2392,-2.2207,-2.2077,-2.2042,-2.2065,-2.1868,-2.1551,-2.159,-2.1588,-2.1607,-2.1606,-2.1504,-1.1775,-1.1711,-1.2298,-1.2639,-1.2741,-1.2844,-1.2844,-1.2733,-1.2844,-1.2904,-1.2964,-1.3084,-1.3264,-1.3384,-1.3264,-1.3024,-1.2793,-1.2733,-1.2733,-1.2733,-1.2724,-1.2637,-1.2583,-1.2524,-1.2358,-1.2165,-1.2078,-1.2262,-1.2419,-1.2555,-1.2727,-1.2817,-1.2989,-1.3098,-1.3207,-1.3186,-1.3325,-1.3325,-1.3325,-1.3325,-1.3325,-1.3325,-1.3369,-1.3542,-1.3704,-1.3813,-1.3975,-1.4137,-1.4191,-1.4191,-1.4191,-1.4191,-1.4202,-1.4158,-1.4202,-1.4158,-1.4202,-1.4202,-1.4191,-1.4191,-1.4245,-1.4299,-1.4676,-1.4773,-1.488,-1.519,-1.5493,-1.547,-1.5458,-1.566,-1.5713,-1.6033,-1.618,-1.638,-1.6486,-1.6592,-1.6645,-1.6817,-1.6781,-1.6896,-1.7829,-1.8265,-1.8315,-1.8659,-1.8966,-1.9382,-1.9846,-2.0022,-2.0146,-2.0148,-2.0101,-2.0103,-2.0232,-2.0815,-2.1459,-2.1016,-2.0701,-2.1263,-2.1514,-2.1532,-2.168,-2.1853,-2.2251,-2.2408,-2.2231,-2.209,-2.2246,-2.2313,-2.2038,-2.1802,-2.1826,-2.1808,-2.177,-2.175,-2.163,-1.0472,-1.0252,-1.1061,-1.1471,-1.1569,-1.1724,-1.1845,-1.1877,-1.2078,-1.2001,-1.1872,-1.2053,-1.2294,-1.2543,-1.2483,-1.2251,-1.1837,-1.1897,-1.1897,-1.1957,-1.1957,-1.1837,-1.1837,-1.1812,-1.1774,-1.1695,-1.1619,-1.171,-1.1986,-1.2174,-1.2229,-1.2339,-1.2366,-1.2421,-1.2586,-1.2762,-1.2495,-1.2504,-1.2504,-1.2514,-1.2504,-1.2467,-1.2557,-1.2821,-1.3064,-1.3207,-1.3369,-1.3532,-1.38,-1.3821,-1.3897,-1.3917,-1.4048,-1.4004,-1.4004,-1.4102,-1.419,-1.4266,-1.4277,-1.4363,-1.4406,-1.4472,-1.4352,-1.4396,-1.4407,-1.4625,-1.4527,-1.4331,-1.4462,-1.4549,-1.469,-1.4386,-1.4505,-1.4611,-1.4708,-1.4665,-1.4976,-1.519,-1.5405,-1.5927,-1.7132,-1.7395,-1.7159,-1.7485,-1.7802,-1.8355,-1.8874,-1.8925,-1.9033,-1.9039,-1.905,-1.8949,-1.9117,-1.9524,-1.9836,-1.9886,-1.994,-2.0491,-2.0599,-2.0543,-2.0691,-2.0933,-2.1288,-2.1554,-2.2064,-2.1907,-2.2222,-2.245,-2.2298,-2.2123,-2.2029,-2.1977,-2.1884,-2.1906,-2.1867,-0.9552,-0.9497,-0.9393,-0.9913,-1.0719,-1.0613,-1.1065,-1.1787,-1.1728,-1.1285,-1.0686,-1.0604,-1.0725,-1.0974,-1.1647,-1.1837,-1.1776,-1.1776,-1.1837,-1.1837,-1.1837,-1.1837,-1.1837,-1.1837,-1.1687,-1.1565,-1.1524,-1.1437,-1.1585,-1.1771,-1.1798,-1.1936,-1.2224,-1.2495,-1.2395,-1.2487,-1.2928,-1.2861,-1.2852,-1.2843,-1.2758,-1.2618,-1.2608,-1.2608,-1.2633,-1.2602,-1.274,-1.2859,-1.3008,-1.3311,-1.3099,-1.3253,-1.3692,-1.3391,-1.3505,-1.3841,-1.4242,-1.4448,-1.4469,-1.4632,-1.4719,-1.4708,-1.474,-1.4783,-1.4729,-1.4719,-1.4729,-1.4805,-1.4772,-1.4665,-1.4525,-1.4492,-1.4396,-1.4353,-1.4364,-1.4342,-1.4375,-1.4557,-1.4611,-1.4761,-1.5899,-1.5854,-1.5619,-1.6126,-1.6627,-1.7255,-1.7775,-1.7807,-1.7811,-1.7793,-1.7979,-1.7969,-1.795,-1.8361,-1.8513,-1.8513,-1.8749,-1.9449,-1.946,-1.9437,-1.9781,-1.9926,-1.9952,-2.0298,-2.0919,-2.1445,-2.1504,-2.1745,-2.2231,-2.2418,-2.2287,-2.2123,-2.1955,-2.2016,-2.2176,-0.8004,-0.8524,-0.8998,-0.9443,-0.9735,-0.9682,-0.9919,-1.0252,-1.026,-1.0313,-1.036,-1.0336,-1.0308,-1.0308,-1.0793,-1.0914,-1.1042,-1.1466,-1.1776,-1.1776,-1.1776,-1.1837,-1.1837,-1.1837,-1.1711,-1.1679,-1.1654,-1.1654,-1.1559,-1.1438,-1.1453,-1.1486,-1.1699,-1.1757,-1.1964,-1.1986,-1.1954,-1.1954,-1.1963,-1.1972,-1.1946,-1.1951,-1.1955,-1.2125,-1.2206,-1.2273,-1.2432,-1.2683,-1.2824,-1.3088,-1.2918,-1.3013,-1.3269,-1.3174,-1.3174,-1.3345,-1.3613,-1.3952,-1.4389,-1.4678,-1.4788,-1.4891,-1.4891,-1.4869,-1.488,-1.4902,-1.4902,-1.488,-1.488,-1.4826,-1.4762,-1.4729,-1.4686,-1.4589,-1.4439,-1.4406,-1.4352,-1.4267,-1.4396,-1.4504,-1.46,-1.4714,-1.4877,-1.5291,-1.5754,-1.6112,-1.642,-1.642,-1.6382,-1.6356,-1.6588,-1.6977,-1.7042,-1.7185,-1.7246,-1.7255,-1.7292,-1.7738,-1.7941,-1.8067,-1.869,-1.8889,-1.885,-1.913,-1.9739,-2.0205,-2.0553,-2.1284,-2.1945,-2.2258,-2.2544,-2.2337,-2.2167,-2.2535,-2.2617,-0.688,-0.7534,-0.8285,-0.8686,-0.8822,-0.8765,-0.8939,-0.9212,-0.9154,-0.9281,-0.9555,-0.9575,-0.9551,-0.9633,-0.9754,-0.9937,-1.0004,-1.0982,-1.1345,-1.1466,-1.1655,-1.1776,-1.1837,-1.1837,-1.1837,-1.1837,-1.1812,-1.1744,-1.1671,-1.1533,-1.1428,-1.1305,-1.1503,-1.1404,-1.1313,-1.1479,-1.1528,-1.1586,-1.152,-1.1511,-1.1495,-1.138,-1.1471,-1.1628,-1.1833,-1.1972,-1.2192,-1.2298,-1.247,-1.2675,-1.256,-1.2596,-1.2843,-1.2763,-1.2754,-1.2889,-1.3119,-1.3479,-1.3925,-1.4252,-1.4547,-1.4604,-1.4594,-1.4494,-1.4703,-1.4766,-1.4891,-1.4944,-1.5059,-1.5074,-1.4988,-1.4977,-1.4902,-1.4815,-1.4708,-1.4665,-1.4589,-1.4494,-1.4375,-1.4418,-1.4494,-1.445,-1.4618,-1.4794,-1.503,-1.5089,-1.5127,-1.5179,-1.5318,-1.5491,-1.5732,-1.6296,-1.6323,-1.6441,-1.6611,-1.6496,-1.6354,-1.6329,-1.6536,-1.678,-1.7502,-1.771,-1.7646,-1.8104,-1.8592,-1.8785,-1.898,-2.0393,-2.165,-2.1666,-2.1762,-2.2277,-2.2478,-2.2794,-2.2911,-0.6518,-0.6573,-0.6551,-0.7215,-0.8061,-0.7801,-0.8355,-0.9092,-0.9032,-0.8527,-0.8113,-0.7828,-0.7892,-0.7949,-0.8599,-0.8897,-0.8958,-0.9937,-1.0368,-1.0793,-1.1285,-1.1655,-1.1776,-1.1837,-1.1837,-1.1837,-1.1837,-1.1837,-1.1828,-1.1719,-1.1589,-1.1524,-1.1589,-1.1581,-1.1565,-1.1589,-1.1646,-1.1654,-1.1654,-1.1671,-1.163,-1.1565,-1.1543,-1.1502,-1.1388,-1.1282,-1.1339,-1.1562,-1.1753,-1.2181,-1.2014,-1.2056,-1.2438,-1.2235,-1.2294,-1.2541,-1.2618,-1.2925,-1.3255,-1.366,-1.3787,-1.3806,-1.3836,-1.4025,-1.4242,-1.4489,-1.4687,-1.4872,-1.4997,-1.5189,-1.5162,-1.5156,-1.5092,-1.5052,-1.4966,-1.4891,-1.4794,-1.4632,-1.4525,-1.4471,-1.4472,-1.4473,-1.4429,-1.4622,-1.4778,-1.4893,-1.5146,-1.5205,-1.5343,-1.5519,-1.5495,-1.5712,-1.5688,-1.5854,-1.6249,-1.6187,-1.6091,-1.6095,-1.6277,-1.6228,-1.6419,-1.6513,-1.6846,-1.6821,-1.725,-1.7355,-1.7527,-1.8549,-1.9588,-2.0449,-2.1006,-2.132,-2.1828,-2.2201,-2.2467,-0.6522,-0.6518,-0.6415,-0.6685,-0.7045,-0.6973,-0.7158,-0.7502,-0.7476,-0.7518,-0.7581,-0.7534,-0.7458,-0.7531,-0.7643,-0.7922,-0.8044,-0.8958,-0.9579,-1.024,-1.0732,-1.1224,-1.1526,-1.1784,-1.1837,-1.1837,-1.1837,-1.1837,-1.1837,-1.1869,-1.176,-1.1719,-1.1776,-1.1727,-1.1727,-1.1727,-1.182,-1.1837,-1.1837,-1.1837,-1.182,-1.1727,-1.1671,-1.1654,-1.163,-1.1565,-1.1573,-1.1565,-1.1725,-1.1817,-1.1714,-1.1943,-1.2105,-1.1889,-1.1957,-1.2191,-1.2191,-1.2311,-1.2552,-1.3153,-1.3693,-1.3693,-1.3684,-1.3693,-1.3813,-1.3983,-1.4102,-1.4282,-1.459,-1.4757,-1.4834,-1.498,-1.5114,-1.5194,-1.5156,-1.5023,-1.4963,-1.4756,-1.4772,-1.4673,-1.4676,-1.4622,-1.4569,-1.4516,-1.4614,-1.473,-1.4987,-1.5221,-1.5341,-1.544,-1.5469,-1.5522,-1.5563,-1.5555,-1.587,-1.5862,-1.5842,-1.5925,-1.5967,-1.5931,-1.5946,-1.6202,-1.6482,-1.6232,-1.6091,-1.6402,-1.6633,-1.6791,-1.7669,-1.9055,-1.9832,-2.0268,-2.0827,-2.1427,-2.1713,-0.6522,-0.6522,-0.6522,-0.6522,-0.6522,-0.6522,-0.6522,-0.651,-0.6452,-0.6631,-0.7181,-0.7169,-0.7117,-0.7074,-0.7089,-0.7051,-0.7309,-0.7992,-0.8785,-0.9396,-1.0053,-1.0691,-1.1286,-1.1627,-1.1837,-1.1784,-1.1841,-1.1857,-1.1874,-1.1906,-1.1947,-1.1955,-1.1922,-1.1906,-1.1768,-1.1837,-1.1837,-1.1837,-1.1837,-1.1837,-1.1837,-1.1828,-1.1768,-1.182,-1.1744,-1.1736,-1.1727,-1.1719,-1.1796,-1.1812,-1.182,-1.1828,-1.1837,-1.1837,-1.1837,-1.1837,-1.1837,-1.1845,-1.2078,-1.2492,-1.3153,-1.2973,-1.3033,-1.3093,-1.3264,-1.3324,-1.3444,-1.3624,-1.3863,-1.4102,-1.4331,-1.449,-1.4599,-1.4567,-1.4713,-1.47,-1.4861,-1.4793,-1.488,-1.4931,-1.4902,-1.4783,-1.474,-1.4666,-1.4647,-1.4679,-1.473,-1.4976,-1.5167,-1.5293,-1.5304,-1.5411,-1.5571,-1.5541,-1.5575,-1.5716,-1.5822,-1.5652,-1.5747,-1.5734,-1.5801,-1.6033,-1.6061,-1.5897,-1.5791,-1.5722,-1.5897,-1.6142,-1.7018,-1.8071,-1.8751,-1.9461,-1.9716,-2.0281,-2.0553,-0.6522,-0.6522,-0.6522,-0.6518,-0.6514,-0.6522,-0.6522,-0.6518,-0.6498,-0.644,-0.6484,-0.6398,-0.6348,-0.6349,-0.6417,-0.6395,-0.653,-0.7185,-0.7754,-0.8209,-0.9428,-1.0191,-1.0826,-1.1301,-1.1837,-1.1817,-1.1874,-1.1931,-1.1979,-1.2044,-1.215,-1.2166,-1.2077,-1.2052,-1.1861,-1.1784,-1.1784,-1.1845,-1.1877,-1.1833,-1.1849,-1.1857,-1.1857,-1.1866,-1.1866,-1.1882,-1.1882,-1.1882,-1.1874,-1.1833,-1.1866,-1.1857,-1.1825,-1.1849,-1.1849,-1.1841,-1.1833,-1.1817,-1.1861,-1.1905,-1.2034,-1.2139,-1.232,-1.2251,-1.2363,-1.2543,-1.2844,-1.2964,-1.3324,-1.3564,-1.3684,-1.3744,-1.3863,-1.4033,-1.4242,-1.4321,-1.4488,-1.4555,-1.458,-1.4655,-1.4823,-1.4891,-1.4891,-1.4872,-1.4756,-1.468,-1.4613,-1.4741,-1.5013,-1.511,-1.5198,-1.5314,-1.5475,-1.5381,-1.5417,-1.5677,-1.5801,-1.5608,-1.5587,-1.5664,-1.5619,-1.5688,-1.5679,-1.5531,-1.562,-1.5668,-1.5566,-1.5588,-1.6394,-1.727,-1.8095,-1.8707,-1.8909,-1.9092,-1.9428,-0.6522,-0.6522,-0.6522,-0.6419,-0.6378,-0.6498,-0.6522,-0.651,-0.6386,-0.6313,-0.6227,-0.6174,-0.6069,-0.6088,-0.6047,-0.6031,-0.6148,-0.6193,-0.6625,-0.7619,-0.8823,-0.9652,-1.0365,-1.1096,-1.1716,-1.1784,-1.1849,-1.189,-1.1849,-1.2012,-1.1979,-1.1955,-1.2085,-1.2036,-1.2093,-1.2125,-1.2134,-1.2134,-1.2134,-1.2134,-1.2125,-1.2117,-1.2109,-1.2101,-1.2101,-1.2093,-1.2093,-1.2077,-1.2036,-1.1979,-1.2012,-1.2036,-1.1996,-1.2012,-1.2101,-1.2109,-1.2117,-1.2134,-1.2093,-1.2036,-1.189,-1.1825,-1.1837,-1.1837,-1.1949,-1.201,-1.2191,-1.2311,-1.2603,-1.2844,-1.2964,-1.3264,-1.3444,-1.3753,-1.3913,-1.3904,-1.3984,-1.3975,-1.3995,-1.4114,-1.4192,-1.4576,-1.4756,-1.4844,-1.4756,-1.485,-1.4832,-1.4922,-1.5122,-1.5109,-1.5108,-1.5192,-1.5298,-1.5206,-1.5256,-1.5482,-1.5589,-1.5459,-1.5582,-1.583,-1.5737,-1.5542,-1.5545,-1.5585,-1.5579,-1.5607,-1.5532,-1.5557,-1.5791,-1.6415,-1.721,-1.7662,-1.7784,-1.8023,-1.8288,-0.5982,-0.612,-0.5982,-0.5952,-0.6039,-0.6328,-0.6456,-0.6353,-0.6292,-0.6235,-0.6178,-0.6121,-0.6104,-0.6084,-0.6043,-0.601,-0.601,-0.601,-0.6139,-0.7113,-0.7943,-0.8626,-0.9474,-1.0579,-1.1042,-1.1361,-1.172,-1.1874,-1.1906,-1.1947,-1.2004,-1.2036,-1.2073,-1.2215,-1.2296,-1.2239,-1.2109,-1.2117,-1.2142,-1.2199,-1.2239,-1.228,-1.2288,-1.228,-1.228,-1.2288,-1.2296,-1.2288,-1.2255,-1.2199,-1.2207,-1.2255,-1.2207,-1.2223,-1.2312,-1.2304,-1.2304,-1.2296,-1.2247,-1.2117,-1.1971,-1.189,-1.1817,-1.1837,-1.1837,-1.1897,-1.1837,-1.1949,-1.201,-1.213,-1.244,-1.2741,-1.2879,-1.312,-1.3222,-1.3222,-1.3384,-1.3366,-1.3605,-1.3674,-1.3784,-1.4163,-1.4516,-1.4727,-1.4766,-1.4919,-1.507,-1.5099,-1.5172,-1.512,-1.5055,-1.5143,-1.5196,-1.5106,-1.5113,-1.5194,-1.529,-1.5321,-1.5535,-1.5761,-1.5796,-1.5628,-1.5603,-1.5632,-1.568,-1.5712,-1.5579,-1.5569,-1.5733,-1.5794,-1.6088,-1.6441,-1.6641,-1.6989,-1.7428,-0.5044,-0.5245,-0.4973,-0.5041,-0.5429,-0.5888,-0.6137,-0.613,-0.613,-0.6126,-0.605,-0.6046,-0.5898,-0.6034,-0.603,-0.5942,-0.5922,-0.5994,-0.6112,-0.6476,-0.7261,-0.764,-0.8358,-0.9413,-1.0271,-1.0775,-1.1141,-1.1611,-1.1929,-1.2085,-1.2174,-1.2192,-1.2264,-1.2306,-1.2241,-1.219,-1.2085,-1.2215,-1.228,-1.2345,-1.2418,-1.2393,-1.2418,-1.2426,-1.2418,-1.2418,-1.241,-1.2393,-1.2361,-1.2337,-1.2345,-1.2337,-1.232,-1.232,-1.2328,-1.2337,-1.2361,-1.2377,-1.2353,-1.216,-1.2031,-1.202,-1.1866,-1.1809,-1.1837,-1.1837,-1.1837,-1.1792,-1.1922,-1.1869,-1.199,-1.2015,-1.2101,-1.2197,-1.2293,-1.2457,-1.2672,-1.2904,-1.3144,-1.3324,-1.3444,-1.3765,-1.4054,-1.4291,-1.4437,-1.4575,-1.471,-1.4919,-1.4987,-1.5066,-1.5015,-1.5028,-1.5076,-1.5044,-1.5043,-1.514,-1.5104,-1.517,-1.536,-1.5564,-1.5624,-1.5618,-1.5547,-1.563,-1.5796,-1.5805,-1.5692,-1.5599,-1.5542,-1.567,-1.5783,-1.5881,-1.6241,-1.6467,-1.6733,-0.4501,-0.4571,-0.4501,-0.4478,-0.4565,-0.4633,-0.4813,-0.5096,-0.5363,-0.5339,-0.5094,-0.5347,-0.5184,-0.4696,-0.463,-0.4791,-0.4949,-0.5178,-0.5423,-0.5912,-0.6598,-0.718,-0.7873,-0.8561,-0.9535,-1.01,-1.0538,-1.1117,-1.1674,-1.1948,-1.1923,-1.1806,-1.2011,-1.2083,-1.2107,-1.2105,-1.2298,-1.2403,-1.2443,-1.2556,-1.2613,-1.2637,-1.2645,-1.2637,-1.2629,-1.2629,-1.2637,-1.2637,-1.2605,-1.2507,-1.2621,-1.2637,-1.2491,-1.2605,-1.2686,-1.2686,-1.2694,-1.2686,-1.2572,-1.2402,-1.2223,-1.2142,-1.1955,-1.1809,-1.1837,-1.1837,-1.1837,-1.1792,-1.1874,-1.1906,-1.1955,-1.1987,-1.1971,-1.1992,-1.202,-1.2101,-1.231,-1.2371,-1.2612,-1.2672,-1.2853,-1.3144,-1.3444,-1.3734,-1.3906,-1.4133,-1.4312,-1.4528,-1.479,-1.4935,-1.5092,-1.5117,-1.5034,-1.5041,-1.5064,-1.5121,-1.5099,-1.5109,-1.5272,-1.5367,-1.5341,-1.5337,-1.5386,-1.5535,-1.5654,-1.5791,-1.5801,-1.5725,-1.5518,-1.5667,-1.5771,-1.5743,-1.5796,-1.6126,-1.6279,-0.3765,-0.3833,-0.3698,-0.3546,-0.3386,-0.3292,-0.356,-0.3975,-0.4464,-0.4547,-0.4383,-0.4609,-0.4385,-0.4098,-0.4074,-0.4105,-0.4262,-0.445,-0.4632,-0.494,-0.5728,-0.5784,-0.6385,-0.7118,-0.766,-0.843,-0.9354,-1.0069,-1.0734,-1.1286,-1.1371,-1.1256,-1.1541,-1.1573,-1.1697,-1.1805,-1.2104,-1.2352,-1.2497,-1.2726,-1.2742,-1.2766,-1.2766,-1.2766,-1.2766,-1.2766,-1.2766,-1.2766,-1.2702,-1.2686,-1.275,-1.2791,-1.2653,-1.2726,-1.2783,-1.2759,-1.2718,-1.2743,-1.2661,-1.2564,-1.241,-1.2255,-1.2036,-1.1882,-1.1801,-1.1837,-1.1837,-1.1853,-1.1922,-1.1974,-1.2109,-1.2158,-1.2101,-1.2044,-1.1996,-1.1947,-1.1935,-1.1853,-1.1897,-1.1897,-1.213,-1.2432,-1.2784,-1.3084,-1.3384,-1.3624,-1.3863,-1.4083,-1.445,-1.4793,-1.5104,-1.5375,-1.5203,-1.5088,-1.5077,-1.5091,-1.5052,-1.5054,-1.5188,-1.5265,-1.5119,-1.5272,-1.547,-1.5464,-1.5487,-1.5571,-1.5654,-1.5666,-1.5534,-1.5659,-1.5724,-1.5777,-1.5851,-1.6068,-1.6147,-0.2827,-0.3094,-0.2828,-0.2558,-0.2223,-0.2286,-0.242,-0.2754,-0.3478,-0.3883,-0.3878,-0.3888,-0.3873,-0.3607,-0.3506,-0.3596,-0.364,-0.3758,-0.3946,-0.3884,-0.4333,-0.4496,-0.4731,-0.4999,-0.5974,-0.6507,-0.7281,-0.8503,-0.9012,-0.9552,-1.0074,-1.0458,-1.0464,-1.0378,-1.0304,-1.0984,-1.125,-1.1439,-1.1999,-1.2409,-1.2602,-1.2642,-1.27,-1.2634,-1.2634,-1.2634,-1.2634,-1.2708,-1.2708,-1.2708,-1.27,-1.2634,-1.2538,-1.2514,-1.2546,-1.2604,-1.2572,-1.262,-1.2628,-1.2564,-1.2467,-1.2304,-1.2134,-1.1947,-1.1833,-1.1845,-1.1837,-1.1809,-1.1922,-1.195,-1.2023,-1.2182,-1.219,-1.2125,-1.2069,-1.1963,-1.1841,-1.1784,-1.1837,-1.1837,-1.1897,-1.2191,-1.2251,-1.2612,-1.2672,-1.2964,-1.3204,-1.3444,-1.3803,-1.4312,-1.4718,-1.5133,-1.5125,-1.4966,-1.513,-1.5124,-1.5031,-1.5058,-1.5207,-1.5175,-1.5099,-1.5289,-1.558,-1.5532,-1.5416,-1.5429,-1.5468,-1.5463,-1.5482,-1.5518,-1.5595,-1.5767,-1.5902,-1.6037,-1.6045,-0.2357,-0.2423,-0.2357,-0.229,-0.2223,-0.2223,-0.2223,-0.2356,-0.2541,-0.2796,-0.3056,-0.3214,-0.3107,-0.2753,-0.2648,-0.2744,-0.2905,-0.3147,-0.3332,-0.3529,-0.373,-0.3706,-0.397,-0.4184,-0.4704,-0.543,-0.6156,-0.6788,-0.7429,-0.7928,-0.8,-0.7749,-0.8046,-0.8391,-0.8452,-0.9234,-1.0019,-1.0346,-1.1061,-1.17,-1.2018,-1.2048,-1.2048,-1.2033,-1.2091,-1.2091,-1.2091,-1.2107,-1.2048,-1.2048,-1.2048,-1.198,-1.1915,-1.1992,-1.1919,-1.1946,-1.2165,-1.2342,-1.2416,-1.2458,-1.2371,-1.2265,-1.2096,-1.1971,-1.1841,-1.1801,-1.1801,-1.1841,-1.1898,-1.1979,-1.2023,-1.2199,-1.228,-1.2215,-1.215,-1.1996,-1.1841,-1.1817,-1.1861,-1.1861,-1.1861,-1.1861,-1.199,-1.1974,-1.2018,-1.2191,-1.2363,-1.2603,-1.2973,-1.3384,-1.3794,-1.4202,-1.4679,-1.4706,-1.4921,-1.5045,-1.4908,-1.5008,-1.516,-1.512,-1.5058,-1.5263,-1.5444,-1.549,-1.5423,-1.5365,-1.5361,-1.5381,-1.5433,-1.5472,-1.5479,-1.5646,-1.5653,-1.5779,-1.5803,-0.2223,-0.2223,-0.2223,-0.2223,-0.2223,-0.2223,-0.2223,-0.2223,-0.2223,-0.229,-0.2487,-0.2587,-0.2491,-0.2075,-0.2039,-0.2078,-0.2303,-0.2474,-0.2594,-0.2849,-0.3062,-0.3017,-0.3194,-0.3317,-0.3408,-0.3914,-0.4718,-0.5326,-0.6162,-0.6554,-0.6629,-0.6282,-0.6476,-0.6536,-0.6619,-0.7682,-0.8514,-0.9154,-0.9939,-1.0629,-1.1146,-1.1417,-1.1583,-1.1568,-1.1627,-1.1657,-1.1768,-1.179,-1.1784,-1.1784,-1.185,-1.1828,-1.1803,-1.1708,-1.1678,-1.169,-1.1747,-1.1923,-1.2011,-1.211,-1.2138,-1.2004,-1.1901,-1.1721,-1.1534,-1.1487,-1.167,-1.1693,-1.1894,-1.2028,-1.2199,-1.2328,-1.2402,-1.2385,-1.2361,-1.2272,-1.215,-1.2085,-1.2077,-1.2077,-1.2077,-1.2077,-1.2139,-1.2139,-1.2176,-1.2151,-1.2233,-1.2195,-1.2422,-1.2639,-1.3036,-1.3379,-1.3819,-1.4132,-1.4242,-1.4519,-1.4716,-1.4852,-1.5024,-1.5168,-1.5199,-1.5243,-1.5281,-1.5385,-1.5364,-1.5266,-1.5278,-1.5311,-1.5455,-1.5565,-1.5519,-1.5484,-1.5525,-1.5545,-1.5654,-0.2223,-0.2223,-0.2223,-0.2223,-0.2223,-0.2223,-0.2223,-0.2223,-0.2223,-0.2223,-0.222,-0.2195,-0.2116,-0.209,-0.2054,-0.2035,-0.2083,-0.2198,-0.2122,-0.212,-0.2129,-0.235,-0.2375,-0.2265,-0.2432,-0.278,-0.3382,-0.4295,-0.5178,-0.5199,-0.5165,-0.5472,-0.5544,-0.5505,-0.5693,-0.6054,-0.6543,-0.7597,-0.8464,-0.9329,-1.0117,-1.0926,-1.1142,-1.1263,-1.1414,-1.1488,-1.1482,-1.1548,-1.1644,-1.1652,-1.1512,-1.1468,-1.1439,-1.1381,-1.133,-1.1351,-1.1394,-1.1488,-1.1568,-1.1678,-1.169,-1.1588,-1.1531,-1.1399,-1.1266,-1.128,-1.1472,-1.1565,-1.1759,-1.2001,-1.2178,-1.233,-1.2394,-1.2507,-1.2491,-1.2507,-1.2402,-1.2304,-1.2296,-1.2296,-1.2296,-1.2296,-1.2296,-1.2304,-1.2288,-1.2272,-1.2223,-1.2134,-1.2122,-1.2275,-1.2549,-1.2777,-1.3092,-1.3387,-1.3611,-1.3952,-1.4311,-1.449,-1.4608,-1.5084,-1.537,-1.5386,-1.5347,-1.5326,-1.5297,-1.5292,-1.5262,-1.5274,-1.5433,-1.5502,-1.5345,-1.5266,-1.5456,-1.5489,-1.5625,-0.2223,-0.2223,-0.2223,-0.2223,-0.2223,-0.2223,-0.2223,-0.2223,-0.2223,-0.2223,-0.222,-0.2217,-0.2135,-0.2109,-0.2074,-0.2056,-0.2053,-0.2041,-0.2045,-0.2113,-0.2052,-0.2074,-0.2089,-0.2095,-0.2132,-0.2408,-0.2538,-0.2728,-0.3706,-0.3354,-0.2934,-0.3103,-0.3035,-0.312,-0.322,-0.3828,-0.497,-0.5937,-0.7313,-0.8415,-0.909,-0.9914,-1.0715,-1.0854,-1.0861,-1.0875,-1.0889,-1.0902,-1.0916,-1.0923,-1.0982,-1.0927,-1.0965,-1.0951,-1.0916,-1.0983,-1.102,-1.1142,-1.125,-1.1388,-1.1424,-1.138,-1.1358,-1.1307,-1.1212,-1.1153,-1.127,-1.127,-1.1396,-1.157,-1.1797,-1.1917,-1.2019,-1.2306,-1.237,-1.2507,-1.2499,-1.2418,-1.2361,-1.2361,-1.2361,-1.2361,-1.2369,-1.2369,-1.2369,-1.2353,-1.2337,-1.2255,-1.2247,-1.2215,-1.2174,-1.2407,-1.2578,-1.2839,-1.3226,-1.3546,-1.3838,-1.3971,-1.4201,-1.4681,-1.509,-1.5423,-1.5456,-1.5333,-1.5381,-1.5434,-1.5416,-1.5355,-1.5268,-1.5327,-1.5093,-1.5028,-1.5309,-1.5478,-1.5556]},{"header":{"parameterUnit":"m.s-1","parameterCategory":1,"la1":31.0,"la2":29.5877,"lo1":-88.7671,"lo2":-86.6584,"dy":0.0162,"dx":0.0185,"nx":115,"ny":88,"refTime":"2026-04-10T00:00:00:Z","depth":0,"parameterNumber":3,"parameterNumberName":"V-component_of_WINDS"},"data":[0.0,0.0,0.0,0.0,0.0,0.0,0.0,0.0,0.0,0.0,0.0,0.0,0.0,0.0,0.0,0.0,0.0,0.0,0.0,0.0,0.0,0.0,0.0,0.0,0.0,0.0,0.0,0.0,0.0,0.0,0.0,0.0,0.0,0.0,0.0,0.0,0.0,0.0,0.0,0.0,0.0,0.0,0.0,0.0,0.0,0.0,0.0,0.0,0.0,0.0,0.0,0.0,0.0,0.0,0.0,0.0,0.0,0.0,0.0,0.0,0.0,0.0,0.0,0.0,0.0,0.0,0.0,0.0,0.0,0.0,0.0,0.0,0.0,0.0,0.0,0.0,0.0,0.0,0.0,0.0,0.0,0.0,0.0,0.0,0.0,0.0,0.0,0.0,0.0,0.0,0.0,0.0,0.0,0.0,0.0,0.0,0.0,0.0,0.0,0.0,0.0,0.0,0.0,0.0,0.0,0.0,0.0,0.0,0.0,0.0,0.0,0.0,0.0,0.0,0.0,0.0,0.0,0.0,0.0,0.0,0.0,0.0,0.0,0.0,0.0,0.0,0.0,0.0,0.0,0.0,0.0,0.0,0.0,0.0,0.0,0.0,0.0,0.0,0.0,0.0,0.0,0.0,0.0,0.0,0.0,0.0,0.0,0.0,0.0,0.0,0.0,0.0,0.0,0.0,0.0,0.0,0.0,0.0,0.0,0.0,0.0,0.0,0.0,0.0,0.0,0.0,0.0,0.0,0.0,0.0,0.0,0.0,0.0,0.0,0.0,0.0,0.0,0.0,0.0,0.0,0.0,0.0,0.0,0.0,0.0,0.0,0.0,0.0,0.0,0.0,0.0,0.0,0.0,0.0,0.0,0.0,0.0,0.0,0.0,0.0,0.0,0.0,0.0,0.0,0.0,0.0,0.0,0.0,0.0,0.0,0.0,0.0,0.0,0.0,0.0,0.0,0.0,0.0,0.0,0.0,0.0,0.0,0.0,0.0,0.0,0.0,0.0,0.0,0.0,0.0,0.0,0.0,0.0,0.0,0.0,0.0,0.0,0.0,0.0,0.0,0.0,0.0,0.0,0.0,0.0,0.0,0.0,0.0,0.0,0.0,0.0,0.0,0.0,0.0,0.0,0.0,0.0,0.0,0.0,0.0,0.0,0.0,0.0,0.0,0.0,0.0,0.0,0.0,0.0,0.0,0.0,0.0,0.0,0.0,0.0,0.0,0.0,0.0,0.0,0.0,0.0,0.0,0.0,0.0,0.0,0.0,0.0,0.0,0.0,0.0,0.0,0.0,0.0,0.0,0.0,0.0,0.0,0.0,0.0,0.0,0.0,0.0,0.0,0.0,0.0,0.0,0.0,0.0,0.0,0.0,0.0,0.0,0.0,0.0,0.0,0.0,0.0,0.0,0.0,0.0,0.0,0.0,0.0,0.0,0.0,0.0,0.0,0.0,0.0,0.0,0.0,0.0,0.0,0.0,0.0,0.0,0.0,0.0,0.0,0.0,0.0,0.0,0.0,0.0,0.0,0.0,0.0,0.0,0.0,0.0,0.0,0.0,0.0,0.0,0.0,0.0,0.0,0.0,0.0,0.0,0.0,0.0,0.0,0.0,0.0,0.0,0.0,0.0,0.0,0.0,0.0,0.0,0.0,0.0,0.0,0.0,0.0,0.0,0.0,0.0,0.0,0.0,0.0,0.0,0.0,0.0,0.0,0.0,0.0,0.0,0.0,0.0,0.0,0.0,0.0,0.0,0.0,0.0,0.0,0.0,0.0,0.0,0.0,0.0,0.0,0.0,0.0,0.0,0.0,0.0,0.0,0.0,0.0,0.0,0.0,0.0,0.0,0.0,0.0,0.0,0.0,0.0,0.0,0.0,0.0,0.0,0.0,0.0,0.0,0.0,0.0,0.0,0.0,0.0,0.0,0.0,0.0,0.0,0.0,0.0,0.0,0.0,0.0,0.0,0.0,0.0,0.0,0.0,0.0,0.0,0.0,0.0,0.0,0.0,0.0,0.0,0.0,0.0,0.0,0.0,0.0,0.0,0.0,0.0,0.0,0.0,0.0,0.0,0.0,0.0,0.0,0.0,0.0,0.0,0.0,0.0,0.0,0.0,0.0,0.0,0.0,0.0,0.0,0.0,0.0,0.0,0.0,0.0,0.0,0.0,0.0,0.0,0.0,0.0,0.0,0.0,0.0,0.0,0.0,0.0,0.0,0.0,0.0,0.0,0.0,0.0,0.0,0.0,0.0,0.0,0.0,0.0,0.0,0.0,0.0,0.0,0.0,0.0,0.0,0.0,0.0,0.0,0.0,0.0,0.0,0.0,0.0,0.0,0.0,0.0,0.0,0.0,0.0,0.0,0.0,0.0,0.0,0.0,0.0,0.0,0.0,0.0,0.0,0.0,0.0,0.0,0.0,0.0,0.0,0.0,0.0,0.0,0.0,0.0,0.0,0.0,0.0,0.0,0.0,0.0,0.0,0.0,0.0,0.0,0.0,0.0,0.0,0.0,0.0,0.0,0.0,0.0,0.0,0.0,0.0,0.0,0.0,0.0,0.0,0.0,0.0,0.0,0.0,0.0,0.0,0.0,0.0,0.0,0.0,0.0,0.0,0.0,0.0,0.0,0.0,0.0,0.0,0.0,0.0,0.0,0.0,0.0,0.0,0.0,0.0,0.0,0.0,0.0,0.0,0.0,0.0,0.0,0.0,0.0,0.0,0.0,0.0,0.0,0.0,0.0,0.0,0.0,0.0,0.0,0.0,0.0,0.0,0.0,0.0,0.0,0.0,0.0,0.0,0.0,0.0,0.0,0.0,0.0,0.0,0.0,0.0,0.0,0.0,0.0,0.0,0.0,0.0,0.0,0.0,0.0,0.0,0.0,0.0,0.0,0.0,0.0,0.0,0.0,0.0,0.0,0.0,0.0,0.0,0.0,0.0,0.0,0.0,0.0,0.0,0.0,0.0,0.0,0.0,0.0,0.0,0.0,0.0,0.0,0.0,0.0,0.0,0.0,0.0,0.0,0.0,0.0,0.0,0.0,0.0,0.0,0.0,0.0,0.0,0.0,0.0,0.0,0.0,0.0,0.0,0.0,0.0,0.0,0.0,0.0,0.0,0.0,0.0,0.0,0.0,0.0,0.0,0.0,0.0,0.0,0.0,0.0,0.0,0.0,0.0,0.0,0.0,0.0,0.0,0.0,0.0,0.0,0.0,0.0,0.0,0.0,0.0,0.0,0.0,0.0,0.0,0.0,0.0,0.0,0.0,0.0,0.0,0.0,0.0,0.0,0.0,0.0,0.0,0.0,0.0,0.0,0.0,0.0,0.0,0.0,0.0,0.0,0.0,0.0,0.0,0.0,0.0,0.0,0.0,0.0,0.0,0.0,0.0,0.0,0.0,0.0,0.0,0.0,0.0,0.0,0.0,0.0,0.0,0.0,0.0,0.0,0.0,0.0,0.0,0.0,0.0,0.0,0.0,0.0,0.0,0.0,0.0,0.0,0.0,0.0,0.0,0.0,0.0,0.0,0.0,0.0,0.0,0.0,0.0,0.0,0.0,0.0,0.0,0.0,0.0,0.0,0.0,0.0,0.0,0.0,0.0,0.0,0.0,0.0,0.0,0.0,0.0,0.0,0.0,0.0,0.0,0.0,0.0,0.0,0.0,0.0,0.0,0.0,0.0,0.0,0.0,0.0,0.0,0.0,0.0,0.0,0.0,0.0,0.0,0.0,0.0,0.0,0.0,0.0,0.0,0.0,0.0,0.0,0.0,0.0,0.0,0.0,0.0,0.0,0.0,0.0,0.0,0.0,0.0,0.0,0.0,0.0,0.0,0.0,0.0,0.0,0.0,0.0,0.0,0.0,0.0,0.0,0.0,0.0,0.0,0.0,0.0,0.0,0.0,0.0,0.0,0.0,0.0,0.0,0.0,0.0,0.0,0.0,0.0,0.0,0.0,0.0,0.0,0.0,0.0,0.0,0.0,0.0,0.0,0.0,0.0,0.0,0.0,0.0,0.0,0.0,0.0,0.0,0.0,0.0,0.0,0.0,0.0,0.0,0.0,0.0,0.0,0.0,0.0,0.0,0.0,0.0,0.0,0.0,0.0,0.0,0.0,0.0,0.0,0.0,0.0,0.0,0.0,0.0,0.0,0.0,0.0,0.0,0.0,0.0,0.0,0.0,0.0,0.0,0.0,0.0,0.0,0.0,0.0,0.0,0.0,0.0,0.0,0.0,0.0,0.0,0.0,0.0,0.0,0.0,0.0,0.0,2.7747,0.0,0.0,0.0,0.0,0.0,0.0,0.0,0.0,0.0,0.0,0.0,0.0,0.0,0.0,0.0,0.0,0.0,0.0,0.0,0.0,0.0,0.0,0.0,0.0,0.0,0.0,0.0,0.0,0.0,0.0,0.0,0.0,0.0,0.0,0.0,0.0,0.0,0.0,0.0,0.0,0.0,0.0,0.0,0.0,0.0,0.0,0.0,0.0,0.0,0.0,0.0,0.0,0.0,0.0,0.0,0.0,0.0,0.0,0.0,0.0,0.0,0.0,0.0,0.0,0.0,0.0,0.0,0.0,0.0,0.0,0.0,0.0,0.0,0.0,0.0,0.0,0.0,0.0,0.0,0.0,0.0,0.0,0.0,0.0,0.0,0.0,0.0,0.0,0.0,0.0,0.0,0.0,0.0,0.0,0.0,0.0,0.0,0.0,0.0,0.0,0.0,0.0,0.0,0.0,0.0,0.0,0.0,0.0,0.0,0.0,2.8965,2.8872,2.8419,2.7739,2.6816,0.0,0.0,0.0,0.0,0.0,0.0,0.0,0.0,0.0,0.0,0.0,0.0,0.0,0.0,0.0,0.0,0.0,0.0,0.0,0.0,0.0,0.0,0.0,0.0,0.0,0.0,0.0,0.0,0.0,0.0,0.0,0.0,0.0,0.0,0.0,0.0,0.0,0.0,0.0,0.0,0.0,0.0,0.0,0.0,0.0,0.0,0.0,0.0,0.0,0.0,0.0,0.0,0.0,0.0,0.0,0.0,0.0,0.0,0.0,0.0,0.0,0.0,0.0,0.0,0.0,0.0,0.0,0.0,0.0,0.0,0.0,0.0,0.0,0.0,0.0,0.0,0.0,0.0,0.0,0.0,0.0,0.0,0.0,0.0,0.0,0.0,0.0,0.0,0.0,0.0,0.0,0.0,0.0,0.0,0.0,0.0,0.0,0.0,0.0,0.0,0.0,0.0,0.0,0.0,0.0,0.0,0.0,0.0,0.0,0.0,0.0,0.0,2.7575,2.6797,2.5655,0.0,0.0,0.0,0.0,0.0,0.0,0.0,0.0,0.0,0.0,0.0,0.0,0.0,0.0,0.0,0.0,0.0,0.0,0.0,0.0,0.0,0.0,0.0,0.0,0.0,0.0,0.0,0.0,0.0,0.0,0.0,0.0,0.0,0.0,0.0,0.0,0.0,0.0,0.0,0.0,0.0,0.0,0.0,0.0,0.0,0.0,0.0,0.0,0.0,0.0,0.0,0.0,0.0,0.0,0.0,0.0,0.0,0.0,0.0,0.0,0.0,0.0,0.0,0.0,0.0,0.0,0.0,0.0,0.0,0.0,0.0,0.0,0.0,0.0,0.0,0.0,0.0,0.0,0.0,0.0,0.0,0.0,0.0,0.0,0.0,0.0,0.0,0.0,0.0,0.0,0.0,0.0,0.0,0.0,0.0,0.0,0.0,0.0,0.0,0.0,0.0,0.0,0.0,0.0,0.0,0.0,0.0,0.0,0.0,0.0,2.76,2.7399,2.7093,0.0,2.482,0.0,0.0,0.0,0.0,0.0,0.0,0.0,0.0,0.0,0.0,0.0,0.0,0.0,0.0,0.0,0.0,0.0,0.0,0.0,0.0,0.0,0.0,0.0,0.0,0.0,0.0,0.0,0.0,0.0,0.0,0.0,0.0,0.0,0.0,0.0,0.0,0.0,0.0,0.0,0.0,0.0,0.0,0.0,0.0,0.0,0.0,0.0,0.0,0.0,0.0,0.0,0.0,0.0,0.0,0.0,0.0,0.0,0.0,0.0,0.0,0.0,0.0,0.0,0.0,0.0,0.0,0.0,0.0,0.0,0.0,0.0,0.0,0.0,0.0,0.0,0.0,0.0,0.0,0.0,0.0,0.0,0.0,0.0,0.0,0.0,0.0,0.0,0.0,0.0,0.0,0.0,0.0,0.0,0.0,0.0,0.0,0.0,0.0,0.0,0.0,0.0,0.0,0.0,0.0,0.0,0.0,0.0,0.0,0.0,0.0,2.5741,2.5631,2.5013,2.4371,0.0,0.0,0.0,0.0,0.0,0.0,0.0,0.0,0.0,0.0,0.0,0.0,0.0,0.0,0.0,0.0,0.0,0.0,0.0,0.0,0.0,0.0,0.0,0.0,0.0,0.0,0.0,0.0,0.0,0.0,0.0,0.0,0.0,0.0,0.0,0.0,0.0,0.0,0.0,0.0,0.0,0.0,0.0,0.0,0.0,0.0,0.0,0.0,0.0,0.0,0.0,0.0,0.0,0.0,0.0,0.0,0.0,0.0,0.0,0.0,0.0,0.0,0.0,0.0,0.0,0.0,0.0,0.0,0.0,0.0,0.0,0.0,0.0,0.0,0.0,0.0,0.0,0.0,0.0,0.0,0.0,0.0,0.0,0.0,0.0,0.0,0.0,0.0,0.0,0.0,0.0,0.0,0.0,0.0,0.0,0.0,0.0,0.0,0.0,0.0,0.0,0.0,0.0,0.0,0.0,0.0,0.0,0.0,0.0,0.0,2.4738,2.4423,2.4255,2.3387,2.2857,2.2804,0.0,0.0,0.0,0.0,0.0,0.0,0.0,0.0,0.0,0.0,0.0,0.0,0.0,0.0,0.0,0.0,0.0,0.0,0.0,0.0,0.0,0.0,0.0,0.0,0.0,0.0,0.0,0.0,0.0,0.0,0.0,0.0,0.0,0.0,0.0,0.0,0.0,0.0,0.0,0.0,0.0,0.0,0.0,0.0,0.0,0.0,0.0,0.0,0.0,0.0,0.0,0.0,0.0,0.0,0.0,0.0,0.0,0.0,0.0,0.0,0.0,0.0,0.0,0.0,0.0,0.0,0.0,0.0,0.0,0.0,0.0,0.0,0.0,0.0,0.0,0.0,0.0,0.0,0.0,0.0,0.0,0.0,0.0,0.0,0.0,0.0,0.0,0.0,0.0,0.0,0.0,0.0,0.0,0.0,0.0,0.0,0.0,0.0,0.0,0.0,0.0,0.0,0.0,0.0,0.0,0.0,0.0,0.0,0.0,2.4709,2.425,2.3783,2.284,2.2277,0.0,0.0,0.0,0.0,0.0,0.0,0.0,0.0,0.0,0.0,0.0,0.0,0.0,0.0,0.0,0.0,0.0,0.0,0.0,0.0,0.0,0.0,0.0,0.0,0.0,0.0,0.0,0.0,0.0,0.0,0.0,0.0,0.0,0.0,0.0,0.0,0.0,0.0,0.0,0.0,0.0,0.0,0.0,0.0,0.0,0.0,0.0,0.0,0.0,0.0,0.0,0.0,0.0,0.0,0.0,0.0,0.0,0.0,0.0,0.0,0.0,0.0,0.0,0.0,0.0,0.0,0.0,0.0,0.0,0.0,0.0,0.0,0.0,0.0,0.0,0.0,0.0,0.0,0.0,0.0,0.0,0.0,0.0,0.0,0.0,0.0,0.0,0.0,0.0,0.0,0.0,0.0,0.0,0.0,0.0,0.0,0.0,0.0,0.0,0.0,0.0,0.0,0.0,0.0,0.0,0.0,0.0,0.0,0.0,2.3255,2.2421,2.1941,2.178,2.0976,2.0503,0.0,0.0,0.0,0.0,0.0,0.0,0.0,0.0,0.0,0.0,0.0,0.0,0.0,0.0,0.0,0.0,0.0,0.0,0.0,0.0,0.0,0.0,0.0,0.0,0.0,0.0,0.0,0.0,0.0,0.0,0.0,0.0,0.0,0.0,0.0,0.0,0.0,0.0,0.0,0.0,0.0,0.0,0.0,0.0,0.0,0.0,0.0,0.0,0.0,0.0,0.0,0.0,0.0,0.0,0.0,0.0,0.0,0.0,0.0,0.0,0.0,0.0,0.0,0.0,0.0,0.0,0.0,0.0,0.0,0.0,0.0,0.0,0.0,0.0,0.0,0.0,0.0,0.0,0.0,0.0,0.0,0.0,0.0,0.0,0.0,0.0,0.0,0.0,0.0,0.0,0.0,0.0,0.0,0.0,0.0,0.0,0.0,0.0,0.0,0.0,0.0,0.0,0.0,0.0,0.0,0.0,0.0,0.0,0.0,2.169,0.0,2.0553,0.0,1.9868,1.9569,0.0,0.0,0.0,0.0,0.0,0.0,0.0,0.0,0.0,0.0,0.0,0.0,0.0,0.0,0.0,0.0,0.0,0.0,0.0,0.0,0.0,0.0,0.0,0.0,0.0,0.0,0.0,0.0,0.0,0.0,0.0,0.0,0.0,0.0,0.0,0.0,0.0,0.0,0.0,0.0,0.0,0.0,0.0,0.0,0.0,0.0,0.0,0.0,0.0,0.0,0.0,0.0,0.0,0.0,0.0,0.0,0.0,0.0,0.0,0.0,0.0,0.0,0.0,0.0,0.0,0.0,0.0,0.0,0.0,0.0,0.0,0.0,0.0,0.0,0.0,0.0,0.0,0.0,0.0,0.0,0.0,0.0,0.0,0.0,0.0,0.0,0.0,0.0,0.0,0.0,0.0,0.0,0.0,0.0,0.0,0.0,0.0,0.0,0.0,0.0,0.0,0.0,0.0,0.0,0.0,0.0,0.0,0.0,2.2177,2.0667,2.0494,2.0258,2.0085,1.9661,1.9498,0.0,0.0,0.0,0.0,0.0,0.0,0.0,0.0,0.0,0.0,0.0,0.0,0.0,0.0,0.0,0.0,0.0,0.0,0.0,0.0,0.0,0.0,0.0,0.0,0.0,0.0,0.0,0.0,0.0,0.0,0.0,0.0,0.0,0.0,0.0,0.0,0.0,0.0,0.0,0.0,0.0,0.0,0.0,0.0,0.0,0.0,0.0,0.0,0.0,0.0,0.0,0.0,0.0,0.0,0.0,0.0,0.0,0.0,0.0,0.0,0.0,0.0,0.0,0.0,0.0,0.0,0.0,0.0,0.0,0.0,0.0,0.0,0.0,0.0,0.0,0.0,0.0,0.0,0.0,0.0,0.0,0.0,0.0,0.0,0.0,0.0,0.0,0.0,0.0,0.0,0.0,0.0,0.0,0.0,0.0,0.0,0.0,0.0,0.0,0.0,0.0,0.0,0.0,0.0,0.0,0.0,0.0,0.0,0.0,1.956,1.8183,1.7705,1.8255,1.7711,1.7678,0.0,0.0,0.0,0.0,0.0,0.0,0.0,0.0,0.0,0.0,0.0,0.0,0.0,0.0,0.0,0.0,0.0,0.0,0.0,0.0,0.0,0.0,0.0,0.0,0.0,0.0,0.0,0.0,0.0,0.0,0.0,0.0,0.0,0.0,0.0,0.0,0.0,0.0,0.0,0.0,0.0,0.0,0.0,0.0,0.0,0.0,0.0,0.0,0.0,0.0,0.0,0.0,0.0,0.0,0.0,0.0,0.0,0.0,0.0,0.0,0.0,0.0,0.0,0.0,0.0,0.0,0.0,0.0,0.0,0.0,0.0,0.0,0.0,0.0,0.0,0.0,0.0,0.0,0.0,0.0,0.0,0.0,0.0,0.0,0.0,0.0,0.0,0.0,0.0,0.0,0.0,0.0,0.0,0.0,0.0,0.0,0.0,0.0,0.0,0.0,0.0,0.0,0.0,0.0,0.0,0.0,0.0,0.0,0.0,1.8073,1.6848,1.6386,1.683,1.6735,1.685,1.7278,0.0,0.0,0.0,0.0,0.0,0.0,0.0,0.0,0.0,0.0,0.0,0.0,0.0,0.0,0.0,0.0,0.0,0.0,0.0,0.0,0.0,0.0,0.0,0.0,0.0,0.0,0.0,0.0,0.0,0.0,0.0,0.0,0.0,0.0,0.0,0.0,0.0,0.0,0.0,0.0,0.0,0.0,0.0,0.0,0.0,0.0,0.0,0.0,0.0,0.0,0.0,0.0,0.0,0.0,0.0,0.0,0.0,0.0,0.0,0.0,0.0,0.0,0.0,0.0,0.0,0.0,0.0,0.0,0.0,0.0,0.0,0.0,0.0,0.0,0.0,0.0,0.0,0.0,0.0,0.0,0.0,0.0,0.0,0.0,0.0,0.0,0.0,0.0,0.0,0.0,0.0,0.0,0.0,0.0,0.0,0.0,0.0,0.0,0.0,0.0,0.0,0.0,0.0,0.0,0.0,0.0,0.0,0.0,1.633,1.636,1.611,1.5662,1.6544,1.6847,0.0,0.0,0.0,0.0,0.0,0.0,0.0,0.0,0.0,0.0,0.0,0.0,0.0,0.0,0.0,0.0,0.0,0.0,0.0,0.0,0.0,0.0,0.0,0.0,0.0,0.0,0.0,0.0,0.0,0.0,0.0,0.0,0.0,0.0,0.0,0.0,0.0,0.0,0.0,0.0,0.0,0.0,0.0,0.0,0.0,0.0,0.0,0.0,0.0,0.0,0.0,0.0,0.0,0.0,0.0,0.0,0.0,0.0,0.0,0.0,0.0,0.0,0.0,0.0,0.0,0.0,0.0,0.0,0.0,0.0,0.0,0.0,0.0,0.0,0.0,0.0,0.0,0.0,0.0,0.0,0.0,0.0,0.0,0.0,0.0,0.0,0.0,0.0,0.0,0.0,0.0,0.0,0.0,0.0,0.0,0.0,0.0,0.0,0.0,0.0,0.0,0.0,0.0,0.0,0.0,0.0,0.0,0.0,0.0,1.558,1.4898,1.4682,1.4888,1.5815,1.6397,0.0,0.0,0.0,0.0,0.0,0.0,0.0,0.0,0.0,0.0,0.0,0.0,0.0,0.0,0.0,0.0,0.0,0.0,0.0,0.0,0.0,0.0,0.0,0.0,0.0,0.0,0.0,0.0,0.0,0.0,0.0,0.0,0.0,0.0,0.0,0.0,0.0,0.0,0.0,0.0,0.0,0.0,0.0,0.0,0.0,0.0,0.0,0.0,0.0,0.0,0.0,0.0,0.0,0.0,0.0,0.0,0.0,0.0,0.0,0.0,0.0,0.0,0.0,0.0,0.0,0.0,0.0,0.0,0.0,0.0,0.0,0.0,0.0,0.0,0.0,0.0,0.0,0.0,0.0,0.0,0.0,0.0,0.0,0.0,0.0,0.0,0.0,0.0,0.0,0.0,0.0,0.0,0.0,0.0,0.0,0.0,0.0,0.0,0.0,0.0,0.0,0.0,0.0,0.0,0.0,0.0,0.0,0.0,1.6918,1.5376,1.4061,1.3587,1.406,1.542,1.6238,0.0,0.0,0.0,0.0,0.0,0.0,0.0,0.0,0.0,0.0,0.0,0.0,0.0,0.0,0.0,0.0,0.0,0.0,0.0,0.0,0.0,0.0,0.0,0.0,0.0,0.0,0.0,0.0,0.0,0.0,0.0,0.0,0.0,0.0,0.0,0.0,0.0,0.0,0.0,0.0,0.0,0.0,0.0,0.0,0.0,0.0,0.0,0.0,0.0,0.0,0.0,0.0,0.0,0.0,0.0,0.0,0.0,0.0,0.0,0.0,0.0,0.0,0.0,0.0,0.0,0.0,0.0,0.0,0.0,0.0,0.0,0.0,0.0,0.0,0.0,0.0,0.0,0.0,0.0,0.0,0.0,0.0,0.0,0.0,0.0,0.0,0.0,0.0,0.0,0.0,0.0,0.0,0.0,0.0,0.0,0.0,0.0,0.0,0.0,0.0,0.0,0.0,0.0,0.0,0.0,0.0,0.0,0.0,1.6636,1.5471,1.3526,1.2762,1.3281,1.5106,1.6102,0.0,0.0,0.0,0.0,0.0,0.0,0.0,0.0,0.0,0.0,0.0,0.0,0.0,0.0,0.0,0.0,0.0,0.0,0.0,0.0,0.0,0.0,0.0,0.0,0.0,0.0,0.0,0.0,0.0,0.0,0.0,0.0,0.0,0.0,0.0,0.0,0.0,0.0,0.0,0.0,0.0,0.0,0.0,0.0,0.0,0.0,0.0,0.0,0.0,0.0,0.0,0.0,0.0,0.0,0.0,0.0,0.0,0.0,0.0,0.0,0.0,0.0,0.0,0.0,0.0,0.0,0.0,0.0,0.0,0.0,0.0,0.0,0.0,0.0,0.0,0.0,0.0,0.0,0.0,0.0,0.0,0.0,0.0,0.0,0.0,0.0,0.0,0.0,0.0,0.0,0.0,0.0,0.0,0.0,0.0,0.0,0.0,0.0,0.0,0.0,0.0,0.0,0.0,0.0,0.0,0.0,0.0,0.0,1.6555,1.4629,1.2965,1.2171,1.2314,1.383,1.5165,0.0,0.0,0.0,0.0,0.0,0.0,0.0,0.0,0.0,0.0,0.0,0.0,0.0,0.0,0.0,0.0,0.0,0.0,0.0,0.0,0.0,0.0,0.0,0.0,0.0,0.0,0.0,0.0,0.0,0.0,0.0,0.0,0.0,0.0,0.0,0.0,0.0,0.0,0.0,0.0,0.0,0.0,0.0,0.0,0.0,0.0,0.0,0.0,1.7978,0.0,0.0,0.0,0.0,0.0,0.0,0.0,0.0,0.0,0.0,0.0,0.0,0.0,0.0,0.0,0.0,0.0,0.0,0.0,0.0,0.0,0.0,0.0,0.0,0.0,0.0,0.0,0.0,0.0,0.0,0.0,0.0,0.0,0.0,0.0,0.0,0.0,0.0,0.0,0.0,0.0,0.0,0.0,0.0,0.0,0.0,0.0,0.0,0.0,0.0,0.0,0.0,0.0,0.0,0.0,0.0,0.0,0.0,0.0,1.6103,1.449,1.2559,1.1671,1.2003,1.2823,1.4152,0.0,0.0,0.0,0.0,0.0,0.0,0.0,0.0,0.0,0.0,0.0,0.0,0.0,0.0,0.0,0.0,0.0,0.0,0.0,0.0,0.0,0.0,0.0,0.0,0.0,0.0,0.0,0.0,0.0,0.0,0.0,0.0,0.0,0.0,0.0,0.0,0.0,0.0,0.0,0.0,0.0,0.0,0.0,0.0,0.0,0.0,0.0,0.0,0.0,0.0,0.0,0.0,0.0,0.0,0.0,0.0,0.0,0.0,0.0,0.0,0.0,0.0,0.0,0.0,0.0,0.0,0.0,0.0,0.0,0.0,0.0,0.0,0.0,0.0,0.0,0.0,0.0,0.0,0.0,0.0,0.0,0.0,0.0,0.0,0.0,0.0,0.0,0.0,0.0,0.0,0.0,0.0,0.0,0.0,0.0,0.0,0.0,0.0,0.0,0.0,0.0,0.0,0.0,0.0,0.0,0.0,0.0,1.6976,1.5548,1.4585,1.2365,1.1435,1.1956,1.2143,1.3248,1.5366,0.0,0.0,0.0,0.0,0.0,0.0,0.0,0.0,0.0,0.0,0.0,0.0,0.0,0.0,0.0,0.0,0.0,0.0,0.0,0.0,0.0,0.0,0.0,0.0,0.0,0.0,0.0,0.0,0.0,0.0,0.0,0.0,0.0,0.0,0.0,0.0,0.0,0.0,1.9958,1.9583,0.0,0.0,0.0,0.0,0.0,0.0,0.0,0.0,1.5972,0.0,0.0,0.0,0.0,0.0,0.0,0.0,0.0,0.0,0.0,0.0,0.0,0.0,0.0,0.0,0.0,0.0,0.0,0.0,0.0,0.0,0.0,0.0,0.0,0.0,0.0,0.0,0.0,0.0,0.0,0.0,0.0,0.0,0.0,0.0,0.0,0.0,0.0,0.0,0.0,0.0,0.0,0.0,0.0,0.0,0.0,0.0,0.0,0.0,0.0,0.0,0.0,0.0,0.0,0.0,0.0,1.8178,1.6786,1.5519,1.4262,1.2721,1.1885,1.1783,1.217,1.2991,1.4283,0.0,0.0,0.0,0.0,0.0,0.0,0.0,0.0,0.0,0.0,0.0,0.0,0.0,0.0,0.0,0.0,0.0,0.0,0.0,0.0,0.0,0.0,0.0,0.0,0.0,0.0,0.0,0.0,0.0,0.0,0.0,0.0,0.0,0.0,0.0,0.0,0.0,0.0,0.0,1.8647,1.7785,0.0,0.0,0.0,0.0,0.0,0.0,0.0,0.0,1.61,0.0,0.0,0.0,0.0,0.0,0.0,0.0,0.0,0.0,0.0,0.0,0.0,0.0,0.0,0.0,0.0,0.0,0.0,0.0,0.0,0.0,0.0,0.0,0.0,0.0,0.0,0.0,0.0,0.0,0.0,0.0,0.0,0.0,0.0,0.0,0.0,0.0,0.0,0.0,0.0,0.0,0.0,0.0,0.0,0.0,0.0,0.0,0.0,0.0,0.0,0.0,0.0,0.0,0.0,0.0,1.8113,1.6838,1.5586,1.4372,1.3132,1.2369,1.2129,1.2517,1.3156,0.0,0.0,0.0,0.0,0.0,0.0,0.0,0.0,0.0,0.0,0.0,0.0,0.0,0.0,0.0,0.0,0.0,0.0,0.0,0.0,0.0,0.0,0.0,0.0,0.0,0.0,0.0,0.0,0.0,0.0,0.0,0.0,0.0,0.0,0.0,0.0,0.0,0.0,0.0,0.0,1.8551,1.7671,1.7278,0.0,0.0,0.0,0.0,0.0,0.0,1.512,1.5573,0.0,0.0,0.0,0.0,0.0,0.0,0.0,0.0,0.0,0.0,0.0,0.0,0.0,0.0,0.0,0.0,0.0,0.0,0.0,0.0,0.0,0.0,0.0,0.0,0.0,0.0,0.0,0.0,0.0,0.0,0.0,0.0,0.0,0.0,0.0,0.0,0.0,0.0,0.0,0.0,0.0,0.0,0.0,0.0,0.0,0.0,0.0,0.0,0.0,0.0,0.0,0.0,0.0,0.0,0.0,1.7936,1.6855,1.5704,1.4475,1.3527,1.294,1.2744,1.2948,1.3452,0.0,0.0,0.0,0.0,0.0,0.0,0.0,0.0,0.0,0.0,0.0,0.0,0.0,0.0,0.0,0.0,0.0,0.0,0.0,0.0,0.0,0.0,0.0,0.0,0.0,0.0,0.0,0.0,0.0,0.0,0.0,0.0,0.0,0.0,0.0,0.0,0.0,0.0,0.0,0.0,0.0,1.7872,1.7435,1.6653,0.0,0.0,0.0,0.0,1.3866,1.4811,0.0,0.0,0.0,0.0,0.0,0.0,0.0,0.0,0.0,0.0,0.0,0.0,0.0,0.0,0.0,0.0,0.0,0.0,0.0,0.0,0.0,0.0,0.0,0.0,0.0,0.0,0.0,0.0,0.0,0.0,0.0,0.0,0.0,0.0,0.0,0.0,0.0,0.0,0.0,0.0,0.0,0.0,0.0,0.0,0.0,0.0,0.0,0.0,0.0,0.0,0.0,0.0,0.0,0.0,0.0,0.0,1.7289,1.6669,1.5708,1.4374,1.3969,1.3646,1.3406,1.3249,1.3551,0.0,0.0,0.0,0.0,0.0,0.0,0.0,0.0,0.0,0.0,0.0,0.0,0.0,0.0,0.0,0.0,0.0,0.0,0.0,0.0,0.0,0.0,0.0,0.0,0.0,0.0,0.0,0.0,0.0,0.0,0.0,0.0,0.0,0.0,0.0,0.0,0.0,0.0,0.0,0.0,0.0,1.8094,1.7094,1.6442,1.5963,0.0,0.0,1.5907,1.598,1.6432,0.0,0.0,0.0,0.0,0.0,0.0,0.0,0.0,0.0,0.0,0.0,0.0,0.0,0.0,0.0,0.0,0.0,0.0,0.0,0.0,0.0,0.0,0.0,0.0,0.0,0.0,0.0,0.0,0.0,0.0,0.0,0.0,0.0,0.0,0.0,0.0,0.0,0.0,0.0,0.0,0.0,0.0,0.0,0.0,0.0,0.0,0.0,0.0,0.0,0.0,0.0,0.0,0.0,0.0,0.0,2.0044,1.8486,1.7205,1.6021,1.4949,1.44,1.4064,1.3968,1.394,1.4287,0.0,0.0,0.0,0.0,0.0,0.0,0.0,0.0,0.0,0.0,0.0,0.0,0.0,0.0,0.0,0.0,0.0,0.0,0.0,0.0,0.0,0.0,0.0,0.0,0.0,0.0,0.0,0.0,0.0,0.0,0.0,0.0,0.0,0.0,0.0,0.0,0.0,0.0,0.0,0.0,0.0,0.0,1.6985,1.6638,0.0,0.0,0.0,1.5951,1.5333,0.0,0.0,0.0,0.0,0.0,0.0,0.0,0.0,0.0,0.0,0.0,0.0,0.0,0.0,0.0,0.0,0.0,0.0,0.0,0.0,0.0,0.0,0.0,0.0,0.0,0.0,0.0,0.0,0.0,0.0,0.0,0.0,0.0,0.0,0.0,0.0,0.0,0.0,0.0,0.0,0.0,0.0,0.0,0.0,0.0,0.0,0.0,0.0,0.0,0.0,0.0,0.0,0.0,0.0,0.0,0.0,0.0,1.9593,1.7916,1.6653,1.5792,1.5076,1.4719,1.4754,1.4812,0.0,0.0,0.0,0.0,0.0,0.0,0.0,0.0,0.0,0.0,0.0,0.0,0.0,0.0,0.0,0.0,0.0,0.0,0.0,0.0,0.0,0.0,0.0,0.0,0.0,0.0,0.0,2.4282,0.0,0.0,0.0,0.0,0.0,0.0,0.0,0.0,0.0,0.0,0.0,0.0,0.0,0.0,1.7852,1.7497,1.707,1.6523,0.0,0.0,1.5821,1.4923,1.5691,1.6111,0.0,0.0,0.0,0.0,0.0,0.0,0.0,0.0,0.0,0.0,0.0,0.0,0.0,0.0,0.0,0.0,0.0,0.0,0.0,0.0,0.0,0.0,0.0,0.0,0.0,0.0,0.0,0.0,0.0,0.0,0.0,0.0,0.0,0.0,0.0,0.0,0.0,0.0,0.0,0.0,0.0,0.0,0.0,0.0,0.0,0.0,0.0,0.0,0.0,0.0,0.0,0.0,0.0,0.0,0.0,1.9865,1.8682,1.7659,1.6814,1.6188,1.5911,1.5865,1.5915,1.5798,0.0,0.0,0.0,0.0,0.0,0.0,0.0,0.0,0.0,0.0,0.0,0.0,0.0,0.0,0.0,0.0,0.0,0.0,0.0,0.0,0.0,0.0,0.0,0.0,0.0,0.0,0.0,0.0,0.0,0.0,0.0,0.0,0.0,0.0,0.0,0.0,0.0,0.0,0.0,0.0,0.0,1.9574,1.8927,1.7991,1.7237,0.0,1.6076,1.5542,1.5747,1.6111,1.6155,1.5484,0.0,0.0,0.0,0.0,0.0,0.0,0.0,0.0,0.0,0.0,0.0,0.0,0.0,0.0,0.0,0.0,0.0,0.0,0.0,0.0,0.0,0.0,0.0,0.0,0.0,0.0,0.0,0.0,0.0,0.0,0.0,0.0,0.0,0.0,0.0,0.0,0.0,0.0,0.0,0.0,0.0,0.0,0.0,0.0,0.0,0.0,0.0,0.0,0.0,0.0,0.0,0.0,0.0,2.0895,2.0536,1.9225,1.8213,1.7549,1.6847,1.6521,1.6521,1.677,1.6829,0.0,0.0,0.0,0.0,0.0,0.0,0.0,0.0,0.0,0.0,0.0,0.0,0.0,0.0,0.0,0.0,0.0,0.0,0.0,0.0,0.0,0.0,0.0,0.0,0.0,0.0,0.0,0.0,2.507,2.4861,2.4491,0.0,0.0,0.0,0.0,0.0,0.0,0.0,0.0,0.0,0.0,1.9224,1.882,1.8399,0.0,0.0,1.6972,1.6473,1.638,1.604,1.5871,1.6144,1.5903,0.0,0.0,0.0,0.0,0.0,0.0,0.0,0.0,0.0,0.0,0.0,0.0,0.0,0.0,0.0,0.0,0.0,0.0,0.0,0.0,0.0,0.0,0.0,0.0,0.0,0.0,0.0,0.0,0.0,0.0,0.0,0.0,0.0,0.0,0.0,0.0,0.0,0.0,0.0,0.0,0.0,0.0,0.0,0.0,0.0,0.0,0.0,0.0,0.0,0.0,0.0,0.0,2.1264,2.1133,1.9802,1.8859,1.8337,1.7679,1.7357,1.7357,1.7604,1.7671,0.0,0.0,0.0,0.0,0.0,0.0,0.0,0.0,0.0,0.0,0.0,0.0,0.0,0.0,0.0,0.0,0.0,0.0,0.0,0.0,0.0,0.0,0.0,0.0,0.0,0.0,0.0,0.0,2.5227,2.4835,2.4413,0.0,0.0,0.0,0.0,0.0,0.0,0.0,0.0,0.0,0.0,1.9583,1.9376,1.9155,1.8838,1.8439,1.7852,1.7358,1.7098,1.6591,1.6386,1.6984,0.0,0.0,0.0,0.0,0.0,0.0,0.0,0.0,0.0,0.0,0.0,0.0,0.0,0.0,0.0,0.0,0.0,0.0,0.0,0.0,0.0,0.0,0.0,0.0,0.0,0.0,0.0,3.1659,0.0,0.0,3.1513,0.0,0.0,0.0,0.0,0.0,0.0,0.0,0.0,0.0,0.0,0.0,0.0,0.0,0.0,0.0,0.0,0.0,0.0,0.0,0.0,0.0,0.0,2.1415,2.1372,2.051,1.9856,1.9391,1.8869,1.8596,1.8596,1.8579,1.8237,1.7557,0.0,0.0,0.0,0.0,0.0,0.0,0.0,0.0,0.0,0.0,0.0,0.0,0.0,0.0,0.0,0.0,0.0,0.0,0.0,0.0,0.0,0.0,0.0,0.0,0.0,0.0,2.5097,2.4992,2.4992,0.0,0.0,0.0,0.0,0.0,0.0,0.0,0.0,0.0,0.0,2.1077,2.1056,2.1106,2.043,1.9747,1.935,1.8536,1.7974,1.7974,1.7957,1.7957,0.0,0.0,0.0,0.0,0.0,0.0,0.0,0.0,0.0,0.0,0.0,0.0,0.0,0.0,0.0,0.0,0.0,0.0,0.0,0.0,0.0,0.0,0.0,0.0,0.0,0.0,0.0,3.2647,3.2836,0.0,0.0,0.0,0.0,0.0,0.0,0.0,0.0,0.0,0.0,0.0,2.9626,2.9463,0.0,0.0,0.0,0.0,0.0,0.0,0.0,0.0,0.0,0.0,0.0,0.0,2.1924,2.1847,2.158,2.1134,2.06,2.0426,2.031,2.031,2.031,2.0003,1.9374,0.0,0.0,0.0,0.0,0.0,0.0,0.0,0.0,0.0,0.0,0.0,0.0,0.0,0.0,0.0,0.0,0.0,0.0,0.0,0.0,0.0,0.0,0.0,0.0,0.0,2.5589,0.0,0.0,0.0,0.0,0.0,0.0,0.0,0.0,0.0,0.0,0.0,2.2625,2.2693,2.292,2.2834,2.2096,2.1756,2.1322,0.0,0.0,0.0,0.0,0.0,0.0,0.0,0.0,0.0,0.0,0.0,0.0,0.0,0.0,1.9202,1.8638,1.8175,1.7806,1.7396,0.0,0.0,0.0,0.0,0.0,0.0,0.0,0.0,0.0,0.0,0.0,0.0,0.0,0.0,3.3732,3.4052,3.3418,0.0,0.0,0.0,0.0,0.0,0.0,0.0,0.0,3.0792,3.0949,3.1116,3.1015,3.0847,0.0,3.0283,2.9335,0.0,0.0,0.0,0.0,0.0,0.0,0.0,0.0,2.2475,2.2117,2.2101,2.1797,2.1242,2.1203,2.1203,2.1203,2.1203,2.104,2.0687,2.0612,2.0669,0.0,0.0,0.0,0.0,0.0,0.0,0.0,0.0,0.0,0.0,0.0,0.0,0.0,0.0,0.0,0.0,0.0,0.0,0.0,0.0,0.0,0.0,0.0,2.5667,0.0,0.0,0.0,0.0,0.0,0.0,0.0,0.0,0.0,2.3492,2.3675,2.3863,2.3999,2.4076,2.3886,2.3288,0.0,0.0,0.0,0.0,0.0,0.0,0.0,1.9254,2.0061,2.0005,2.0024,2.0508,2.0605,2.0605,2.0605,0.0,0.0,1.92,1.8749,1.8266,1.7565,1.7117,1.6504,1.5498,1.515,1.4687,0.0,0.0,0.0,0.0,0.0,0.0,0.0,0.0,3.537,3.5267,0.0,3.4083,0.0,0.0,0.0,0.0,3.1676,3.2812,0.0,0.0,3.3097,3.31,3.2576,3.2544,3.2259,3.1801,3.2139,3.1394,2.9629,2.8131,0.0,0.0,0.0,0.0,0.0,0.0,2.2964,2.2252,2.2214,2.1873,2.1318,2.128,2.128,2.128,2.128,2.1343,2.1413,2.1007,2.1343,2.2628,2.1756,0.0,0.0,0.0,0.0,0.0,0.0,0.0,0.0,0.0,0.0,0.0,0.0,0.0,0.0,0.0,0.0,0.0,0.0,0.0,0.0,2.5855,0.0,0.0,0.0,0.0,0.0,0.0,0.0,0.0,0.0,0.0,2.4769,2.4589,2.4671,2.5024,0.0,0.0,0.0,0.0,2.3195,2.2209,2.1945,2.1586,2.0819,2.1318,2.1773,2.1794,0.0,0.0,2.0818,2.0722,2.0722,2.0683,2.0177,1.9658,1.9676,1.9143,1.8599,1.8359,1.7566,1.6846,1.6489,1.6085,1.5561,3.9988,0.0,0.0,0.0,0.0,3.6623,3.7218,3.8081,3.7446,3.7197,3.7186,3.6353,0.0,0.0,0.0,0.0,0.0,0.0,3.3719,3.3512,3.3589,3.3693,3.3761,3.3794,3.3694,3.3561,3.3235,3.2819,3.2249,3.0998,2.9214,2.6897,0.0,0.0,0.0,0.0,2.4576,2.3986,2.3694,2.3254,2.274,2.2569,2.2456,2.2494,2.2456,2.2504,2.2546,2.2672,2.2942,2.3375,2.3861,0.0,0.0,0.0,0.0,0.0,0.0,0.0,0.0,0.0,0.0,0.0,0.0,0.0,0.0,0.0,0.0,0.0,0.0,0.0,2.6482,2.6879,2.7177,0.0,0.0,0.0,0.0,0.0,0.0,0.0,0.0,0.0,2.6827,2.6291,2.5936,0.0,0.0,2.5595,2.4991,2.4729,2.4282,2.347,2.3042,0.0,2.2751,2.2686,2.266,2.266,2.266,2.2585,2.236,2.2322,2.2322,2.2285,2.142,2.0548,2.0099,1.9192,1.8414,1.8024,1.762,1.7221,1.6846,1.6649,1.6368,4.2322,4.0994,3.9193,3.8582,3.8832,3.8555,3.9055,4.0001,3.932,3.9178,3.9345,3.8403,3.7494,3.659,3.5731,0.0,0.0,0.0,3.5187,3.5118,3.5023,3.5138,3.5337,3.5272,3.5142,3.4916,3.443,3.3944,3.3485,3.2717,3.1349,2.9323,0.0,0.0,2.6424,2.5951,2.5533,2.517,2.4898,2.4612,2.4276,2.4168,2.4223,2.4443,2.4466,2.4595,2.4816,2.5061,2.5205,2.5317,2.5716,2.6001,0.0,0.0,0.0,0.0,0.0,0.0,0.0,0.0,0.0,0.0,0.0,2.8114,2.6491,0.0,0.0,0.0,2.7036,2.7233,2.7506,2.7925,0.0,0.0,0.0,0.0,0.0,0.0,0.0,2.9549,2.8951,2.8365,2.8141,2.7729,2.724,2.687,2.6625,2.6342,2.598,0.0,2.5207,2.4448,2.3985,2.3615,2.3442,2.3431,2.3415,2.3438,2.3415,2.3305,2.3032,2.2995,2.2995,2.2892,2.2026,2.1153,2.0807,1.9768,1.8637,1.7772,1.7469,1.7271,1.6945,1.6908,1.6733,4.4113,4.4484,4.2104,4.1377,4.1783,4.1193,4.1185,4.1525,4.0956,4.0988,4.1399,4.0198,3.9566,3.9282,3.7868,0.0,3.6213,3.6809,3.6998,3.703,3.703,3.6999,3.6969,3.6816,3.6445,3.5976,3.5657,3.4974,3.3959,3.3703,3.3284,3.2579,3.0234,2.8422,2.7291,2.6696,2.6233,2.6025,2.5941,2.5847,2.5777,2.5861,2.6167,2.667,2.6719,2.7027,2.7569,2.7631,2.7734,2.7892,2.7396,2.7189,2.7338,0.0,0.0,0.0,0.0,0.0,0.0,0.0,0.0,0.0,0.0,0.0,0.0,0.0,0.0,0.0,2.8857,0.0,2.8928,2.902,0.0,0.0,0.0,2.839,2.8745,2.8923,2.909,2.9254,0.0,0.0,2.8935,2.8899,2.8508,2.7538,2.6974,2.6813,2.7284,2.6731,2.6015,2.5218,2.4779,2.4289,2.3717,2.3913,2.4181,2.4181,2.4204,2.3963,2.3415,2.3187,2.315,2.3202,2.2248,2.152,2.152,2.054,1.9333,1.7784,1.7373,1.7254,1.6994,1.6908,1.6764,4.4591,4.4721,4.4588,4.3754,4.2462,4.2336,4.1994,4.1588,4.143,4.1178,4.0831,4.0957,4.0672,4.0005,3.9369,3.856,3.7773,3.7621,3.7389,3.718,3.718,3.7089,3.6999,3.6938,3.6877,3.6754,3.6662,3.6384,3.5982,3.5543,3.4863,3.3984,3.2483,3.1273,3.0378,2.9302,2.8388,2.7773,2.7028,2.6389,2.5836,2.6241,2.6547,2.6695,2.7162,2.747,2.7594,2.7875,2.8261,2.8669,2.8464,2.8504,2.8903,2.7769,0.0,0.0,0.0,0.0,0.0,0.0,0.0,0.0,0.0,3.0073,2.7835,0.0,2.9605,0.0,2.9493,2.9958,3.0426,3.0836,0.0,0.0,3.199,3.2196,3.2283,3.1869,3.1603,3.1661,3.1189,3.0598,3.0025,2.9718,2.9275,2.8541,2.821,2.7888,2.7546,2.7333,2.6892,2.6094,2.5816,2.5606,2.5123,2.5016,2.5016,2.5016,2.5016,2.4945,2.4767,2.4413,2.4143,2.4073,2.2833,2.1934,2.1832,2.0852,1.9922,1.9267,1.8536,1.7779,1.727,1.7028,1.6798,4.5333,4.5658,4.6419,4.5897,4.4495,4.3848,4.3363,4.2975,4.2588,4.2232,4.1909,4.2246,4.195,4.1271,4.1045,4.0282,3.9219,3.8967,3.8577,3.8084,3.8084,3.794,3.7682,3.7567,3.7389,3.718,3.706,3.6938,3.6816,3.6538,3.6137,3.5614,3.4722,3.3945,3.3242,3.1087,2.9748,2.9333,2.8762,2.8305,2.7989,2.8195,2.8376,2.8341,2.8954,2.9109,2.8841,2.9314,2.9459,2.9239,2.9369,2.9471,2.949,2.9146,2.891,0.0,0.0,0.0,0.0,0.0,0.0,0.0,0.0,0.0,0.0,0.0,3.1116,3.0983,3.16,3.2104,3.2317,3.2614,3.2792,3.2734,3.2946,3.2946,3.2677,3.2258,3.2049,3.2049,3.1662,3.1219,3.0807,3.0598,3.0267,2.9777,2.9594,2.9156,2.8195,2.794,2.7769,2.7304,2.7162,2.6858,2.6277,2.601,2.5767,2.5476,2.5359,2.5324,2.53,2.4832,2.4496,2.4424,2.3333,2.2394,2.2371,2.1684,2.0924,2.043,1.9857,1.9036,1.8003,1.7628,1.7309,4.5945,4.6575,4.74,4.7464,4.6897,4.5557,4.4897,4.4649,4.3827,4.3525,4.3647,4.3614,4.3273,4.2722,4.2665,4.1904,4.0579,4.0364,3.9972,3.9355,3.9222,3.9001,3.8585,3.8339,3.7969,3.7535,3.73,3.7121,3.706,3.6967,3.6937,3.6969,3.6353,3.5919,3.5543,3.2583,3.0952,3.0655,3.0557,3.0667,3.0908,3.0733,3.0692,3.0802,3.1267,3.1322,3.0802,3.1267,3.1048,3.0102,3.0485,3.0556,3.0055,3.0475,3.0719,0.0,3.062,0.0,0.0,0.0,0.0,0.0,0.0,0.0,0.0,3.2118,3.2682,3.3146,3.396,3.4387,3.412,3.4121,3.3848,3.3064,3.2856,3.2527,3.1869,3.169,3.163,3.163,3.157,3.1453,3.1307,3.1336,3.1161,3.0836,3.0747,3.0237,2.9097,2.8716,2.8588,2.8524,2.833,2.7749,2.7048,2.6721,2.6443,2.5877,2.5644,2.5473,2.5581,2.5071,2.459,2.4449,2.3675,2.2935,2.2903,2.2455,2.198,2.1368,2.1092,2.0494,1.909,1.8523,1.8014,4.522,4.545,4.6693,4.7505,4.784,4.6955,4.5858,4.4649,4.3827,4.3823,4.4316,4.4316,4.4156,4.3939,4.362,4.2895,4.1883,4.0896,4.0346,4.0078,3.9454,3.9135,3.9055,3.9001,3.8756,3.8278,3.8141,3.7796,3.7328,3.6644,3.6588,3.6968,3.5787,3.5388,3.5825,0.0,0.0,0.0,3.1286,3.1567,3.2141,3.2073,3.2299,3.2819,3.2868,0.0,3.2782,3.2896,3.2839,3.261,3.2745,0.0,0.0,0.0,0.0,0.0,0.0,0.0,0.0,0.0,0.0,0.0,3.3312,3.267,3.229,3.3367,3.4108,3.4201,3.4383,3.4475,3.4417,3.4728,3.4668,3.3909,3.4061,3.3998,3.3246,3.2647,3.2318,3.2288,3.1839,3.1511,3.1482,3.1395,3.1278,3.122,3.1102,3.0895,3.0417,2.9777,2.9188,2.862,2.8373,2.798,2.7328,2.7029,2.6804,2.6413,2.6308,2.6355,2.6511,2.5785,2.5016,2.4673,2.3677,2.2831,2.2459,2.2246,2.2197,2.1987,2.1956,2.1494,1.9911,1.9399,1.8878,4.5998,4.6095,4.7155,4.7782,0.0,4.7314,4.6562,4.5762,4.493,4.4735,4.5042,4.4961,4.4944,4.4915,4.4654,4.405,4.3245,4.2252,4.1578,4.1094,4.0358,3.9952,3.9722,3.9636,3.9342,3.8941,3.8805,3.859,3.8278,3.787,3.7625,3.7484,3.6773,3.6584,3.6854,3.6515,3.5326,3.3333,3.324,3.3382,3.378,3.3648,3.3586,3.3648,3.3908,0.0,0.0,0.0,0.0,0.0,0.0,0.0,0.0,0.0,0.0,3.3481,3.319,3.3326,3.3913,3.3612,3.3841,3.4844,3.5159,3.5058,3.4404,3.5285,3.602,3.634,3.6371,3.6245,3.59,3.5949,3.5613,3.4588,3.4543,3.4222,3.3233,3.2751,3.2394,3.2018,3.172,3.1511,3.1511,3.1453,3.1395,3.1307,3.1219,3.1132,3.0955,3.0538,2.9907,2.9169,2.8991,2.8552,2.7635,2.7315,2.7116,2.695,2.6807,2.6915,2.7267,2.6603,2.5762,2.5135,2.4298,2.3502,2.2714,2.2543,2.2482,2.2259,2.2197,2.1987,2.1092,2.0558,1.9911,4.6864,4.6934,4.7526,4.7875,4.791,4.7178,4.6839,4.6778,0.0,0.0,0.0,4.5459,4.5459,4.5425,4.5433,4.5105,4.4475,4.3586,4.2861,4.2171,4.1309,4.0728,4.0421,4.022,3.9944,3.9558,3.9401,3.9229,3.9017,3.8858,3.8467,3.7852,3.7713,3.7635,3.7636,3.7783,3.7141,3.5759,3.5278,3.5214,3.5404,3.5153,3.4852,3.4468,3.4822,3.4554,3.3573,3.3991,3.405,3.3574,3.4182,3.4393,3.4182,3.5389,3.6025,3.5751,3.5808,3.5898,3.6023,3.5894,3.5832,3.5932,3.6998,3.7376,3.6794,3.7214,3.7718,3.8274,3.8181,3.7829,3.7252,3.6915,3.6221,3.4941,3.4701,3.416,3.2993,3.2734,3.252,3.1936,3.1881,3.1768,3.1682,3.1682,3.1567,3.1394,3.1336,3.1278,3.1132,3.0925,3.0454,2.9695,2.9492,2.9087,2.7995,2.7537,2.7411,2.7257,2.7232,2.74,2.7643,2.7408,2.6744,2.5887,2.5179,2.4304,2.3336,2.306,2.2909,2.2543,2.2359,2.2297,2.2235,2.1683,2.091,4.6305,4.634,4.642,4.6866,4.7452,4.6655,4.6265,4.6104,4.5873,4.5405,4.4848,4.5483,4.5379,4.4848,4.5346,4.5511,4.5304,4.3878,4.3138,4.2965,4.1585,4.0871,4.0799,4.0799,4.0583,4.0188,3.9969,3.9378,3.8443,3.7709,3.7209,3.7026,3.6489,3.6489,3.7041,3.7656,3.7847,3.7588,3.6432,3.6132,3.6723,3.6135,3.6073,3.6538,3.6073,3.5794,3.5577,3.567,3.567,3.5577,3.6225,3.6318,3.5758,3.6311,3.6398,3.5879,3.6276,3.6796,3.7362,3.7377,3.7584,3.8033,3.8716,3.8776,3.8121,3.8088,3.8209,3.8274,3.7788,3.7316,3.7155,3.6605,3.5899,3.4987,3.4806,3.4418,3.3559,3.3365,3.3235,3.305,3.3024,3.2734,3.2355,3.2272,3.2107,3.1625,3.1567,3.1423,3.1307,3.0984,3.0484,2.9842,2.961,2.9059,2.7935,2.7647,2.7511,2.723,2.7653,2.8013,2.833,2.8324,2.7867,2.6837,2.6055,2.5166,2.3998,2.3577,2.3458,2.331,2.3035,2.2818,2.2787,2.2359,2.1745,4.66,4.6214,4.6214,4.6389,4.6705,4.6354,4.6189,4.6115,4.6065,4.578,4.5416,4.5271,4.5271,4.5391,4.5196,4.5354,4.5641,4.4089,4.337,4.3266,4.1775,4.1035,4.1023,4.1023,4.0905,4.0607,4.0524,4.0231,3.9719,3.9297,3.8706,3.7845,3.7123,3.6804,3.688,3.7534,3.7778,3.7525,3.7655,3.7907,3.8169,3.7907,3.7733,3.7825,3.7451,3.715,3.6947,3.7118,3.7262,3.7262,3.7866,3.8012,3.7601,3.7936,3.7938,3.7525,3.7734,3.8025,3.8327,3.8606,3.8975,3.9518,3.9446,3.9438,3.9525,3.9375,3.9103,3.8738,3.8347,3.7816,3.7061,3.6688,3.6166,3.5307,3.5232,3.493,3.4292,3.4103,3.3928,3.3598,3.3469,3.3287,3.2975,3.2949,3.2841,3.2461,3.2216,3.1908,3.1766,3.1365,3.066,2.9577,2.9258,2.8647,2.7571,2.7256,2.7265,2.739,2.7734,2.8053,2.8424,2.8707,2.8443,2.767,2.7074,2.6337,2.5157,2.4522,2.4157,2.3725,2.3488,2.3305,2.3245,2.2909,2.2389,4.7046,4.646,4.6372,4.6423,4.6507,4.6542,4.6542,4.6542,4.6507,4.6435,4.6244,4.5425,4.5232,4.5446,4.5137,4.5202,4.5376,4.4133,4.3482,4.3343,4.1905,4.1163,4.114,4.114,4.1059,4.0989,4.0965,4.0896,4.0723,4.0747,3.9928,3.8476,3.7659,3.7072,3.6763,3.7398,3.755,3.7306,3.8413,3.8961,3.8692,3.8699,3.8572,3.8379,3.8111,3.789,3.7773,3.7922,3.7991,3.7986,3.8426,3.8613,3.85,3.8745,3.8823,3.8685,3.8923,3.9101,3.9128,3.958,4.0002,4.0246,3.9918,3.9918,4.0383,4.0313,3.9951,3.9393,3.9082,3.8507,3.757,3.7155,3.6738,3.5994,3.5893,3.5597,3.4968,3.4807,3.4649,3.4103,3.4003,3.3928,3.37,3.3624,3.3495,3.3182,3.2868,3.2516,3.2324,3.1962,3.1196,3.0161,2.947,2.8636,2.7325,2.7129,2.7224,2.752,2.7637,2.7845,2.8224,2.8656,2.8655,2.7997,2.7853,2.7169,2.621,2.554,2.4955,2.4445,2.4047,2.3754,2.3577,2.3305,2.2848,4.7387,4.7226,4.6992,4.7071,4.7421,4.7442,4.7442,4.7442,4.7464,4.7464,4.7299,4.6484,4.5337,4.4366,4.5355,4.5575,4.5051,4.3972,4.353,4.3356,4.1905,4.1209,4.1186,4.1186,4.1186,4.1163,4.1163,4.085,4.0294,4.0247,3.9412,3.7916,3.7012,3.6617,3.6609,3.7193,3.7507,3.745,3.8253,3.8167,3.7176,3.71,3.743,3.8031,3.7378,3.732,3.7867,3.7352,3.7023,3.7023,3.7133,3.7158,3.7184,3.7635,3.7937,3.7971,3.8979,3.9604,3.9673,4.0339,4.0418,3.9763,4.0209,4.0494,4.0534,4.0451,4.0377,4.0084,3.9451,3.8928,3.8792,3.8159,3.7449,3.6795,3.6694,3.6377,3.5745,3.5441,3.5383,3.536,3.5128,3.492,3.4431,3.4309,3.4053,3.3598,3.3313,3.313,3.3082,3.2917,3.2587,3.1799,3.0864,2.9296,2.778,2.7556,2.7588,2.7193,2.7347,2.761,2.7871,2.8219,2.848,2.7909,2.7882,2.7542,2.6722,2.6162,2.6077,2.5216,2.4685,2.4253,2.3758,2.3555,2.3174,4.9444,4.9,4.8299,4.7876,4.7627,4.7611,4.7611,4.7611,4.7611,4.7611,4.7569,4.7182,4.6668,4.6118,4.6208,4.6315,4.64,4.5404,4.4643,4.4092,4.2831,4.1913,4.1358,4.1335,4.1277,4.1209,4.1209,4.1035,4.0722,4.0326,3.956,3.8516,3.7673,3.7075,3.6692,3.6894,3.7047,3.7047,3.7359,3.7249,3.6944,3.7545,3.7932,3.795,3.7617,3.7411,3.7469,3.7444,3.7434,3.7459,3.7715,3.7882,3.7882,3.8127,3.8265,3.83,3.8757,3.925,3.9664,4.0008,4.0227,4.0283,4.018,4.0259,4.0659,4.0244,4.0069,4.0339,3.9657,3.8957,3.855,3.8139,3.7787,3.7516,3.7449,3.7313,3.7019,3.6546,3.6264,3.623,3.5813,3.5406,3.5118,3.4977,3.4778,3.4415,3.4086,3.3841,3.3764,3.3449,3.2924,3.2367,3.1991,3.111,2.9316,2.8573,2.8248,2.7697,2.7283,2.7171,2.7314,2.7694,2.7985,2.7642,2.7818,2.7736,2.7167,2.6517,2.6213,2.5517,2.5049,2.4477,2.3495,2.3514,2.3358,5.1063,5.0466,4.9679,4.8976,4.8347,4.8307,4.8141,4.7959,4.7959,4.7979,4.7999,4.7979,4.7979,4.7886,4.7118,4.6959,4.7135,4.6419,4.5566,4.4707,4.3722,4.2725,4.1845,4.1774,4.1687,4.1534,4.1512,4.1436,4.1253,4.0555,3.9927,3.9334,3.8579,3.7896,3.7387,3.7123,3.6998,3.6998,3.6824,3.6719,3.6817,3.7594,3.8033,3.7934,3.7626,3.735,3.7259,3.736,3.7375,3.7398,3.7762,3.7974,3.7974,3.7996,3.8043,3.8284,3.8513,3.8836,3.9353,3.9767,4.0181,4.048,4.0204,4.025,4.0629,4.0259,4.0143,4.059,4.0055,3.9364,3.8898,3.8666,3.855,3.8381,3.8265,3.8207,3.796,3.7428,3.7077,3.7043,3.6681,3.6219,3.6161,3.6078,3.5971,3.5852,3.5274,3.4775,3.4652,3.4223,3.3558,3.3083,3.3411,3.2679,3.0882,3.014,2.9355,2.8587,2.8081,2.768,2.7214,2.7492,2.7542,2.7394,2.7547,2.7523,2.7155,2.6673,2.6226,2.5497,2.5031,2.4626,2.3683,2.3688,2.3474,5.1463,5.138,5.0916,5.049,5.0167,4.9969,4.9525,4.8859,4.8803,4.891,4.8927,4.8838,4.891,4.891,4.8004,4.7161,4.6581,4.6509,4.6033,4.5233,4.4417,4.3549,4.2789,4.2734,4.2616,4.2297,4.2175,4.1966,4.1578,4.0889,4.0446,4.0362,3.954,3.9035,3.8825,3.8147,3.7749,3.7735,3.7213,3.6809,3.6789,3.6858,3.7325,3.7783,3.7005,3.6899,3.7361,3.6801,3.6414,3.6379,3.649,3.6477,3.6456,3.6512,3.6891,3.7547,3.8237,3.8629,3.8893,3.9963,4.0515,4.0043,4.0422,4.0825,4.086,4.0767,4.0767,4.0871,4.0659,4.0436,4.0295,4.0085,3.9914,3.9402,3.918,3.886,3.8214,3.8085,3.7889,3.7855,3.7686,3.7527,3.7662,3.7701,3.7461,3.7244,3.6779,3.6257,3.6085,3.5499,3.5006,3.4859,3.4631,3.3916,3.1681,3.1206,3.0917,2.9999,2.9229,2.899,2.8246,2.763,2.7416,2.728,2.758,2.7559,2.7137,2.6748,2.6361,2.583,2.5272,2.4699,2.4063,2.3877,2.365,5.292,5.24,5.2215,5.1784,5.1143,5.0532,5.0142,4.9806,4.9301,4.9131,4.9148,4.9115,4.9131,4.9148,4.8783,4.8384,4.7997,4.781,4.7236,4.6411,4.5889,4.4917,4.3662,4.3589,4.3206,4.2693,4.2599,4.2521,4.2382,4.2076,4.1737,4.1232,4.0729,4.0197,3.9636,3.913,3.8845,3.8762,3.8461,3.8356,3.8321,3.8356,3.8496,3.865,3.7387,3.6762,3.704,3.6721,3.6561,3.6561,3.6561,3.6561,3.6596,3.6998,3.7303,3.762,3.8291,3.8891,3.9307,3.9802,4.0273,4.0515,4.0722,4.0894,4.0894,4.0894,4.0894,4.0871,4.0847,4.0799,4.0728,4.0607,4.0407,4.0144,4.0051,3.9924,3.9593,3.9122,3.872,3.8628,3.8309,3.7922,3.799,3.7874,3.7793,3.7687,3.7436,3.7254,3.7014,3.6439,3.588,3.5823,3.5395,3.4717,3.4003,3.2878,3.2091,3.0903,3.0005,2.937,2.8662,2.8484,2.8272,2.789,2.7991,2.7846,2.7471,2.6747,2.6393,2.6,2.5472,2.5086,2.4597,2.4283,2.4053,5.3988,5.3412,5.334,5.2873,5.2068,5.1456,5.0878,5.0393,4.9849,4.9475,4.9284,4.923,4.9193,4.9246,4.9193,4.9148,4.8959,4.8695,4.8162,4.7334,4.7058,4.6194,4.5004,4.4821,4.4327,4.3488,4.3031,4.2847,4.281,4.281,4.252,4.2049,4.1806,4.1439,4.0876,4.0451,4.0111,3.9914,3.9655,3.9417,3.9405,3.9322,3.9322,3.9161,3.816,3.7379,3.7129,3.6844,3.6719,3.6719,3.6719,3.6824,3.7067,3.7784,3.8125,3.8165,3.8803,3.9383,3.9801,4.0055,4.0435,4.0943,4.1012,4.0989,4.1,4.0976,4.0953,4.0894,4.0894,4.0894,4.0871,4.0728,4.0631,4.0631,4.0583,4.0558,4.0524,3.9993,3.9681,3.9555,3.9151,3.8773,3.8647,3.8657,3.8642,3.8477,3.8308,3.8057,3.7907,3.7119,3.6458,3.639,3.5703,3.5242,3.4778,3.4092,3.3436,3.2321,3.1574,3.064,2.9619,2.943,2.9108,2.8668,2.8343,2.8149,2.7659,2.6891,2.6428,2.6117,2.5774,2.5398,2.4998,2.4632,2.4462,5.4409,5.4317,5.4306,5.3746,5.3035,5.2779,5.1904,5.0763,5.0409,4.9973,4.9514,4.9262,4.9279,4.9273,4.9262,4.9214,4.9181,4.9081,4.8624,4.7833,4.7742,4.7316,4.6446,4.6409,4.581,4.4793,4.3633,4.305,4.3068,4.3014,4.2923,4.2848,4.2795,4.2685,4.272,4.1958,4.1502,4.1127,4.049,3.9957,3.9585,3.9664,3.9658,3.9525,3.9364,3.888,3.8111,3.7289,3.6948,3.6879,3.6879,3.7088,3.784,3.8593,3.9025,3.9108,3.97,4.006,4.02,4.0734,4.1024,4.1163,4.1186,4.1117,4.1117,4.1093,4.1047,4.0965,4.0918,4.0918,4.0894,4.0894,4.0871,4.0871,4.0752,4.0714,4.0655,4.0583,4.0476,4.0358,4.0158,4.0254,4.0229,3.9951,3.9774,3.9706,3.9377,3.898,3.8821,3.7802,3.6845,3.6585,3.6145,3.5616,3.5379,3.5108,3.4559,3.3932,3.3439,3.2662,3.1283,3.0693,3.0325,2.9887,2.9187,2.8941,2.8687,2.7942,2.7245,2.6857,2.6326,2.5979,2.5679,2.5396,2.4933,5.4409,5.4409,5.4375,5.4207,5.387,5.3365,5.2765,5.2203,5.1153,5.0494,5.0156,4.9652,4.9427,4.9443,4.9427,4.938,4.9257,4.9209,4.9048,4.8758,4.8742,4.8294,4.7676,4.7527,4.7047,4.611,4.518,4.4691,4.4547,4.4087,4.3823,4.3812,4.3543,4.337,4.3264,4.2814,4.2485,4.2298,4.2025,4.1859,4.1782,4.1724,4.1626,4.137,4.0862,4.0273,3.9792,3.8929,3.8517,3.8447,3.8482,3.8587,3.8937,3.9588,3.9966,3.9984,4.059,4.0929,4.0861,4.1035,4.1209,4.1209,4.1209,4.1186,4.1163,4.114,4.1175,4.1129,4.1094,4.1105,4.1047,4.1047,4.1092,4.0894,4.0847,4.0823,4.0799,4.0704,4.0583,4.051,4.0461,4.0436,4.0412,4.0313,4.0238,4.0213,3.9926,3.974,3.9571,3.8777,3.828,3.8179,3.7182,3.6202,3.6145,3.5907,3.5379,3.4795,3.4336,3.3802,3.2603,3.1896,3.1518,3.102,3.0288,2.9776,2.9525,2.8965,2.8271,2.7838,2.754,2.715,2.6658,2.6272,2.5903,5.4409,5.4409,5.4409,5.4409,5.4334,5.3862,5.3449,5.3111,5.2135,5.1458,5.1067,5.0616,5.0391,5.0316,5.0091,5.0059,5.0199,4.9712,4.953,4.9632,4.9305,4.8915,4.8392,4.8093,4.7756,4.7121,4.6336,4.5963,4.5873,4.5178,4.4767,4.467,4.4203,4.3892,4.3807,4.361,4.3407,4.3212,4.3122,4.3087,4.2996,4.2941,4.2829,4.2546,4.2073,4.1665,4.137,4.0882,4.0202,3.9561,3.9568,3.9743,3.9814,4.0446,4.088,4.0885,4.1156,4.1413,4.1346,4.1311,4.1346,4.1346,4.1346,4.1323,4.1277,4.1255,4.1324,4.1592,4.1661,4.1743,4.1985,4.2055,4.1973,4.1925,4.1287,4.0963,4.0871,4.0858,4.0786,4.068,4.0607,4.0583,4.0534,4.0461,4.0387,4.0337,4.0263,4.0188,3.9993,3.946,3.9199,3.8802,3.7908,3.7253,3.706,3.6686,3.6189,3.5569,3.5008,3.4282,3.3326,3.3036,3.2735,3.2138,3.144,3.0923,3.0578,2.9863,2.9194,2.8974,2.8668,2.8141,2.7619,2.7412,2.7079,5.4409,5.4409,5.4409,5.4409,5.4409,5.4334,5.3958,5.3374,5.3111,5.2606,5.2043,5.1743,5.178,5.1668,5.1029,5.1104,5.1501,5.0488,5.0075,5.0231,4.9851,4.9284,4.9059,4.8514,4.8215,4.7991,4.7227,4.6816,4.6756,4.5993,4.5552,4.538,4.4767,4.4304,4.4259,4.4252,4.4048,4.3807,4.3742,4.3557,4.3299,4.3265,4.3122,4.2996,4.2941,4.2795,4.2646,4.2481,4.1613,3.9932,4.0264,4.0594,4.0678,4.1253,4.1534,4.1477,4.1569,4.1582,4.1582,4.156,4.163,4.1735,4.1735,4.1665,4.174,4.188,4.2009,4.2463,4.2509,4.2753,4.3276,4.3415,4.3415,4.3332,4.2168,4.1391,4.1101,4.1078,4.1054,4.0985,4.0844,4.0738,4.0704,4.0583,4.0534,4.0485,4.0387,4.0313,4.0186,3.9763,3.9282,3.8826,3.8488,3.8135,3.7898,3.7388,3.6946,3.6629,3.5974,3.5222,3.4362,3.4004,3.3846,3.3234,3.2648,3.2141,3.1655,3.1029,3.0325,2.9826,2.9396,2.8959,2.8591,2.8278,2.8086,5.4409,5.4409,5.4409,5.4409,5.4409,5.4409,5.4296,5.3996,5.3449,5.3111,5.2773,5.2193,5.2006,5.1893,5.1743,5.1743,5.178,5.1442,5.0954,5.0691,5.0472,4.9931,4.9502,4.9202,4.909,4.894,4.8212,4.783,4.7755,4.6975,4.63,4.564,4.5357,4.4915,4.4481,4.4348,4.4252,4.4192,4.4162,4.4079,4.4017,4.3971,4.3839,4.359,4.3523,4.337,4.3122,4.3069,4.2608,4.1579,4.1407,4.1411,4.1354,4.1508,4.1648,4.1674,4.1639,4.1639,4.1639,4.1674,4.1885,4.2412,4.2505,4.2705,4.3208,4.3243,4.3325,4.3512,4.3512,4.357,4.3674,4.372,4.3696,4.3554,4.3096,4.2639,4.2393,4.2068,4.1723,4.163,4.125,4.1019,4.0868,4.0796,4.07,4.0641,4.0534,4.0436,4.0368,4.0275,3.9861,3.9719,3.9423,3.9011,3.8589,3.8101,3.7773,3.758,3.708,3.6434,3.5512,3.4818,3.4668,3.4386,3.3733,3.3145,3.2947,3.258,3.1733,3.08,3.0603,3.0335,2.948,2.8973,2.8873,5.4409,5.4409,5.4409,5.4409,5.4409,5.4409,5.4409,5.4334,5.3921,5.3712,5.3583,5.3207,5.2944,5.2907,5.2606,5.2682,5.2832,5.2231,5.1855,5.1721,5.1029,5.0241,4.9678,4.949,4.949,4.9452,4.9002,4.8776,4.8589,4.7913,4.7087,4.6321,4.5842,4.5213,4.4515,4.4435,4.4406,4.4406,4.4406,4.4368,4.4368,4.4368,4.4281,4.4094,4.3996,4.3871,4.3693,4.3838,4.3542,4.2768,4.2402,4.2257,4.1987,4.1924,4.1958,4.2102,4.2118,4.2259,4.2652,4.2665,4.2876,4.3286,4.3404,4.3511,4.3769,4.3886,4.3957,4.4343,4.4378,4.4506,4.4738,4.4749,4.4701,4.4673,4.454,4.4024,4.3068,4.2722,4.2466,4.2199,4.2002,4.1736,4.1412,4.1271,4.1085,4.0889,4.0655,4.0607,4.0583,4.0534,4.0476,4.0241,4.0124,3.9734,3.9491,3.9137,3.8623,3.843,3.7874,3.7316,3.6525,3.5613,3.5185,3.4925,3.4569,3.4213,3.3858,3.3448,3.2782,3.212,3.2,3.1648,3.0855,3.0128,2.9968,5.448,5.4388,5.4426,5.4426,5.4409,5.4409,5.4409,5.4409,5.4334,5.4334,5.4296,5.4371,5.4146,5.4371,5.3545,5.3695,5.4221,5.2982,5.2719,5.2435,5.163,5.0504,4.9828,4.9565,4.9527,4.949,4.949,4.9415,4.9189,4.8626,4.7913,4.7199,4.6411,4.5622,4.5195,4.4932,4.4782,4.4918,4.5031,4.5068,4.5031,4.5017,4.5025,4.4945,4.4915,4.4849,4.4856,4.4978,4.4778,4.3594,4.3414,4.3266,4.2923,4.2733,4.2875,4.3152,4.3279,4.3562,4.4161,4.4169,4.4294,4.4511,4.4472,4.4339,4.4493,4.4611,4.4812,4.5341,4.5316,4.5587,4.5901,4.6158,4.5954,4.581,4.5865,4.4872,4.3439,4.3206,4.3204,4.2389,4.284,4.2628,4.2255,4.193,4.1757,4.134,4.113,4.1106,4.0978,4.0817,4.0676,4.05,4.0417,4.0427,4.0285,4.0177,3.9695,3.9248,3.8531,3.786,3.7259,3.6434,3.5736,3.5265,3.5018,3.4705,3.4293,3.3881,3.357,3.316,3.2817,3.2707,3.2497,3.181,3.1476,5.5217,5.4549,5.4505,5.4439,5.4409,5.4409,5.4409,5.4426,5.4426,5.4443,5.4409,5.4409,5.4409,5.4371,5.42,5.4259,5.4388,5.3862,5.3695,5.2998,5.2193,5.1217,5.0482,4.9972,4.958,4.9527,4.949,4.949,4.9377,4.9227,4.8776,4.795,4.7575,4.7237,4.6486,4.6223,4.6434,4.6448,4.6411,4.6336,4.6298,4.6298,4.6284,4.6269,4.6307,4.6382,4.6442,4.6548,4.6435,4.61,4.5523,4.5114,4.4746,4.4671,4.4721,4.4785,4.4874,4.5003,4.5207,4.5329,4.5477,4.6033,4.5951,4.6076,4.6585,4.632,4.6349,4.6575,4.6587,4.6541,4.6543,4.6447,4.6398,4.6326,4.6217,4.5807,4.4703,4.3965,4.3391,4.2612,4.2102,4.1626,4.1451,4.1947,4.1923,4.1723,4.1698,4.1709,4.1512,4.1281,4.1071,4.0998,4.0871,4.0847,4.051,4.0436,4.0167,3.9855,3.9238,3.8759,3.8121,3.735,3.6683,3.6075,3.5569,3.5222,3.4985,3.4805,3.4582,3.4126,3.3649,3.346,3.3271,3.296,3.2859,5.5526,5.4745,5.4698,5.4667,5.4619,5.4608,5.4608,5.4641,5.4608,5.4592,5.4592,5.4522,5.4472,5.4439,5.4489,5.4468,5.4522,5.4587,5.4393,5.388,5.3126,5.2484,5.2032,5.1171,5.0538,4.9724,4.949,4.949,4.949,4.9415,4.9002,4.8251,4.8228,4.765,4.7124,4.7049,4.6936,4.6936,4.7012,4.7012,4.7012,4.7012,4.7012,4.7012,4.7012,4.7012,4.6959,4.7387,4.75,4.7522,4.7479,4.6937,4.608,4.5899,4.5956,4.612,4.6082,4.6375,4.6577,4.6724,4.6886,4.7348,4.7223,4.7264,4.7472,4.7428,4.7399,4.7378,4.7342,4.7299,4.7168,4.7124,4.699,4.6959,4.6878,4.6534,4.5815,4.5129,4.4244,4.3428,4.3114,4.2555,4.2345,4.2311,4.2181,4.2098,4.2061,4.2071,4.2526,4.226,4.1881,4.1695,4.1464,4.1209,4.0734,4.0534,4.0461,4.0192,3.9914,3.9695,3.9383,3.8507,3.761,3.7066,3.6525,3.6209,3.5971,3.5813,3.5522,3.4931,3.4485,3.4216,3.407,3.4024,3.4011,5.5852,5.5139,5.4973,5.4897,5.4905,5.4845,5.4845,5.489,5.4845,5.4783,5.4799,5.4698,5.4651,5.4603,5.4651,5.4645,5.4676,5.4791,5.4746,5.4595,5.408,5.3587,5.3223,5.2588,5.1532,4.992,4.986,4.9823,4.9634,4.9514,4.9243,4.8574,4.8469,4.8266,4.7612,4.7425,4.7612,4.765,4.765,4.7612,4.7575,4.7575,4.7575,4.7612,4.7612,4.7612,4.7763,4.8101,4.8401,4.8438,4.9114,4.8487,4.7436,4.6843,4.6932,4.7298,4.7298,4.7592,4.807,4.8219,4.8255,4.8384,4.8216,4.8102,4.8043,4.7965,4.7906,4.7906,4.7886,4.7846,4.7886,4.7745,4.7704,4.7663,4.7663,4.7373,4.6825,4.6498,4.5599,4.4377,4.3854,4.3395,4.2946,4.2738,4.2591,4.2473,4.246,4.2621,4.3128,4.3276,4.2864,4.2621,4.253,4.2255,4.1798,4.1356,4.1168,4.0906,4.0681,4.0436,4.0328,3.9602,3.87,3.8096,3.7586,3.7235,3.6884,3.6693,3.63,3.574,3.5358,3.5098,3.5075,3.5152,3.5015,5.7006,5.606,5.5318,5.4941,5.492,5.4905,5.492,5.492,5.4882,5.4905,5.4905,5.489,5.4837,5.4822,5.4822,5.4852,5.4867,5.4927,5.495,5.495,5.4661,5.4358,5.3803,5.359,5.2494,5.1277,5.087,5.0643,4.992,4.9741,4.9594,4.9437,4.934,4.9108,4.8972,4.9077,4.886,4.8799,4.8837,4.886,4.886,4.886,4.886,4.8844,4.8807,4.8867,4.8927,4.9152,4.9302,4.9302,4.9452,4.9271,4.8871,4.8727,4.8776,4.8786,4.8775,4.8853,4.9073,4.9176,4.9246,4.923,4.8956,4.8836,4.8711,4.8586,4.8495,4.8458,4.8384,4.8272,4.8121,4.8177,4.7965,4.7866,4.7869,4.7813,4.7624,4.7404,4.6943,4.5653,4.4926,4.4222,4.3793,4.3436,4.3319,4.3248,4.324,4.3615,4.4214,4.419,4.3874,4.3722,4.3676,4.3345,4.297,4.2543,4.2195,4.1843,4.1502,4.1003,4.0778,4.0387,3.9763,3.9078,3.8464,3.7952,3.7701,3.7552,3.7124,3.6585,3.629,3.6018,3.5961,3.587,3.5613,5.7877,5.6614,5.6049,5.5573,5.5189,5.5085,5.5085,5.5151,5.5085,5.5071,5.5057,5.5028,5.4985,5.4956,5.4985,5.5042,5.5137,5.5151,5.5151,5.5151,5.5113,5.5012,5.4504,5.4517,5.3794,5.2956,5.2576,5.157,5.0044,4.989,4.9886,4.9783,4.9778,4.975,4.9721,4.9646,4.973,4.973,4.973,4.973,4.973,4.973,4.9678,4.9671,4.9627,4.9597,4.9551,4.9505,4.949,4.949,4.949,4.949,4.9527,4.958,4.9527,4.958,4.9527,4.9527,4.949,4.949,4.9474,4.9459,4.9348,4.9279,4.9246,4.911,4.9139,4.9064,4.9027,4.8922,4.8905,4.8801,4.8711,4.8603,4.8567,4.8531,4.8513,4.8495,4.7887,4.7059,4.6295,4.5494,4.463,4.436,4.4145,4.4049,4.4057,4.4577,4.5249,4.512,4.4884,4.4626,4.4525,4.4385,4.412,4.3814,4.3402,4.2999,4.2567,4.2032,4.1648,4.1425,4.0768,4.0012,3.9394,3.8846,3.8531,3.8357,3.7884,3.7479,3.7239,3.7023,3.6774,3.6558,3.6357,5.8642,5.7412,5.6904,5.6384,5.5925,5.5454,5.5428,5.5581,5.5338,5.5275,5.5262,5.5223,5.517,5.5154,5.5168,5.526,5.539,5.5377,5.5377,5.5364,5.5364,5.539,5.539,5.5275,5.4804,5.3862,5.3798,5.2819,5.1153,5.0707,5.0453,5.0426,5.0299,5.0285,5.0244,5.0482,5.0348,5.0386,5.0386,5.0423,5.0386,5.0234,5.0131,5.0024,4.984,4.9721,4.9678,4.9634,4.9762,4.9838,4.9898,4.9973,5.0018,5.0071,5.0071,5.0002,4.9896,4.9753,4.979,5.0091,5.0241,5.0263,5.0053,5.0,5.0037,5.0177,5.0043,4.9978,5.0022,4.9915,4.9792,4.9759,4.9562,4.9327,4.9257,4.9311,4.9176,4.911,4.9044,4.8301,4.7555,4.6835,4.6047,4.5255,4.5048,4.5289,4.5287,4.5689,4.6236,4.6106,4.5848,4.5467,4.5312,4.5308,4.5215,4.5193,4.4785,4.4449,4.3925,4.3434,4.3017,4.2682,4.1893,4.1185,4.0426,3.9932,3.9579,3.918,3.8817,3.8512,3.8251,3.7874,3.7431,3.7283,3.7215,5.9472,5.9125,5.7677,5.7313,5.7486,5.6234,5.5947,5.6359,5.5772,5.5465,5.5623,5.552,5.5497,5.5488,5.539,5.539,5.5403,5.5403,5.539,5.539,5.539,5.539,5.539,5.539,5.4982,5.4409,5.4218,5.3518,5.2527,5.2285,5.1878,5.1446,5.1659,5.1795,5.1136,5.1516,5.2092,5.2068,5.203,5.1992,5.1892,5.1323,5.1044,5.0803,5.0434,5.0079,5.0165,5.0175,5.0298,5.0784,5.088,5.1244,5.1775,5.2015,5.1985,5.1654,5.114,5.0595,5.067,5.1029,5.133,5.1292,5.1405,5.1555,5.1367,5.133,5.1367,5.163,5.1518,5.1142,5.0654,5.0541,5.0203,4.985,4.9684,4.9609,4.9518,4.9343,4.9327,4.9241,4.8393,4.8078,4.7539,4.6667,4.5993,4.6304,4.6608,4.6847,4.7012,4.681,4.699,4.6659,4.6458,4.6464,4.611,4.611,4.5972,4.568,4.5293,4.4835,4.4428,4.3978,4.3279,4.2555,4.173,4.0977,4.0549,4.0154,3.9798,3.9423,3.9093,3.8512,3.7932,3.7942,3.8121,6.0291,5.9707,5.8887,5.8382,5.8175,5.7471,5.7352,5.7412,5.6736,5.6329,5.6241,5.5769,5.5615,5.5615,5.5523,5.5499,5.5514,5.5428,5.5403,5.5403,5.5403,5.539,5.539,5.539,5.5097,5.4944,5.483,5.483,5.4091,5.3238,5.2475,5.2348,5.2501,5.2488,5.2081,5.2437,5.2564,5.2564,5.2602,5.264,5.2526,5.2284,5.2043,5.2003,5.1583,5.1367,5.1288,5.1347,5.1433,5.177,5.1812,5.195,5.2247,5.2352,5.2352,5.2309,5.2401,5.2069,5.1666,5.1829,5.2,5.1931,5.1931,5.1855,5.1893,5.1968,5.1968,5.1893,5.1893,5.1705,5.148,5.1367,5.1217,5.0879,5.0353,5.0241,5.0053,4.9549,4.939,4.9358,4.9289,4.8888,4.8471,4.7768,4.7083,4.7126,4.702,4.6855,4.7075,4.7166,4.7499,4.7942,4.7795,4.7702,4.7223,4.6928,4.6873,4.6664,4.6586,4.6161,4.5827,4.5323,4.4407,4.3605,4.2817,4.2124,4.1563,4.0886,4.0312,4.0051,3.9846,3.938,3.8982,3.9131,3.9174,6.098,6.0273,5.9898,5.9447,5.9032,5.8645,5.8501,5.8577,5.7795,5.7379,5.7097,5.6459,5.5948,5.5696,5.5675,5.5643,5.5671,5.5526,5.5453,5.5428,5.5428,5.5403,5.539,5.539,5.539,5.539,5.5275,5.525,5.4906,5.4256,5.348,5.3187,5.3544,5.3365,5.3225,5.3429,5.3658,5.3646,5.362,5.3582,5.3506,5.3251,5.3111,5.2997,5.2831,5.264,5.2549,5.2485,5.2444,5.2797,5.2824,5.2976,5.3238,5.3418,5.338,5.3428,5.3613,5.3564,5.3127,5.2959,5.2677,5.2661,5.2623,5.2934,5.2795,5.2575,5.258,5.2768,5.2736,5.2569,5.2268,5.2231,5.1968,5.1668,5.1292,5.1142,5.0879,5.0338,4.9925,4.9872,4.9727,4.9374,4.8958,4.8578,4.8219,4.8038,4.7616,4.7066,4.7144,4.7499,4.7707,4.8178,4.8086,4.8087,4.807,4.7738,4.7663,4.7424,4.7352,4.7059,4.6503,4.5838,4.4941,4.4252,4.3668,4.2946,4.2133,4.1468,4.0825,4.064,4.05,4.0397,4.0241,4.0288,4.0086,6.1373,6.125,6.0427,6.0391,6.0717,5.9254,5.8981,5.9505,5.8684,5.8365,5.8187,5.7517,5.6601,5.6119,5.5865,5.5779,5.5769,5.5643,5.5604,5.5523,5.5465,5.5428,5.5403,5.539,5.539,5.539,5.539,5.539,5.5352,5.5135,5.4524,5.4218,5.4524,5.4486,5.4409,5.4524,5.4791,5.483,5.483,5.4906,5.4715,5.4409,5.4015,5.3824,5.3289,5.2792,5.278,5.2972,5.329,5.3834,5.3912,5.4103,5.4417,5.4623,5.461,5.4594,5.4656,5.4624,5.4425,5.4284,5.4534,5.461,5.4481,5.4231,5.4094,5.4311,5.4339,5.4086,5.3849,5.3633,5.3316,5.3074,5.2848,5.2494,5.2193,5.1931,5.1593,5.1029,5.0654,5.0466,5.0263,5.0059,4.9706,4.9364,4.891,4.8712,4.8592,4.8042,4.7752,4.7941,4.7867,4.8002,4.7927,4.8078,4.8564,4.8379,4.7917,4.7586,4.7441,4.7128,4.6689,4.5993,4.5663,4.4839,4.4215,4.3502,4.2842,4.2282,4.1768,4.1353,4.1116,4.0955,4.0731,4.0573,4.0427,6.1412,6.1373,6.1031,6.1041,6.1237,6.0616,6.0476,6.0553,5.9808,5.9094,5.8574,5.7713,5.7132,5.6729,5.6162,5.5926,5.5909,5.5769,5.5745,5.5588,5.5535,5.5477,5.5415,5.5441,5.539,5.539,5.539,5.539,5.539,5.5543,5.5326,5.5135,5.5403,5.5174,5.5174,5.5174,5.5313,5.539,5.539,5.539,5.5313,5.5174,5.4906,5.483,5.4715,5.4409,5.4448,5.4409,5.4575,5.4715,5.4817,5.5007,5.5172,5.5339,5.5364,5.5273,5.5273,5.5246,5.5192,5.5052,5.492,5.492,5.4882,5.492,5.489,5.4807,5.4776,5.473,5.4689,5.4361,5.4178,5.4016,5.3816,5.3428,5.3074,5.2827,5.2397,5.1888,5.1518,5.1383,5.118,5.0992,5.06,5.0209,4.9733,4.9332,4.9214,4.9019,4.8654,4.8418,4.8327,4.831,4.8255,4.8053,4.8484,4.8281,4.8041,4.7767,4.7547,4.727,4.6977,4.7054,4.6543,4.5678,4.4816,4.4162,4.3616,4.3178,4.2657,4.2056,4.1696,4.1442,4.1208,4.0943,4.0836,6.1412,6.1412,6.1412,6.1412,6.1412,6.1412,6.1412,6.1296,6.0752,5.9947,5.9018,5.8389,5.7963,5.7614,5.7219,5.6909,5.6955,5.6863,5.6667,5.6529,5.6297,5.598,5.5784,5.5594,5.539,5.5441,5.5708,5.5785,5.5861,5.6014,5.6205,5.6243,5.6091,5.6014,5.5365,5.539,5.539,5.539,5.539,5.539,5.539,5.5352,5.5365,5.5313,5.525,5.5212,5.5174,5.5135,5.5199,5.5275,5.5313,5.5352,5.539,5.539,5.539,5.539,5.539,5.5428,5.5338,5.5206,5.5052,5.5095,5.508,5.5066,5.4985,5.4971,5.4941,5.4897,5.4837,5.4776,5.4676,5.4554,5.4484,5.4129,5.3968,5.3688,5.336,5.2892,5.2543,5.2285,5.1968,5.1555,5.1405,5.0938,5.0252,4.9755,4.9332,4.9176,4.9036,4.8874,4.8911,4.8878,4.8827,4.855,4.8293,4.837,4.8336,4.7816,4.7579,4.7542,4.7396,4.7401,4.7144,4.6168,4.5378,4.4864,4.4429,4.405,4.3341,4.2573,4.2364,4.2214,4.1923,4.1697,4.1563,6.1412,6.1412,6.1412,6.1373,6.1335,6.1412,6.1412,6.1373,6.1179,6.0635,5.9806,5.9619,5.9152,5.8563,5.8005,5.7811,5.7875,5.7994,5.7921,5.7503,5.6722,5.6709,5.6352,5.586,5.539,5.5594,5.5861,5.6129,5.6358,5.6664,5.716,5.7237,5.6816,5.6702,5.5504,5.5441,5.5441,5.5428,5.5581,5.567,5.5747,5.5785,5.5785,5.5823,5.5823,5.5899,5.5899,5.5899,5.5861,5.567,5.5823,5.5785,5.5632,5.5747,5.5747,5.5708,5.567,5.5594,5.5504,5.5415,5.5427,5.5325,5.5284,5.526,5.5195,5.5154,5.5085,5.5057,5.4971,5.4912,5.4882,5.4867,5.4837,5.4754,5.4579,5.4396,5.4069,5.3849,5.3478,5.3295,5.2559,5.1931,5.1931,5.1652,5.0831,5.0162,4.953,4.937,4.9492,4.9421,4.9517,4.9318,4.9267,4.8969,4.8712,4.8793,4.863,4.8036,4.7796,4.7853,4.7539,4.7228,4.686,4.6416,4.6015,4.5503,4.5208,4.4952,4.429,4.3703,4.3284,4.3023,4.2721,4.2383,4.2143,6.1412,6.1412,6.1412,6.107,6.0681,6.1179,6.1412,6.1296,6.0759,6.006,5.9244,5.8739,5.8357,5.7923,5.7535,5.7379,5.7288,5.7126,5.7038,5.6914,5.6503,5.6169,5.5922,5.5782,5.5416,5.5441,5.5747,5.5938,5.5747,5.6511,5.6358,5.6243,5.6855,5.6625,5.6893,5.7046,5.7084,5.7084,5.7084,5.7084,5.7046,5.7008,5.6969,5.6931,5.6931,5.6893,5.6893,5.6816,5.6625,5.6358,5.6511,5.6625,5.6434,5.6511,5.6931,5.6969,5.7008,5.7084,5.6893,5.6625,5.5938,5.5632,5.539,5.539,5.5326,5.5313,5.5273,5.5246,5.514,5.5085,5.5057,5.4985,5.4941,5.4905,5.4784,5.4746,5.4564,5.4527,5.436,5.4329,5.3905,5.3236,5.2983,5.2634,5.1888,5.1576,5.1094,5.0783,5.0846,5.0401,5.0198,4.9886,4.965,4.9351,4.9131,4.9101,4.9068,4.8658,4.8496,4.8539,4.8076,4.7482,4.7316,4.7262,4.6729,4.6143,4.5921,4.5665,4.5378,4.4948,4.4398,4.3715,4.3201,4.2848,4.2566,6.1428,6.1454,6.1428,6.1117,6.0637,6.0844,6.0791,6.0448,5.9865,5.9322,5.8778,5.8234,5.8078,5.7884,5.7496,5.7185,5.7185,5.7185,5.721,5.6901,5.6515,5.6454,5.6239,5.5723,5.5514,5.5529,5.5734,5.5861,5.6014,5.6205,5.6473,5.6625,5.6498,5.7466,5.7848,5.7581,5.6969,5.7008,5.7122,5.739,5.7581,5.7772,5.781,5.7772,5.7772,5.781,5.7848,5.781,5.7657,5.739,5.7428,5.7657,5.7428,5.7504,5.7925,5.7886,5.7886,5.7848,5.7619,5.7008,5.632,5.5938,5.5594,5.539,5.539,5.5377,5.539,5.5326,5.5313,5.5286,5.5257,5.5189,5.5237,5.518,5.5076,5.5076,5.4956,5.488,5.4821,5.4844,5.4776,5.4276,5.394,5.3559,5.3021,5.2897,5.2773,5.244,5.2053,5.1457,5.1029,5.0717,5.0293,4.9994,4.9625,4.9314,4.9243,4.9152,4.9084,4.9053,4.8796,4.8276,4.8201,4.811,4.7725,4.7302,4.6729,4.6362,4.6018,4.5707,4.5273,4.4564,4.378,4.3688,4.3683,6.1512,6.1495,6.1479,6.1473,6.1283,6.0456,5.9646,5.894,5.894,5.8901,5.8791,5.8752,5.8571,5.8636,5.8597,5.837,5.8176,5.8247,5.8156,5.796,5.7079,5.7069,5.6771,5.6249,5.6099,5.6084,5.6331,5.6754,5.6728,5.6855,5.7275,5.767,5.7695,5.8205,5.79,5.7351,5.6855,5.7466,5.7772,5.8077,5.8421,5.8307,5.8421,5.8459,5.8421,5.8421,5.8383,5.8307,5.8154,5.8039,5.8077,5.8039,5.7963,5.7963,5.8001,5.8039,5.8154,5.823,5.8116,5.7518,5.6906,5.6549,5.5823,5.5556,5.539,5.539,5.539,5.5479,5.5492,5.5543,5.5517,5.5631,5.5733,5.5592,5.545,5.5334,5.5165,5.5071,5.5014,5.4971,5.4941,5.4701,5.4587,5.4283,5.388,5.3924,5.3726,5.3344,5.2919,5.2327,5.1935,5.1769,5.1307,5.0787,5.038,5.0106,4.9791,4.9812,4.9467,4.9362,4.9179,4.8976,4.8753,4.8644,4.8796,4.8464,4.7762,4.7134,4.6618,4.6328,4.633,4.5636,4.4928,4.5552,4.5663,6.1476,6.151,6.1476,6.1164,6.0531,5.9703,5.9493,5.9744,5.9799,5.9527,5.896,5.8898,5.8521,5.8052,5.8019,5.7653,5.7286,5.7031,5.6969,5.6842,5.6805,5.6932,5.6919,5.6859,5.6981,5.728,5.7559,5.7529,5.7379,5.7442,5.7009,5.7073,5.7429,5.7773,5.7888,5.7569,5.8167,5.8664,5.8855,5.9071,5.9338,5.9453,5.9491,5.9453,5.9415,5.9415,5.9453,5.9453,5.93,5.8842,5.9376,5.9453,5.8765,5.93,5.9682,5.9682,5.972,5.9682,5.9467,5.8345,5.7504,5.7122,5.6243,5.5556,5.539,5.539,5.539,5.5479,5.5861,5.6014,5.6243,5.6396,5.632,5.6116,5.595,5.5733,5.5527,5.5233,5.5178,5.5165,5.5123,5.5014,5.4941,5.4829,5.4504,5.4647,5.4601,5.422,5.3785,5.3177,5.2848,5.2719,5.2215,5.1603,5.1474,5.1253,5.0771,5.0401,5.0148,4.9874,4.9596,4.9392,4.9172,4.9084,4.9088,4.8962,4.863,4.8039,4.7408,4.7687,4.7653,4.688,4.6367,4.6833,4.6945,6.1564,6.156,6.1569,6.1265,6.0804,6.0301,6.0364,6.0651,6.0069,5.9436,5.8978,5.8569,5.8155,5.7706,5.7355,5.6922,5.6519,5.6544,5.649,5.6464,5.6272,5.6816,5.7144,5.7451,5.7697,5.8142,5.8238,5.7841,5.7562,5.674,5.6205,5.6268,5.641,5.72,5.7813,5.8349,5.9165,5.9712,6.0081,6.0193,6.0269,6.0384,6.0384,6.0384,6.0384,6.0384,6.0384,6.0384,6.0078,5.9682,6.0307,6.0179,5.9529,5.9873,6.0141,6.0026,5.9835,5.995,5.9887,5.9109,5.8383,5.7657,5.6625,5.5899,5.5517,5.539,5.539,5.5466,5.6091,5.6639,5.6969,5.7199,5.6931,5.6664,5.6434,5.6205,5.5848,5.5466,5.5377,5.5377,5.5286,5.5219,5.5099,5.5028,5.4956,5.4897,5.4837,5.47,5.4403,5.4027,5.3779,5.362,5.3019,5.2402,5.2365,5.2198,5.164,5.1232,5.107,5.0721,5.0235,5.0148,5.021,4.9803,4.9305,4.9196,4.9088,4.8756,4.8347,4.8553,4.8573,4.8021,4.7545,4.7677,4.7568,6.1654,6.1602,6.1693,6.1666,6.1718,6.1598,6.1593,6.154,6.0095,5.9248,5.917,5.8347,5.8113,5.7935,5.7315,5.6761,5.6484,5.6398,5.6425,5.6429,5.6631,5.7128,5.7697,5.787,5.8681,5.8821,5.8769,5.8644,5.7303,5.6701,5.6412,5.5746,5.646,5.7389,5.8434,5.8906,5.9612,6.0252,5.9983,5.966,6.0259,6.045,6.0398,6.0412,6.0412,6.0412,6.0412,6.0436,6.0436,6.0436,6.0398,6.0412,5.9953,5.9838,5.9991,5.9939,5.9786,6.0015,6.0054,5.9428,5.8651,5.7886,5.7084,5.6205,5.567,5.5428,5.539,5.5556,5.6091,5.6524,5.6868,5.7313,5.7351,5.7046,5.6778,5.6282,5.5708,5.5441,5.539,5.539,5.5377,5.5273,5.526,5.5178,5.5165,5.5057,5.5,5.4941,5.4852,5.4601,5.4452,5.4338,5.3854,5.329,5.3203,5.2961,5.2419,5.2086,5.1961,5.1645,5.1178,5.1204,5.1361,5.0804,5.0226,4.9691,4.9433,4.923,4.9101,4.8844,4.8902,4.8887,4.8761,4.8635,4.8303,6.1713,6.1671,6.1713,6.1715,6.1718,6.1718,6.1718,6.1674,6.1275,6.099,6.0861,6.007,5.9293,5.8646,5.7752,5.7122,5.6605,5.6514,5.6503,5.6687,5.6909,5.7498,5.8616,5.8914,5.9776,6.0538,6.0469,5.9575,5.8396,5.7779,5.7375,5.6936,5.725,5.7871,5.9204,5.9562,5.987,6.0607,6.0044,5.9843,6.0418,6.0571,6.0571,6.0494,6.0443,6.0443,6.0443,6.052,6.0571,6.0571,6.0571,6.0226,5.9562,5.9945,5.992,5.9715,5.9791,5.9993,6.0018,5.957,5.883,5.8014,5.7212,5.632,5.5708,5.5517,5.5517,5.5708,5.5976,5.6358,5.6868,5.739,5.7772,5.7466,5.716,5.6434,5.5708,5.5594,5.5504,5.5504,5.5504,5.5504,5.5517,5.544,5.5351,5.5273,5.5195,5.514,5.5095,5.4956,5.4814,5.467,5.4544,5.4172,5.4032,5.3795,5.3306,5.2994,5.2869,5.2515,5.2086,5.1944,5.1932,5.1673,5.1245,5.065,5.0243,5.0114,4.9894,4.9637,4.9471,4.9623,4.9457,4.9294,4.8999,6.1718,6.1718,6.1718,6.1718,6.1718,6.1718,6.1718,6.1718,6.1718,6.1715,6.159,6.0765,6.0065,5.9417,5.8402,5.7697,5.7024,5.6665,5.6581,5.6725,5.7223,5.7577,5.8506,5.9556,6.002,6.0733,6.0794,6.0116,5.9251,5.8658,5.8178,5.7942,5.796,5.8503,5.983,5.9861,6.0103,6.0799,6.0201,6.0281,6.0505,6.0137,5.9588,5.9511,5.9818,5.9971,6.0188,6.0303,6.0623,6.0623,6.061,6.0495,6.0022,5.9882,5.9728,5.9447,5.9396,5.96,5.9702,5.9523,5.8999,5.8348,5.817,5.7609,5.7009,5.6779,5.6104,5.6218,5.6256,5.6587,5.739,5.8001,5.8345,5.8268,5.8154,5.7734,5.716,5.6855,5.6816,5.6816,5.6816,5.6816,5.6803,5.6803,5.6675,5.6561,5.6343,5.5872,5.5742,5.5573,5.5361,5.5198,5.517,5.489,5.4579,5.4425,5.421,5.4011,5.372,5.3558,5.3224,5.2723,5.2428,5.2357,5.2078,5.1536,5.1166,5.1075,5.0949,5.0712,5.0563,5.0451,5.0193,5.0064,5.003,6.1718,6.1718,6.1718,6.1718,6.1718,6.1718,6.1718,6.1718,6.1718,6.1718,6.164,6.0937,6.0588,5.9846,5.8831,5.8285,5.7853,5.7536,5.7187,5.7148,5.7382,5.8195,5.8819,5.9293,6.0224,6.0639,6.0726,6.0473,5.9933,5.9421,5.9032,5.8848,5.8919,5.9198,5.9808,6.0125,6.0349,6.0777,6.0702,6.0614,6.0052,5.9314,5.9036,5.8973,5.9063,5.9447,5.9766,6.0112,6.061,6.0649,6.0635,6.0405,6.0252,5.9945,5.9676,5.9433,5.9306,5.9447,5.9511,5.9728,5.9447,5.9268,5.9319,5.8987,5.8296,5.7697,5.7021,5.6843,5.6843,5.7072,5.7913,5.832,5.8626,5.8842,5.8765,5.8842,5.8345,5.7886,5.7848,5.7848,5.7848,5.7848,5.7848,5.7886,5.781,5.7734,5.7504,5.7084,5.6727,5.6534,5.6314,5.6182,5.615,5.5759,5.5102,5.4936,5.4843,5.4554,5.428,5.4392,5.4272,5.3658,5.3303,5.3228,5.2911,5.2465,5.2148,5.1982,5.1894,5.1711,5.1391,5.1129,5.1153,5.1062,5.1306,6.1718,6.1718,6.1718,6.1718,6.1718,6.1718,6.1718,6.1718,6.1718,6.1718,6.164,6.1562,6.1134,6.0393,5.9378,5.887,5.8792,5.8441,5.8558,5.8673,5.8753,5.9378,5.9807,6.0002,6.1056,6.1281,6.1197,6.0954,6.059,6.0219,5.9733,5.9215,5.9141,5.9528,6.0187,6.0426,6.0617,6.0961,6.0654,6.0354,6.0374,6.0046,6.0385,6.04,6.0438,6.0515,6.0592,6.0669,6.0746,6.0784,6.0734,6.0426,6.026,6.0184,5.9991,5.9622,5.9456,5.9751,5.9969,5.9983,5.9817,5.9587,5.9472,5.9203,5.8704,5.8397,5.7977,5.7977,5.7952,5.7838,5.8311,5.8246,5.8425,5.8525,5.8511,5.8842,5.8803,5.8421,5.8154,5.8154,5.8154,5.8154,5.8192,5.8192,5.8192,5.8116,5.8039,5.7657,5.7619,5.7466,5.7275,5.7145,5.7028,5.6168,5.5356,5.5359,5.5246,5.5011,5.4912,5.5028,5.4877,5.446,5.4125,5.3917,5.3862,5.3603,5.3324,5.2894,5.2594,5.2373,5.1994,5.1769,5.189,5.2044,5.2306]}]]